[[{"header":{"parameterUnit":"m.s-1","parameterCategory":1,"la1":30.6,"la2":29.2853,"lo1":-89.7004,"lo2":-87.6739,"dy":0.0162,"dx":0.0183,"nx":112,"ny":82,"refTime":"2026-04-20T00:00:00:Z","depth":0,"parameterNumber":2,"parameterNumberName":"U-component_of_WINDS"},"data":[0.0,0.0,0.0,0.0,0.0,0.0,0.0,0.0,0.0,0.0,0.0,0.0,0.0,0.0,0.0,0.0,0.0,0.0,0.0,0.0,0.0,0.0,0.0,0.0,0.0,0.0,0.0,0.0,0.0,0.0,0.0,0.0,0.0,0.0,0.0,0.0,0.0,0.0,0.0,0.0,0.0,0.0,0.0,0.0,0.0,0.0,0.0,0.0,0.0,0.0,0.0,0.0,0.0,0.0,0.0,0.0,0.0,0.0,0.0,0.0,0.0,0.0,0.0,0.0,0.0,0.0,0.0,0.0,0.0,0.0,0.0,0.0,0.0,0.0,0.0,0.0,0.0,0.0,0.0,0.0,0.0,0.0,0.0,0.0,0.0,0.0,0.0,0.0,0.0,0.0,-4.8544,-5.1782,-5.6364,-5.9454,-6.0005,-5.8794,-5.5919,-5.0993,0.0,0.0,0.0,0.0,0.0,0.0,0.0,0.0,0.0,0.0,0.0,0.0,0.0,0.0,0.0,0.0,0.0,0.0,0.0,0.0,0.0,0.0,0.0,0.0,0.0,0.0,0.0,0.0,0.0,0.0,0.0,0.0,0.0,0.0,0.0,0.0,0.0,0.0,0.0,0.0,0.0,0.0,0.0,0.0,0.0,0.0,0.0,0.0,0.0,0.0,0.0,0.0,0.0,0.0,0.0,0.0,0.0,0.0,0.0,0.0,0.0,0.0,0.0,0.0,0.0,0.0,0.0,0.0,0.0,0.0,0.0,0.0,0.0,0.0,0.0,0.0,0.0,0.0,0.0,0.0,0.0,0.0,0.0,0.0,0.0,0.0,0.0,0.0,0.0,0.0,0.0,0.0,0.0,0.0,0.0,0.0,0.0,0.0,0.0,0.0,0.0,0.0,0.0,0.0,-4.8624,-5.5473,-5.7983,-5.9018,-5.8635,-5.8238,-5.5725,-5.0373,0.0,0.0,0.0,0.0,0.0,0.0,0.0,0.0,0.0,0.0,0.0,0.0,0.0,0.0,0.0,0.0,0.0,0.0,0.0,0.0,0.0,0.0,0.0,0.0,0.0,0.0,0.0,0.0,0.0,0.0,0.0,0.0,0.0,0.0,0.0,0.0,0.0,0.0,0.0,0.0,0.0,0.0,0.0,0.0,0.0,0.0,0.0,0.0,0.0,0.0,0.0,0.0,0.0,0.0,0.0,0.0,0.0,0.0,0.0,0.0,0.0,0.0,0.0,0.0,0.0,0.0,0.0,0.0,0.0,0.0,0.0,0.0,0.0,0.0,0.0,0.0,0.0,0.0,0.0,0.0,0.0,0.0,0.0,0.0,0.0,0.0,0.0,0.0,0.0,0.0,0.0,0.0,0.0,0.0,0.0,0.0,0.0,0.0,0.0,0.0,0.0,0.0,0.0,-4.7292,-5.011,-5.6047,-5.7217,-5.7686,-5.7819,-5.65,-5.4026,-5.0145,-4.7379,0.0,0.0,0.0,0.0,0.0,0.0,0.0,0.0,0.0,0.0,0.0,0.0,0.0,0.0,0.0,0.0,0.0,0.0,0.0,0.0,0.0,0.0,0.0,0.0,0.0,0.0,0.0,0.0,0.0,0.0,0.0,0.0,0.0,0.0,0.0,0.0,0.0,0.0,0.0,0.0,0.0,0.0,0.0,0.0,0.0,0.0,0.0,0.0,0.0,0.0,0.0,0.0,0.0,0.0,0.0,0.0,0.0,0.0,0.0,0.0,0.0,0.0,0.0,0.0,0.0,0.0,0.0,0.0,0.0,0.0,0.0,0.0,0.0,0.0,0.0,0.0,0.0,0.0,0.0,0.0,0.0,0.0,0.0,0.0,0.0,0.0,0.0,0.0,0.0,0.0,0.0,0.0,0.0,0.0,0.0,0.0,0.0,0.0,0.0,0.0,0.0,0.0,-4.9403,-5.171,-5.5304,-5.5985,-5.6281,-5.6595,-5.4606,-5.2254,-4.9536,-4.6327,0.0,0.0,0.0,0.0,0.0,0.0,0.0,0.0,0.0,0.0,0.0,0.0,0.0,0.0,0.0,0.0,0.0,0.0,0.0,0.0,0.0,0.0,0.0,0.0,0.0,0.0,0.0,0.0,0.0,0.0,0.0,0.0,0.0,0.0,0.0,0.0,0.0,0.0,0.0,0.0,0.0,0.0,0.0,0.0,0.0,0.0,0.0,0.0,0.0,0.0,0.0,0.0,0.0,0.0,0.0,0.0,0.0,0.0,0.0,0.0,0.0,0.0,0.0,0.0,0.0,0.0,0.0,0.0,0.0,0.0,0.0,0.0,0.0,0.0,0.0,0.0,0.0,0.0,0.0,0.0,0.0,0.0,0.0,0.0,0.0,0.0,0.0,0.0,0.0,0.0,0.0,0.0,0.0,0.0,0.0,0.0,0.0,0.0,0.0,0.0,0.0,0.0,-4.8901,-5.2671,-5.3769,-5.5021,-5.5241,-5.4056,-5.3062,-5.1144,-4.7973,-4.5032,0.0,0.0,0.0,0.0,0.0,0.0,0.0,0.0,0.0,0.0,0.0,0.0,0.0,0.0,0.0,0.0,0.0,0.0,0.0,0.0,0.0,0.0,0.0,0.0,0.0,0.0,0.0,0.0,0.0,0.0,0.0,0.0,0.0,0.0,0.0,0.0,0.0,0.0,0.0,0.0,0.0,0.0,0.0,0.0,0.0,0.0,0.0,0.0,0.0,0.0,0.0,0.0,0.0,0.0,0.0,0.0,0.0,0.0,0.0,0.0,0.0,0.0,0.0,0.0,0.0,0.0,0.0,0.0,0.0,0.0,0.0,0.0,0.0,0.0,0.0,0.0,0.0,0.0,0.0,0.0,0.0,0.0,0.0,0.0,0.0,0.0,0.0,0.0,0.0,0.0,0.0,0.0,0.0,0.0,0.0,0.0,0.0,0.0,0.0,0.0,0.0,0.0,-4.7991,-5.1214,-5.2835,-5.356,-5.3752,-5.3229,-5.1968,-4.9805,-4.6615,0.0,0.0,0.0,0.0,0.0,0.0,0.0,0.0,0.0,0.0,0.0,0.0,0.0,0.0,0.0,0.0,0.0,0.0,0.0,0.0,0.0,0.0,0.0,0.0,0.0,0.0,0.0,0.0,0.0,0.0,0.0,0.0,0.0,0.0,0.0,0.0,0.0,0.0,0.0,0.0,0.0,0.0,0.0,0.0,0.0,0.0,0.0,0.0,0.0,0.0,0.0,0.0,0.0,0.0,0.0,0.0,0.0,0.0,0.0,0.0,0.0,0.0,0.0,0.0,0.0,0.0,0.0,0.0,0.0,0.0,0.0,0.0,0.0,0.0,0.0,0.0,0.0,0.0,0.0,0.0,0.0,0.0,0.0,0.0,0.0,0.0,0.0,0.0,0.0,0.0,0.0,0.0,0.0,0.0,0.0,0.0,0.0,0.0,0.0,0.0,0.0,0.0,-4.3599,-4.7471,-5.0689,-5.2328,-5.2866,-5.3101,-5.3101,-5.1167,-4.8689,-4.5797,0.0,0.0,0.0,0.0,0.0,0.0,0.0,0.0,0.0,0.0,0.0,0.0,0.0,0.0,0.0,0.0,0.0,0.0,0.0,0.0,0.0,0.0,0.0,0.0,0.0,0.0,0.0,0.0,0.0,0.0,0.0,0.0,0.0,0.0,0.0,0.0,0.0,0.0,0.0,0.0,0.0,0.0,0.0,0.0,0.0,0.0,0.0,0.0,0.0,0.0,0.0,0.0,0.0,0.0,0.0,0.0,0.0,0.0,0.0,0.0,0.0,0.0,0.0,0.0,0.0,0.0,0.0,0.0,0.0,0.0,0.0,0.0,0.0,0.0,0.0,0.0,0.0,0.0,0.0,0.0,0.0,0.0,0.0,0.0,0.0,0.0,0.0,0.0,0.0,0.0,0.0,0.0,0.0,0.0,0.0,0.0,0.0,0.0,0.0,0.0,0.0,0.0,-4.2219,-4.753,-5.1488,-5.2232,-5.301,-5.3484,-5.3484,-5.0744,-4.7967,0.0,0.0,0.0,0.0,0.0,0.0,0.0,0.0,0.0,0.0,0.0,0.0,0.0,0.0,0.0,0.0,0.0,0.0,0.0,0.0,0.0,0.0,0.0,0.0,0.0,0.0,0.0,0.0,0.0,0.0,0.0,0.0,0.0,0.0,0.0,0.0,0.0,0.0,0.0,0.0,0.0,0.0,0.0,0.0,0.0,0.0,0.0,0.0,0.0,0.0,0.0,0.0,0.0,0.0,0.0,0.0,0.0,0.0,0.0,0.0,0.0,0.0,0.0,0.0,0.0,0.0,0.0,0.0,0.0,0.0,0.0,0.0,0.0,0.0,0.0,0.0,0.0,0.0,0.0,0.0,0.0,0.0,0.0,0.0,0.0,0.0,0.0,0.0,0.0,0.0,0.0,0.0,0.0,0.0,0.0,0.0,0.0,0.0,0.0,0.0,0.0,0.0,0.0,-4.2929,-4.7804,-5.1488,-5.2232,-5.2503,-5.2672,-5.2672,-5.0405,-4.7585,-4.4218,0.0,0.0,0.0,0.0,0.0,0.0,0.0,0.0,0.0,0.0,0.0,0.0,0.0,0.0,0.0,0.0,0.0,0.0,0.0,0.0,0.0,0.0,0.0,0.0,0.0,0.0,0.0,0.0,0.0,0.0,0.0,0.0,0.0,0.0,0.0,0.0,0.0,0.0,0.0,0.0,0.0,0.0,0.0,0.0,0.0,0.0,0.0,0.0,0.0,0.0,0.0,0.0,0.0,0.0,0.0,0.0,0.0,0.0,0.0,0.0,0.0,0.0,0.0,0.0,0.0,0.0,0.0,0.0,0.0,0.0,0.0,0.0,0.0,0.0,0.0,0.0,0.0,0.0,0.0,0.0,0.0,0.0,0.0,0.0,0.0,0.0,0.0,0.0,0.0,0.0,0.0,0.0,0.0,0.0,0.0,0.0,0.0,0.0,0.0,0.0,0.0,0.0,-4.3172,-4.797,-5.1623,-5.2672,-5.2773,-5.2909,-5.3179,-5.1183,-4.8308,-4.4553,0.0,0.0,0.0,0.0,0.0,0.0,0.0,0.0,0.0,0.0,0.0,0.0,0.0,0.0,0.0,0.0,0.0,0.0,0.0,0.0,0.0,0.0,0.0,0.0,0.0,0.0,0.0,0.0,0.0,0.0,0.0,0.0,0.0,0.0,0.0,0.0,0.0,0.0,0.0,0.0,0.0,0.0,0.0,0.0,0.0,0.0,0.0,0.0,0.0,0.0,0.0,0.0,0.0,0.0,0.0,0.0,0.0,0.0,0.0,0.0,0.0,0.0,0.0,0.0,0.0,0.0,0.0,0.0,0.0,0.0,0.0,0.0,0.0,0.0,0.0,0.0,0.0,0.0,0.0,0.0,0.0,0.0,0.0,0.0,0.0,0.0,0.0,0.0,0.0,0.0,0.0,0.0,0.0,0.0,0.0,0.0,0.0,0.0,0.0,0.0,0.0,0.0,-4.3192,-4.7855,-5.1562,-5.3112,-5.328,-5.3584,-5.4328,-5.2302,-4.9499,-4.6041,0.0,0.0,0.0,0.0,0.0,0.0,0.0,0.0,0.0,0.0,0.0,0.0,0.0,0.0,0.0,0.0,0.0,0.0,0.0,0.0,0.0,0.0,0.0,0.0,0.0,0.0,0.0,0.0,0.0,0.0,0.0,0.0,0.0,0.0,0.0,0.0,0.0,0.0,0.0,0.0,0.0,0.0,0.0,0.0,0.0,0.0,0.0,0.0,0.0,0.0,0.0,0.0,0.0,0.0,0.0,0.0,0.0,0.0,0.0,0.0,-4.3914,-4.2341,0.0,0.0,0.0,0.0,0.0,0.0,0.0,0.0,0.0,0.0,0.0,0.0,0.0,0.0,0.0,0.0,0.0,0.0,0.0,0.0,0.0,0.0,0.0,0.0,0.0,0.0,0.0,0.0,0.0,0.0,0.0,0.0,0.0,0.0,0.0,0.0,0.0,0.0,0.0,0.0,-4.382,-4.7143,-4.9776,-5.1459,-5.159,-5.1944,-5.2717,-5.0691,-4.8588,-4.6688,-4.2382,0.0,0.0,0.0,0.0,0.0,0.0,0.0,0.0,0.0,0.0,0.0,0.0,0.0,0.0,0.0,0.0,0.0,0.0,0.0,0.0,0.0,0.0,0.0,0.0,0.0,0.0,0.0,0.0,0.0,0.0,0.0,0.0,0.0,0.0,0.0,0.0,0.0,0.0,0.0,0.0,0.0,0.0,0.0,0.0,0.0,0.0,0.0,0.0,0.0,0.0,0.0,0.0,0.0,0.0,0.0,0.0,0.0,0.0,0.0,-4.6413,-4.466,0.0,0.0,0.0,0.0,0.0,0.0,0.0,0.0,0.0,0.0,0.0,0.0,0.0,0.0,0.0,0.0,0.0,0.0,0.0,0.0,0.0,0.0,0.0,0.0,0.0,0.0,0.0,0.0,0.0,0.0,0.0,0.0,0.0,0.0,0.0,0.0,0.0,0.0,0.0,0.0,-4.2902,-4.6334,-4.9047,-5.0574,-5.0773,-5.0925,-5.1369,-4.9675,-4.7858,-4.609,-4.2114,0.0,0.0,0.0,0.0,0.0,0.0,0.0,0.0,0.0,0.0,0.0,0.0,0.0,0.0,0.0,0.0,0.0,0.0,0.0,0.0,0.0,0.0,0.0,0.0,0.0,0.0,0.0,0.0,0.0,0.0,0.0,0.0,0.0,0.0,0.0,0.0,0.0,0.0,0.0,0.0,0.0,0.0,0.0,0.0,0.0,0.0,0.0,0.0,0.0,0.0,0.0,0.0,0.0,-5.1199,-5.19,-5.2606,-5.2905,-5.2815,-5.2247,-4.9314,-4.7638,-4.6817,-4.5005,0.0,0.0,0.0,0.0,0.0,0.0,0.0,0.0,0.0,0.0,0.0,0.0,0.0,0.0,0.0,0.0,0.0,0.0,0.0,0.0,0.0,0.0,-4.0816,-3.9828,-4.1594,-4.2475,-3.8806,0.0,0.0,0.0,0.0,0.0,0.0,0.0,0.0,0.0,0.0,0.0,-4.1851,-4.55,-4.8409,-4.9843,-4.997,-4.9977,-5.0006,-4.8795,-4.7308,-4.5434,-4.2045,-3.8985,0.0,0.0,0.0,0.0,0.0,0.0,0.0,0.0,0.0,0.0,0.0,0.0,0.0,0.0,0.0,0.0,0.0,0.0,0.0,0.0,0.0,0.0,0.0,0.0,0.0,0.0,0.0,0.0,0.0,0.0,0.0,0.0,-4.3629,-4.308,0.0,0.0,0.0,0.0,0.0,0.0,0.0,0.0,0.0,0.0,0.0,0.0,0.0,-4.9344,-5.0571,-5.2456,-5.3773,-5.4431,-5.6226,-5.7423,-5.8022,-5.6944,-5.6735,-5.7124,-5.5568,0.0,-4.9568,-4.8207,0.0,0.0,0.0,0.0,0.0,0.0,0.0,0.0,0.0,0.0,0.0,0.0,0.0,0.0,0.0,0.0,0.0,0.0,0.0,0.0,0.0,0.0,-4.3898,-4.4287,-4.4287,-4.3988,-4.3427,-4.016,-3.6917,-3.5475,-3.4607,-3.3565,0.0,0.0,0.0,0.0,0.0,0.0,-4.2334,-4.468,-4.6641,-4.816,-4.8313,-4.8368,-4.8482,-4.7731,-4.69,-4.6106,-4.3158,-4.0992,-4.0037,-3.6137,0.0,0.0,0.0,0.0,0.0,0.0,0.0,0.0,0.0,0.0,0.0,0.0,0.0,0.0,0.0,0.0,0.0,0.0,0.0,0.0,0.0,0.0,0.0,0.0,0.0,0.0,0.0,0.0,0.0,-4.4107,-4.5603,-4.4556,-4.5693,-4.5484,0.0,0.0,0.0,0.0,0.0,0.0,0.0,0.0,0.0,-5.1947,-5.2396,-5.3414,-5.5089,-5.6705,-5.7663,-5.7962,-5.9219,-5.9967,-6.0206,-5.9219,-5.8949,-5.9159,-5.8231,-5.6615,-5.4411,-5.1648,-4.9703,-4.8222,0.0,0.0,0.0,0.0,-4.3718,-4.3898,-4.5005,-4.4945,-4.4317,-4.3748,0.0,0.0,0.0,0.0,0.0,0.0,0.0,-4.0905,-4.2581,-4.4227,-4.5693,-4.6741,-4.677,-4.6441,-4.6082,-4.3808,-4.1183,-3.8792,-3.7703,-3.6202,-3.3307,-3.3757,0.0,0.0,0.0,-3.9213,-4.1243,-4.3512,-4.5331,-4.6346,-4.6508,-4.6524,-4.6559,-4.5919,-4.5244,-4.4617,-4.2294,-4.0689,-3.9982,-3.7374,-3.5537,0.0,0.0,0.0,0.0,0.0,0.0,0.0,0.0,0.0,0.0,0.0,0.0,0.0,0.0,0.0,0.0,0.0,0.0,0.0,0.0,0.0,0.0,0.0,0.0,0.0,0.0,0.0,0.0,-4.5903,-4.7758,-4.6232,-4.8117,-4.8237,0.0,0.0,0.0,0.0,0.0,0.0,-5.1006,-5.1648,-5.3144,-5.5628,-5.6196,-5.7244,-5.886,-5.9847,-6.0446,-6.0595,-6.1134,-6.1463,-6.1583,-6.0924,-6.0505,-6.0326,-5.9638,-5.8979,-5.8112,-5.464,-5.2426,-5.0973,-4.8492,-4.7445,-4.7266,-4.713,-4.707,-4.7309,-4.8955,-4.9075,-4.8356,-4.7189,-4.6022,-4.4496,-4.1354,0.0,0.0,0.0,0.0,-4.306,-4.4855,-4.6082,-4.713,-4.8267,-4.858,-4.8356,-4.7698,-4.6651,-4.4945,-4.1983,-4.0726,-3.911,-3.5818,-3.5938,0.0,-3.4262,-3.7255,-3.9978,-4.0786,-4.288,-4.4556,-4.5214,-4.5304,-4.5214,-4.5065,-4.4586,-4.3977,-4.3319,-4.1654,-4.0427,-3.9948,-3.8421,-3.7079,-3.6013,0.0,0.0,0.0,0.0,0.0,0.0,0.0,0.0,0.0,0.0,0.0,0.0,0.0,0.0,0.0,0.0,0.0,0.0,0.0,0.0,0.0,0.0,0.0,0.0,0.0,0.0,0.0,0.0,0.0,-4.8356,-5.096,0.0,0.0,0.0,0.0,-4.9837,-5.1768,-5.3743,-5.5769,-5.6406,-5.7693,-5.9727,-5.9817,-6.0206,-6.0954,-6.1044,-6.1373,-6.2002,-6.2032,-6.2361,-6.2959,-6.2301,-6.1642,-6.1014,-6.0326,-5.9668,-5.889,-5.6825,-5.5209,-5.3803,-5.1768,-5.0554,-4.9927,-4.9344,-4.9179,-4.9269,-4.9942,-4.9763,-4.9449,-5.0541,-4.9224,-4.701,-4.6172,-4.4994,0.0,0.0,-4.5544,-4.6381,-4.7728,-4.8147,-4.8356,-4.909,-4.9269,-4.909,-4.8386,-4.7698,-4.6591,-4.4526,-4.309,-4.1782,-4.0307,0.0,-3.896,-3.8212,-3.9379,-4.0816,-4.2141,-4.3449,-4.4556,-4.5214,-4.5304,-4.5035,-4.4407,-4.4347,-4.3977,-4.3319,-4.2073,-4.1324,-4.1294,-3.9385,-3.8284,-3.8157,-3.4819,0.0,0.0,0.0,0.0,0.0,0.0,0.0,0.0,0.0,0.0,0.0,0.0,0.0,0.0,0.0,0.0,0.0,0.0,0.0,0.0,0.0,0.0,0.0,0.0,0.0,0.0,0.0,0.0,-5.0883,-5.4102,0.0,-5.2366,-5.3084,-5.3803,-5.4042,-5.5867,-5.7483,-5.862,-5.9308,-6.0206,-6.1343,-6.1373,-6.1589,-6.2074,-6.2104,-6.2078,-6.2112,-6.2112,-6.2261,-6.2438,-6.1371,-6.0748,-6.0482,-5.9355,-5.8762,-5.8466,-5.7369,-5.6601,-5.5927,-5.4371,-5.3384,-5.2755,-5.2546,-5.2456,-5.2486,-5.2725,-5.2539,-5.2066,-5.0994,-4.9525,-4.7985,-4.7303,-4.643,-4.5838,-4.6533,-4.6889,-4.7392,-4.8741,-4.9067,-4.9291,-5.0054,-4.9981,-4.955,-4.9075,-4.8386,-4.7608,-4.6471,-4.4825,-4.321,-4.1931,-4.1512,-4.0935,-3.9858,-4.0816,-4.1871,-4.2351,-4.315,-4.3738,-4.4018,-4.3977,-4.3928,-4.3678,-4.3299,-4.301,-4.2731,-4.1474,-4.0756,-4.0756,-3.9649,-3.8827,-3.8374,-3.6321,-3.397,0.0,0.0,0.0,0.0,0.0,0.0,0.0,0.0,0.0,0.0,0.0,0.0,0.0,0.0,0.0,0.0,0.0,0.0,0.0,0.0,0.0,0.0,0.0,0.0,0.0,-4.9543,-5.2362,-5.2209,-5.6094,-5.7743,-5.5123,-5.6236,-5.7363,-5.7812,-5.9249,-6.022,-6.0395,-6.1297,-6.1744,-6.1612,-6.2019,-6.2342,-6.241,-6.2439,-6.2292,-6.2116,-6.2116,-6.2116,-6.2087,-6.1232,-6.0583,-6.0141,-5.9256,-5.8608,-5.8166,-5.7517,-5.7202,-5.7017,-5.5998,-5.5045,-5.425,-5.4488,-5.4428,-5.422,-5.422,-5.3822,-5.3079,-5.1581,-5.0217,-4.9098,-4.8627,-4.8214,-4.7949,-4.8391,-4.8509,-4.8715,-4.9616,-4.9823,-4.9988,-5.0544,-5.0384,-4.9897,-4.9191,-4.87,-4.8134,-4.7241,-4.5926,-4.4706,-4.3838,-4.3549,-4.301,-4.1893,-4.2641,-4.3219,-4.2731,-4.3269,-4.3529,-4.3319,-4.329,-4.329,-4.329,-4.2731,-4.241,-4.241,-4.0905,-4.0068,-4.0068,-3.902,-3.8212,-3.7764,-3.5818,-3.3604,-3.1152,0.0,0.0,0.0,0.0,0.0,0.0,0.0,0.0,0.0,0.0,0.0,0.0,0.0,0.0,0.0,0.0,0.0,0.0,0.0,0.0,0.0,0.0,0.0,-4.6095,-5.0667,-5.3537,-5.238,-5.6919,-5.9059,-5.6408,-5.79,-5.9593,-6.0906,-6.1649,-6.1728,-6.1048,-6.2263,-6.2263,-6.0655,-6.185,-6.2351,-6.2057,-6.2057,-6.2057,-6.1998,-6.2057,-6.2057,-6.2057,-6.2028,-6.1321,-6.02,-6.0113,-5.9347,-5.811,-5.7433,-5.7168,-5.7109,-5.6544,-5.5483,-5.4422,-5.507,-5.4893,-5.4304,-5.4304,-5.3478,-5.2397,-5.2367,-5.1513,-5.0482,-5.0453,-5.0501,-5.0501,-5.0501,-5.0501,-5.0501,-5.0501,-5.0501,-5.0501,-5.0501,-5.0501,-5.0147,-4.882,-4.8525,-4.8142,-4.6845,-4.6426,-4.6309,-4.6309,-4.5783,-4.5095,-4.4466,-4.4915,0.0,-4.3529,-4.3888,-4.4077,-4.3379,-4.329,-4.329,-4.329,-4.2731,-4.2351,-4.2351,-4.0457,-3.9379,-3.9379,-3.7554,-3.6507,-3.6507,-3.3274,-3.1241,-3.0554,0.0,0.0,0.0,0.0,0.0,0.0,0.0,0.0,0.0,0.0,0.0,0.0,0.0,0.0,0.0,0.0,0.0,0.0,0.0,0.0,0.0,-4.411,-4.5935,-4.7565,-5.16,-5.4222,-5.3699,-5.7414,-5.9348,-5.765,-5.7945,-5.8564,-5.9176,-6.0042,-6.0154,-5.9256,-6.0295,-6.0658,-6.0173,-6.0537,-6.0566,-6.0262,-6.1226,-6.1106,-5.9924,-6.0955,-6.1433,-6.1404,-5.9893,-5.9322,-5.9423,-5.7941,-5.7369,-5.744,-5.6333,-5.6187,-5.6592,-5.6383,-5.5778,-5.507,-5.5247,-5.4893,-5.4252,-5.4045,-5.3495,-5.2712,-5.2041,-5.1262,-5.0554,-5.0087,-4.9941,-4.9941,-4.9941,-4.9941,-4.9941,-4.9941,-4.9941,-4.999,-5.0135,-5.0183,-4.9879,-4.8774,-4.8525,-4.8142,-4.6845,-4.655,-4.6533,-4.6707,-4.6343,-4.5963,-4.5783,-4.5514,-4.5155,-4.4796,-4.4496,-4.4257,-4.4037,-4.3589,-4.329,-4.329,-4.2312,-4.1482,-4.0965,-3.9529,-3.8661,-3.8661,-3.76,-3.6926,-3.6788,-3.4604,-3.3089,0.0,0.0,0.0,0.0,0.0,0.0,0.0,0.0,0.0,0.0,0.0,0.0,0.0,0.0,0.0,0.0,0.0,0.0,0.0,0.0,0.0,0.0,-4.59,-4.7937,-4.9396,-5.2319,-5.4147,-5.3797,-5.6983,-5.8634,-5.7305,-5.7687,-5.8068,-5.8257,-5.9074,-5.8913,-5.7496,-5.8759,-5.9102,-5.8159,-5.8634,-5.9098,-5.9403,-5.9395,-5.913,-5.8789,-5.9002,-5.9125,-5.9097,-5.8677,-5.8475,-5.8369,-5.7762,-5.7136,-5.6451,-5.5448,-5.5082,-5.5196,0.0,0.0,0.0,0.0,-5.4293,-5.3942,-5.3815,-5.3013,-5.196,-5.1173,-5.0155,-4.9121,-4.8443,-4.8624,-4.9001,-4.9001,-4.9326,-4.9717,-4.9717,-4.9717,-4.9717,-4.9892,-4.9941,-4.9639,-4.8465,-4.8202,-4.7821,-4.6533,-4.6358,0.0,-4.658,-4.6504,-4.6321,-4.6053,-4.5667,-4.5221,-4.4686,-4.4311,-4.3913,-4.3645,-4.3288,-4.305,-4.305,-4.19,0.0,0.0,0.0,-3.7758,-3.6956,-3.6234,0.0,0.0,0.0,0.0,0.0,0.0,0.0,0.0,-3.1368,-3.0658,0.0,0.0,0.0,0.0,0.0,0.0,0.0,0.0,0.0,0.0,0.0,0.0,0.0,0.0,0.0,0.0,-4.8033,-5.0167,-5.1222,-5.271,-5.3518,-5.3166,-5.5755,-5.7112,-5.5775,-5.6726,-5.7432,-5.7496,-5.8053,-5.7618,-5.5828,-5.7434,0.0,0.0,0.0,-5.7651,-5.8592,-5.7039,-5.6765,-5.7908,-5.6765,-5.626,-5.6342,-5.7902,-5.8048,-5.7057,-5.8161,-5.7302,-5.5122,-5.4538,-5.384,-5.3288,-5.4087,-5.4331,-5.4186,-5.3521,-5.329,-5.329,-5.3097,0.0,0.0,-4.9886,-4.8586,-4.7107,-4.6538,-4.7078,-4.7819,-4.7819,-4.8524,-4.9297,-4.9297,-4.9297,-4.9346,-4.9473,-4.9522,-4.9175,-4.8043,-4.7782,-4.7404,-4.6127,-4.6046,-4.618,-4.618,-4.6403,-4.6403,-4.577,-4.5636,-4.5165,-4.4074,-4.382,-4.3466,-4.2865,-4.2747,0.0,-4.2688,-4.1568,-4.0899,-4.0772,-3.8974,-3.7052,-3.5163,-3.4669,-3.4109,-3.3397,-3.3894,-3.4482,-3.5041,-3.5658,-3.5952,-3.5864,-3.2278,-3.1219,0.0,0.0,0.0,0.0,0.0,0.0,0.0,0.0,0.0,0.0,0.0,0.0,0.0,0.0,0.0,-4.7054,-4.9414,-5.1197,-5.185,-5.2573,-5.286,-5.2396,-5.4256,-5.5061,-5.3632,-5.3768,-5.4013,-5.4376,-5.5232,-5.5232,-5.4064,-5.5099,-5.5564,-5.5153,-5.5326,-5.5565,-5.5789,-5.6084,-5.603,-5.5669,-5.6003,0.0,-5.6811,-5.6103,-5.5773,-5.5647,-5.4772,-5.4162,-5.3763,-5.2728,-5.1871,-5.1397,-5.305,-5.3358,-5.2821,-5.2254,-5.2028,-5.1835,-5.0407,-4.9694,-4.9255,-4.8627,-4.7892,-4.7189,-4.7053,-4.6832,0.0,-4.6632,-4.6788,-4.6943,-4.6943,-4.6943,-4.7177,-4.8122,-4.8324,-4.8262,-4.7901,-4.7782,-4.7404,-4.6127,-4.594,-4.5956,-4.5956,-4.6314,-4.655,-4.6432,-4.5931,-4.5489,-4.5253,-4.4352,-4.3643,-4.3525,-4.3012,-4.2688,-4.2688,-4.1981,-4.1332,-4.0763,-3.9378,-3.7892,-3.6342,-3.6775,-3.6623,-3.5694,-3.595,-3.6067,-3.6044,-3.616,-3.6247,-3.6218,-3.5044,-3.438,0.0,0.0,0.0,0.0,0.0,0.0,0.0,0.0,0.0,0.0,0.0,-4.2007,-4.2861,0.0,-4.6903,-4.8862,-5.082,-5.2302,-5.2829,-5.313,-5.3005,-5.2201,-5.3165,-5.3632,-5.2998,-5.2929,-5.2998,-5.3204,-5.3886,-5.398,-5.3204,-5.3886,-5.4253,-5.3971,-5.3971,-5.4154,-5.4576,-5.4001,-5.3909,-5.4131,-5.3909,-5.4001,-5.455,-5.455,-5.4471,-5.424,-5.392,-5.3148,-5.1968,-5.0462,-4.9636,-4.946,-5.1057,-5.1629,-5.1539,-5.1292,-5.1016,-5.0657,-4.9799,-4.9075,-4.8459,-4.7873,-4.711,-4.6234,-4.566,-4.5706,-4.5821,-4.5582,-4.5926,-4.6267,-4.6267,-4.6267,-4.658,-4.7717,-4.8021,-4.7935,-4.7854,-4.7782,-4.7404,-4.6127,-4.5895,-4.5895,-4.5895,-4.612,-4.6137,-4.5786,-4.5201,-4.4674,-4.4323,-4.3487,-4.2901,-4.2901,-4.2597,-4.2392,-4.2392,-4.1807,-4.1134,-4.0422,-3.9516,-3.8514,-3.7448,-3.7492,-3.7164,-3.6315,-3.6707,-3.6881,-3.6809,-3.7099,-3.7244,-3.7244,-3.7034,-3.6399,0.0,0.0,0.0,0.0,0.0,0.0,0.0,-4.1404,-4.1957,-4.3118,-4.4166,-4.5196,-4.6125,-4.7531,-4.9038,-5.0494,-5.2051,-5.3181,-5.3507,-5.3632,-5.3356,-5.2377,-5.2653,-5.2929,-5.2929,-5.2929,-5.2929,-5.2929,-5.3306,-5.3356,-5.2955,-5.3331,-5.3306,-5.2779,-5.2779,-5.3021,-5.3581,-5.1946,-5.1717,-5.2881,-5.1717,-5.1473,-5.2101,-5.313,-5.3322,-5.2855,-5.32,-5.2121,-5.0069,-4.8418,-4.7807,-4.8032,-4.9055,-4.9711,-5.0148,-5.0332,-5.0098,-4.964,-4.9197,-4.84,-4.751,-4.7126,-4.6225,-4.5146,-4.4242,-4.4546,-4.5041,-4.4526,-4.4967,-4.5635,-4.5635,-4.5635,-4.5979,-4.7074,-4.7331,-4.7331,-4.7204,-4.7328,-4.7095,-4.5825,-4.573,-4.5895,-4.5895,-4.5895,-4.5663,-4.4995,-4.4385,-4.3747,-4.3079,-4.2469,-4.2092,-4.2092,-4.2092,-4.2092,-4.2092,-4.1599,-4.1018,-4.0321,-3.9828,-3.9276,-3.8609,-3.8115,-3.7593,-3.7041,-3.7564,-3.7854,-3.7854,-3.8347,-3.858,-3.858,-3.858,-3.7883,-3.7588,-3.7814,-3.9044,-4.0501,-4.1329,-4.264,0.0,-4.5974,-4.5974,-4.7054,-4.8159,-4.8987,-4.9113,-5.0117,-5.1122,-5.18,-5.2879,-5.3482,-5.308,-5.3406,-5.3482,-5.2904,-5.2879,-5.2929,-5.2929,-5.2929,-5.2929,-5.2929,-5.298,-5.298,-5.2929,-5.298,-5.2754,-5.2226,-5.2201,-5.1993,-5.1639,-5.0861,-5.0836,-5.1538,-5.0811,-5.1071,-5.2076,-5.1774,-5.1589,-5.1437,-5.0065,-4.8938,-4.8145,-4.7492,-4.7481,-4.7908,-4.8032,-4.8168,-4.8288,-4.8901,-4.9081,-4.8695,-4.6703,-4.5902,-4.5784,-4.5733,-4.5263,-4.4694,-4.4568,-4.4249,-4.3891,-4.3336,-4.3295,-4.3351,-4.3351,-4.3351,-4.3657,-4.4778,-4.5047,-4.5023,-4.4979,-4.565,-4.5946,-4.4706,-4.5247,-4.5895,-4.5895,-4.5895,-4.5663,-4.4995,-4.4385,-4.3747,-4.3079,-4.2469,-4.2092,-4.2092,-4.2092,-4.2092,-4.2092,-4.2034,-4.1686,-4.1018,-4.0931,-4.0583,-3.9915,-3.9828,-3.9741,-3.9683,-3.9741,-3.9799,-3.9799,-3.9857,-3.9886,-3.9886,-3.9886,-3.9189,-4.0626,-4.1128,-4.2057,-4.3413,-4.4644,-4.5949,-4.7682,-4.8159,-4.8435,-4.9213,-5.0017,-5.0569,-5.0569,-5.1222,-5.195,-5.2503,-5.3206,-5.3733,-5.3858,-5.3783,-5.3507,-5.298,-5.2929,-5.2929,-5.2929,-5.3206,-5.3256,-5.2955,-5.2929,-5.2779,-5.2477,-5.2151,-5.1875,-5.1624,-5.1624,-5.1348,-5.077,-5.0544,-5.0544,-5.077,-5.0519,-5.0845,-5.1599,-5.1046,-5.0419,-4.9766,-4.8711,-4.7958,-4.7405,-4.6878,-4.7154,-4.7908,-4.7908,-4.8109,-4.8397,-4.835,-4.7921,-4.7274,-4.6305,-4.5974,-4.5924,-4.5598,-4.5547,-4.5422,-4.4443,-4.4217,-4.4091,-4.3212,-4.2986,-4.2986,-4.2986,-4.2986,-4.3295,-4.4424,-4.467,-4.4677,-4.4624,-4.4957,-4.4848,-4.3636,-4.3796,-4.4106,-4.4106,-4.4573,-4.4744,-4.4134,-4.4006,-4.3747,-4.3079,-4.2469,-4.2092,-4.2092,-4.2092,-4.2092,-4.2092,-4.2092,-4.1976,-4.1686,-4.1686,-4.1366,-4.0699,-4.067,-4.0495,-4.0118,-4.0089,-4.0089,-4.0089,-4.0089,-4.0089,-4.0089,-4.0089,-3.9799,-4.2308,-4.3388,-4.4543,-4.5673,-4.728,-4.8786,-4.9515,-4.9992,-5.0393,-5.0795,-5.1222,-5.1473,-5.1297,-5.1724,-5.2226,-5.2628,-5.3256,-5.3808,-5.4084,-5.3758,-5.3281,-5.2754,-5.2578,-5.2528,-5.2678,-5.3181,-5.3331,-5.2955,-5.2779,-5.2528,-5.2126,-5.1574,-5.1197,-5.1046,-5.1046,-5.077,-5.0193,-5.0193,-5.0193,-5.0193,-5.0193,-5.0494,-5.1021,-5.0619,-4.9816,-4.8736,-4.8159,-4.7606,-4.7043,-4.6702,-4.7079,-4.7908,-4.7908,-4.8159,-4.846,-4.7908,-4.7205,-4.6527,-4.6351,-4.62,-4.6024,-4.5623,-4.5748,-4.5824,-4.4443,-4.4292,-4.4418,-4.3463,-4.3087,-4.2986,-4.2986,-4.2986,-4.3184,-4.4042,-4.4261,-4.4141,-4.3752,-4.3897,-4.3751,-4.257,-4.2598,-4.2792,-4.2792,-4.3416,-4.3723,-4.3306,-4.3314,-4.3283,-4.3037,-4.2469,-4.2092,-4.2092,-4.2092,-4.2092,-4.2092,-4.2092,-4.2092,-4.2092,-4.2092,-4.1889,-4.1395,-4.1366,-4.1134,-4.067,-4.0641,-4.0641,-4.0641,-4.0641,-4.0641,-4.0641,-4.0641,-4.0641,-4.1326,-4.3363,-4.5698,-4.6803,-4.8736,-5.0619,-5.1749,-5.2026,-5.2026,-5.2051,-5.2076,-5.1925,-5.1373,-5.1724,-5.2126,-5.2126,-5.3005,-5.3532,-5.3055,-5.2955,-5.2754,-5.2201,-5.1649,-5.1548,-5.2076,-5.2628,-5.2955,-5.2929,-5.2427,-5.2126,-5.2101,-5.1574,-5.1021,-5.0469,-5.0444,-5.0167,-4.9615,-4.9615,-4.9615,-4.9615,-4.9615,-4.9916,-5.0444,-5.0419,-4.9816,-4.8736,-4.8159,-4.7606,-4.7068,-4.7043,-4.7431,-4.7908,-4.7908,-4.7908,-4.7883,-4.7355,-4.7068,-4.6968,-4.6502,-4.5949,-4.5522,-4.5497,-4.5497,-4.5397,-4.4794,-4.4618,-4.4493,-4.394,-4.3388,-4.2986,-4.2986,-4.2986,-4.3042,-4.3042,-4.3017,-4.2715,-4.1634,-4.221,-4.2631,-4.1455,-4.211,-4.2792,-4.2792,-4.284,-4.284,-4.2813,-4.227,-4.215,-4.2882,-4.2469,-4.2092,-4.2092,-4.2092,-4.2092,-4.2092,-4.2092,-4.2092,-4.2092,-4.2092,-4.2092,-4.2063,-4.2063,-4.2063,-4.2034,-4.2034,-4.2034,-4.2034,-4.2034,-4.2034,-4.2034,-4.2034,-4.2034,-4.4041,-4.5849,-4.7531,-4.9414,-5.072,-5.1724,-5.2477,-5.2377,-5.2101,-5.2101,-5.1222,-5.0393,-5.0193,-5.0318,-5.0695,-5.1448,-5.2176,-5.2829,-5.3356,-5.3432,-5.298,-5.1699,-5.2051,-5.2,-5.1071,-5.1825,-5.2377,-5.2377,-5.1875,-5.1398,-5.0996,-5.0469,-5.0067,-4.9866,-4.9866,-4.9791,-4.959,-4.959,-4.959,-4.959,-4.959,-4.969,-4.9866,-4.949,-4.8912,-4.8159,-4.7631,-4.7079,-4.6602,-4.6602,-4.6903,-4.738,-4.738,-4.738,-4.738,-4.7205,-4.6842,-4.6552,-4.6376,-4.6175,-4.5924,-4.5171,-4.5422,-4.5799,-4.4468,-4.4342,-4.4518,-4.3966,-4.3413,-4.2986,-4.2986,-4.2986,-4.2986,-4.2986,-4.2986,-4.2785,-4.2032,-4.185,-4.1635,-4.0872,-4.0722,-4.0769,-4.0769,-4.1295,-4.1633,-4.1236,-4.1254,-4.1443,-4.1934,-4.1454,-4.1339,-4.2051,-4.2092,-4.2092,-4.2092,-4.2092,-4.2092,-4.2092,-4.2092,-4.2092,-4.2092,-4.2092,-4.2092,-4.2092,-4.2092,-4.2092,-4.2092,-4.2092,-4.2092,-4.2092,-4.2092,-4.2092,-4.615,-4.7832,-4.9238,-5.1122,-5.2,-5.2452,-5.2603,-5.2352,-5.1925,-5.1322,-5.0017,-4.8937,-4.8736,-4.8385,-4.8686,-5.0393,-5.1147,-5.2026,-5.3482,-5.3532,-5.303,-5.2,-5.2151,-5.2,-5.1096,-5.1322,-5.1674,-5.2076,-5.1599,-5.1122,-5.0745,-5.0017,-4.959,-4.959,-4.959,-4.959,-4.959,-4.959,-4.959,-4.959,-4.959,-4.949,-4.9289,-4.8937,-4.836,-4.7606,-4.728,-4.6828,-4.6326,-4.6527,-4.6803,-4.7068,-4.7068,-4.7068,-4.7043,-4.6903,-4.6627,-4.6301,-4.6301,-4.6301,-4.6125,-4.4995,-4.5397,-4.6024,-4.4543,-4.4342,-4.4543,-4.4192,-4.3564,-4.2986,-4.2986,-4.2986,-4.2986,-4.2986,-4.2986,-4.2836,-4.2338,-4.1731,-4.1125,-4.0626,-4.0074,-3.9697,-3.9697,-4.0211,-4.0514,-4.0203,-4.0017,-4.0041,-4.0413,-4.0228,-4.0346,-4.1001,-4.1043,-4.1198,-4.1535,-4.1577,-4.1731,-4.2092,-4.2092,-4.2092,-4.2092,-4.2092,-4.2092,-4.2092,-4.2092,-4.2092,-4.2092,-4.2092,-4.2092,-4.2092,-4.2092,-4.2092,-4.7581,-4.9238,-5.077,-5.1875,-5.2528,-5.2729,-5.2176,-5.2026,-5.1498,-4.9841,-4.8535,-4.7531,-4.6993,-4.6125,-4.6326,-4.8987,-5.0017,-5.1197,-5.3331,-5.3256,-5.2955,-5.2904,-5.1975,-5.1548,-5.2026,-5.1096,-5.0896,-5.1975,-5.1523,-5.1197,-5.1197,-5.0167,-4.959,-4.959,-4.959,-4.959,-4.959,-4.959,-4.959,-4.959,-4.9565,-4.9289,-4.8761,-4.8711,-4.8109,-4.7068,-4.7043,-4.6803,-4.6351,-4.6878,-4.7043,-4.7043,-4.7043,-4.7043,-4.7029,-4.6502,-4.6301,-4.6301,-4.6301,-4.6301,-4.6125,-4.4995,-4.5397,-4.61,-4.497,-4.4618,-4.4618,-4.4618,-4.384,-4.2986,-4.2986,-4.2986,-4.2986,-4.2986,-4.2961,-4.2866,-4.2363,-4.1731,-4.11,-4.0651,-4.0099,-3.9697,-3.9697,-3.9697,-3.9697,-3.9697,-3.8768,-3.8182,-3.86,-3.8941,-3.9166,-3.921,-3.921,-3.9563,-4.0475,-4.0518,-4.0972,-4.1968,-4.2009,-4.2051,-4.2092,-4.2092,-4.2092,-4.2092,-4.2092,-4.2092,-4.2092,-4.2092,-4.2092,-4.2092,-4.2092,-4.2121,-4.9113,-5.0695,-5.185,-5.2528,-5.2528,-5.2176,-5.1624,-5.0845,-4.9866,-4.8611,-4.6476,-4.4794,-4.4669,-4.4744,-4.5347,-4.6903,-4.9339,-5.1398,-5.2377,-5.308,-5.3206,-5.2402,-5.2427,-5.2226,-5.1548,-5.1222,-5.1172,-5.1473,-5.0569,-5.0017,-5.0017,-4.9766,-4.959,-4.959,-4.959,-4.959,-4.959,-4.959,-4.959,-4.959,-4.9163,-4.8912,-4.8736,-4.7933,-4.7405,-4.7043,-4.6702,-4.6451,-4.6326,-4.6451,-4.6527,-4.6527,-4.6527,-4.6527,-4.6502,-4.6351,-4.6301,-4.6301,-4.6301,-4.6301,-4.6125,-4.4995,-4.5397,-4.61,-4.497,-4.4618,-4.4618,-4.4618,-4.384,-4.2986,-4.2986,-4.2986,-4.2986,-4.2986,-4.266,-4.2489,-4.2766,-4.1681,-4.0802,-4.1025,-4.035,-3.9697,-3.9697,-3.9697,-3.9697,-3.9697,-3.9094,-3.8815,-3.9146,-3.8582,-3.8432,-3.9121,-3.921,-3.9299,-3.9563,-3.9563,-3.9956,-4.093,-4.0972,-4.1296,-4.2051,-4.2092,-4.2092,-4.2092,-4.2092,-4.2092,-4.2092,-4.2092,-4.2092,-4.2092,-4.2092,-4.2324,-5.0594,-5.18,-5.2528,-5.2854,-5.2528,-5.1699,-5.0167,-4.9138,-4.7908,-4.5824,-4.3765,-4.2434,-4.2685,-4.2785,-4.3589,-4.5924,-4.8485,-5.072,-5.2251,-5.3181,-5.3482,-5.2879,-5.2879,-5.2678,-5.2076,-5.1574,-5.1272,-5.1272,-5.0469,-4.9967,-4.9967,-4.9715,-4.959,-4.959,-4.959,-4.959,-4.959,-4.9364,-4.9238,-4.9213,-4.8661,-4.8259,-4.8033,-4.7405,-4.6943,-4.6753,-4.6451,-4.6301,-4.6301,-4.6301,-4.6301,-4.6301,-4.6301,-4.6301,-4.6301,-4.6301,-4.6301,-4.6301,-4.6301,-4.6301,-4.6125,-4.4995,-4.5221,-4.5748,-4.4593,-4.4443,-4.4568,-4.4342,-4.3815,-4.3288,-4.3037,-4.2986,-4.2986,-4.2986,-4.2791,-4.259,-4.2665,-4.1882,-4.1178,-4.1003,-4.0475,-3.9973,-3.9747,-3.9697,-3.9622,-3.9371,-3.8843,-3.8565,-3.8774,-3.8258,-3.8007,-3.828,-3.8346,-3.8378,-3.8567,-3.8585,-3.8988,-3.9956,-4.0,-4.0216,-4.0788,-4.083,-4.1001,-4.1451,-4.1451,-4.166,-4.2092,-4.2092,-4.2092,-4.2121,-4.2353,-4.2528,-5.19,-5.2578,-5.2929,-5.2929,-5.2452,-5.1272,-4.8435,-4.733,-4.5974,-4.2635,-4.1053,-4.0501,-4.1075,-4.0774,-4.1756,-4.5573,-4.7581,-4.9615,-5.2327,-5.3155,-5.3507,-5.3582,-5.3206,-5.2929,-5.2929,-5.2,-5.1373,-5.1297,-5.0745,-5.0393,-5.0318,-4.9866,-4.959,-4.959,-4.959,-4.959,-4.959,-4.9113,-4.8837,-4.8761,-4.8184,-4.7631,-4.7068,-4.7054,-4.6753,-4.6301,-4.6301,-4.6301,-4.6301,-4.6301,-4.6301,-4.6301,-4.6301,-4.6301,-4.6301,-4.6301,-4.6301,-4.6301,-4.6301,-4.6301,-4.6125,-4.507,-4.507,-4.5296,-4.4242,-4.4192,-4.4418,-4.394,-4.374,-4.3589,-4.3112,-4.2986,-4.2986,-4.2986,-4.2911,-4.2791,-4.2313,-4.2162,-4.1785,-4.0626,-4.0475,-4.035,-3.9798,-3.9697,-3.9521,-3.9095,-3.8492,-3.814,-3.8216,-3.804,-3.7739,-3.7337,-3.7236,-3.7369,-3.7701,-3.7664,-3.8024,-3.8944,-3.9033,-3.9077,-3.921,-3.921,-3.9607,-4.0389,-4.0432,-4.0887,-4.1897,-4.1897,-4.1968,-4.2121,-4.2644,-4.2644,-5.2477,-5.2854,-5.2929,-5.2929,-5.2176,-5.0695,-4.7908,-4.6502,-4.4819,-4.148,-3.9923,-3.9471,-4.0475,-4.0576,-4.163,-4.507,-4.7004,-4.8887,-5.1247,-5.2026,-5.2553,-5.3005,-5.298,-5.2929,-5.2929,-5.2352,-5.1774,-5.1322,-5.0745,-5.0218,-4.9766,-4.964,-4.959,-4.959,-4.959,-4.959,-4.959,-4.949,-4.9213,-4.8761,-4.8184,-4.7631,-4.7043,-4.6652,-4.6401,-4.6301,-4.6301,-4.6301,-4.6301,-4.6301,-4.6301,-4.6301,-4.6301,-4.6301,-4.6301,-4.6301,-4.6301,-4.6301,-4.6301,-4.6301,-4.62,-4.5547,-4.5397,-4.5372,-4.4694,-4.4242,-4.3915,-4.384,-4.3463,-4.3112,-4.3011,-4.2986,-4.2986,-4.2986,-4.269,-4.2313,-4.2238,-4.1806,-4.1153,-4.0049,-4.0199,-4.035,-3.9798,-3.9697,-3.9672,-3.9572,-3.9069,-3.8894,-3.9346,-3.8191,-3.7462,-3.7814,-3.7462,-3.7232,-3.7276,-3.6893,-3.7036,-3.7978,-3.8024,-3.8387,-3.9166,-3.921,-3.9299,-3.9431,-3.9431,-3.9913,-4.0859,-4.0859,-4.1296,-4.2092,-4.2208,-4.2469,-5.2703,-5.313,-5.3256,-5.3005,-5.1875,-4.9967,-4.6602,-4.4744,-4.2735,-3.9094,-3.7939,-3.7863,-3.8642,-3.927,-4.0475,-4.2936,-4.4468,-4.6326,-4.9138,-5.0017,-5.0896,-5.2327,-5.2754,-5.2929,-5.2929,-5.2176,-5.1574,-5.1297,-5.0469,-4.9866,-4.9615,-4.959,-4.959,-4.959,-4.959,-4.959,-4.959,-4.9012,-4.8586,-4.8309,-4.7481,-4.6954,-4.6702,-4.6426,-4.6301,-4.6301,-4.6301,-4.6301,-4.6301,-4.6301,-4.6301,-4.6301,-4.6301,-4.6301,-4.6301,-4.6301,-4.6301,-4.6301,-4.6301,-4.6301,-4.6276,-4.5999,-4.5723,-4.5321,-4.4468,-4.4217,-4.4116,-4.3539,-4.3388,-4.3338,-4.3062,-4.2986,-4.2986,-4.2986,-4.2615,-4.2288,-4.259,-4.1932,-4.1254,-4.1028,-4.0727,-4.0425,-4.0174,-3.9873,-3.9597,-3.932,-3.9044,-3.8868,-3.8818,-3.8366,-3.8165,-3.8442,-3.8216,-3.7939,-3.7638,-3.7362,-3.7404,-3.7859,-3.7906,-3.8097,-3.859,-3.859,-3.8798,-3.9309,-3.9282,-3.9814,-4.0763,-4.0763,-4.1279,-4.2252,-4.2638,-4.3041,-5.2578,-5.313,-5.3432,-5.303,-5.1674,-4.9389,-4.5497,-4.3338,-4.1106,-3.7209,-3.6405,-3.6606,-3.7236,-3.799,-3.912,-4.0974,-4.2057,-4.3815,-4.7255,-4.8335,-4.9615,-5.185,-5.2578,-5.2879,-5.2754,-5.1975,-5.1348,-5.1122,-5.0167,-4.959,-4.959,-4.959,-4.959,-4.959,-4.959,-4.959,-4.959,-4.8711,-4.8134,-4.7908,-4.7054,-4.6527,-4.6301,-4.6301,-4.6301,-4.6301,-4.6301,-4.6301,-4.6301,-4.6301,-4.6301,-4.6301,-4.6301,-4.6301,-4.6301,-4.6301,-4.6301,-4.6301,-4.6301,-4.6301,-4.6301,-4.6301,-4.5949,-4.5321,-4.4443,-4.4292,-4.4267,-4.3388,-4.3388,-4.3514,-4.3087,-4.2986,-4.2986,-4.2986,-4.2615,-4.2338,-4.2766,-4.2133,-4.158,-4.1756,-4.1304,-4.0752,-4.04,-4.0074,-3.9697,-3.912,-3.8994,-3.8743,-3.8417,-3.8668,-3.8919,-3.8919,-3.8919,-3.8693,-3.8241,-3.8065,-3.8015,-3.8015,-3.8015,-3.8015,-3.8015,-3.8015,-3.8383,-3.911,-3.911,-3.959,-4.0582,-4.0582,-4.1186,-4.2396,-4.2918,-4.3458,-5.1875,-5.2578,-5.298,-5.2929,-5.1674,-4.9389,-4.5497,-4.3338,-4.1106,-3.7209,-3.6405,-3.6732,-3.7739,-3.7613,-3.8216,-4.0849,-4.1376,-4.278,-4.6592,-4.8109,-4.9615,-5.185,-5.2578,-5.2729,-5.2226,-5.2076,-5.1599,-5.0569,-4.9941,-4.959,-4.959,-4.959,-4.959,-4.959,-4.959,-4.959,-4.959,-4.949,-4.8912,-4.7908,-4.7807,-4.7255,-4.6301,-4.6301,-4.6301,-4.6301,-4.6301,-4.6301,-4.6301,-4.6301,-4.6301,-4.6301,-4.6301,-4.6301,-4.6301,-4.6301,-4.6301,-4.6301,-4.6301,-4.6301,-4.6301,-4.6301,-4.5949,-4.5472,-4.5372,-4.4644,-4.3865,-4.374,-4.3388,-4.3037,-4.2986,-4.2986,-4.2986,-4.2986,-4.2615,-4.2213,-4.2263,-4.2213,-4.1861,-4.0852,-4.1379,-4.1584,-4.0023,-4.0149,-4.0249,-3.9697,-3.9195,-3.9044,-3.9496,-3.9145,-3.8919,-3.8919,-3.8919,-3.8894,-3.8844,-3.8316,-3.8015,-3.8015,-3.8015,-3.8015,-3.8015,-3.8015,-3.8064,-3.8138,-3.8138,-3.8602,-3.9516,-3.9516,-4.0509,-4.2396,-4.2452,-4.306,-5.1699,-5.2729,-5.3306,-5.3005,-5.1423,-4.8987,-4.5422,-4.3087,-4.0651,-3.7134,-3.6405,-3.6531,-3.6935,-3.6835,-3.7161,-3.8592,-3.8567,-3.9597,-4.3081,-4.4317,-4.616,-4.9665,-5.0594,-5.1222,-5.2026,-5.1498,-5.0896,-5.0444,-5.0218,-5.0243,-5.0594,-4.9967,-4.959,-4.959,-4.959,-4.959,-4.959,-4.9264,-4.8711,-4.7908,-4.7581,-4.7054,-4.6301,-4.6301,-4.6301,-4.6301,-4.6301,-4.6301,-4.6301,-4.6301,-4.6301,-4.6301,-4.6301,-4.6301,-4.6301,-4.6301,-4.6301,-4.6301,-4.6301,-4.6301,-4.6301,-4.6301,-4.6175,-4.5924,-4.5598,-4.5171,-4.4669,-4.3991,-4.3639,-4.3388,-4.3062,-4.2986,-4.2986,-4.2986,-4.2811,-4.2715,-4.2715,-4.2439,-4.2187,-4.2032,-4.1555,-4.1178,-4.1178,-4.0526,-4.0049,-4.0174,-3.9722,-3.932,-3.922,-3.9295,-3.9245,-3.8944,-3.917,-3.922,-3.8944,-3.8969,-3.9019,-3.9019,-3.9019,-3.9019,-3.9019,-3.9019,-3.9019,-3.9019,-3.9019,-3.9222,-3.9599,-3.9599,-4.0638,-4.2653,-4.2653,-4.3564,-5.1021,-5.2402,-5.3155,-5.2779,-5.087,-4.8259,-4.5095,-4.2559,-3.9998,-3.7033,-3.6405,-3.6405,-3.6405,-3.6405,-3.6531,-3.6885,-3.6885,-3.7839,-4.0701,-4.1856,-4.3796,-4.7355,-4.8435,-4.9389,-5.0745,-5.0444,-5.0167,-5.0167,-5.0318,-5.0519,-5.077,-5.0193,-4.9841,-4.9841,-4.9665,-4.959,-4.959,-4.9213,-4.8636,-4.7908,-4.7531,-4.7004,-4.6301,-4.6301,-4.6301,-4.6301,-4.6301,-4.6301,-4.6301,-4.6301,-4.6301,-4.6301,-4.6301,-4.6301,-4.6301,-4.6301,-4.6301,-4.6301,-4.6301,-4.6301,-4.6301,-4.6301,-4.6301,-4.6225,-4.5849,-4.5623,-4.5296,-4.4317,-4.3815,-4.3463,-4.3087,-4.2986,-4.2986,-4.2986,-4.2986,-4.2986,-4.2986,-4.2715,-4.2514,-4.274,-4.1932,-4.1329,-4.163,-4.0978,-4.0375,-4.03,-4.0074,-3.9747,-3.9195,-3.9446,-3.9471,-3.8969,-3.9371,-3.9546,-3.9145,-3.9471,-3.9697,-3.9697,-3.9697,-3.9697,-3.9697,-3.9697,-3.9697,-3.9697,-3.9697,-3.9697,-3.9697,-3.9697,-4.0618,-4.2355,-4.2355,-4.3464,-4.954,-5.1272,-5.2126,-5.2126,-5.0017,-4.7205,-4.4443,-4.1681,-3.9069,-3.6883,-3.6405,-3.6405,-3.6405,-3.6405,-3.6405,-3.6405,-3.7287,-3.8592,-4.0275,-4.1932,-4.3614,-4.5321,-4.6502,-4.7355,-4.7908,-4.8962,-4.9615,-4.9615,-5.0117,-5.0167,-4.964,-5.0117,-5.0419,-5.0419,-4.9891,-4.959,-4.959,-4.959,-4.9012,-4.7908,-4.7908,-4.733,-4.6301,-4.6301,-4.6301,-4.6301,-4.6301,-4.6301,-4.6301,-4.6301,-4.6301,-4.6301,-4.6301,-4.6301,-4.6301,-4.6301,-4.6301,-4.6301,-4.6301,-4.6301,-4.6301,-4.6301,-4.6301,-4.6301,-4.6301,-4.5924,-4.5372,-4.4769,-4.384,-4.2986,-4.2986,-4.2986,-4.2986,-4.2986,-4.2986,-4.2986,-4.2986,-4.2961,-4.2811,-4.2313,-4.264,-4.2434,-4.0802,-4.143,-4.1634,-3.9948,-4.0174,-4.03,-3.9747,-3.9697,-3.9471,-3.8969,-3.9371,-3.9697,-3.9697,-3.9697,-3.9697,-3.9697,-3.9697,-3.9697,-3.9697,-3.9697,-3.9697,-3.9697,-3.9697,-3.9697,-3.9697,-3.9697,-4.0211,-4.1219,-4.1219,-4.2328,-4.5522,-4.728,-4.8535,-4.7782,-4.6627,-4.5045,-4.266,-4.0852,-3.9069,-3.6857,-3.6405,-3.6405,-3.6405,-3.6405,-3.6656,-3.7362,-3.7789,-3.8467,-3.9772,-4.1379,-4.3092,-4.4694,-4.723,-4.8887,-4.9038,-4.9389,-4.9741,-5.0117,-5.0318,-5.0519,-5.0745,-5.0544,-5.0243,-4.9866,-4.969,-4.9414,-4.9038,-4.9414,-4.8837,-4.738,-4.7732,-4.7355,-4.6301,-4.6301,-4.6301,-4.6301,-4.6301,-4.6301,-4.6301,-4.6301,-4.6301,-4.6301,-4.6301,-4.6301,-4.6301,-4.6301,-4.6301,-4.6301,-4.6301,-4.6301,-4.6301,-4.6301,-4.6301,-4.6301,-4.6301,-4.6175,-4.5849,-4.4895,-4.384,-4.2986,-4.2986,-4.2986,-4.2986,-4.2986,-4.2986,-4.2986,-4.2986,-4.2986,-4.2936,-4.2816,-4.2615,-4.2414,-4.2233,-4.1856,-4.143,-4.0902,-4.0651,-4.0325,-3.9772,-3.9697,-3.9622,-3.9446,-3.9597,-3.9546,-3.917,-3.9471,-3.9697,-3.9697,-3.9697,-3.9697,-3.9697,-3.9697,-3.9697,-3.9697,-3.9697,-3.9697,-3.9697,-3.9697,-4.0211,-4.1219,-4.1963,-4.3006,-4.3313,-4.497,-4.6024,-4.5321,-4.4418,-4.3162,-4.1178,-3.9697,-3.8291,-3.6732,-3.6405,-3.6405,-3.6405,-3.6405,-3.6631,-3.7287,-3.7739,-3.8241,-3.8969,-4.0676,-4.2534,-4.4392,-4.6828,-4.851,-4.8912,-4.9339,-4.9741,-5.0067,-5.0293,-5.0494,-5.0645,-5.0293,-4.9941,-4.9615,-4.9389,-4.9113,-4.8761,-4.8887,-4.8335,-4.7068,-4.7456,-4.7154,-4.6301,-4.6301,-4.6301,-4.6301,-4.6301,-4.6301,0.0,-4.6301,-4.6301,-4.6301,-4.6301,-4.6301,-4.6301,-4.6301,-4.6301,-4.6301,-4.6301,-4.6301,-4.6301,-4.6301,-4.6301,-4.6276,-4.6075,-4.5849,-4.5497,-4.4568,-4.3664,-4.2986,-4.2986,-4.2986,-4.2986,-4.2986,-4.2986,-4.2986,-4.2986,-4.2986,-4.2986,-4.2986,-4.2766,-4.2564,-4.269,-4.2283,-4.1806,-4.1351,-4.1,-4.0701,-4.035,-4.0124,-3.9998,-3.9998,-3.9998,-3.9772,-3.922,-3.9496,-3.9697,-3.9697,-3.9697,-3.9697,-3.9697,-3.9697,-3.9697,-3.9697,-3.9697,-3.9697,-3.9697,-3.9697,-4.0032,-4.0642,-4.1716,-4.2523,0.0,-4.3765,-4.4192,-4.4116,-4.2961,-4.1509,-3.9873,-3.8316,0.0,-3.6531,-3.6405,-3.6405,-3.6455,-3.643,-3.6455,-3.6556,-3.7387,-3.809,-3.8115,-4.0074,-4.2278,-4.4593,-4.5824,-4.6878,-4.7933,-4.8987,-4.959,-4.959,-5.0067,-5.0117,-4.9565,-4.954,-4.9515,-4.9464,-4.8937,-4.8686,-4.8711,-4.8184,-4.7631,-4.7018,-4.7043,-4.6853,-4.6301,-4.6301,-4.6301,-4.6301,-4.6301,-4.6301,-4.6301,-4.6301,-4.6301,-4.6301,-4.6301,-4.6301,-4.6301,-4.6301,-4.6301,-4.6301,-4.6301,-4.6301,-4.6301,-4.6301,-4.6276,-4.615,-4.5598,-4.5045,-4.4518,-4.3966,-4.3413,-4.2986,-4.2986,-4.2986,-4.2986,-4.2986,-4.2986,-4.2986,-4.2986,-4.2986,-4.2986,-4.2986,-4.2986,-4.2811,-4.2363,-4.269,-4.261,-4.1501,-4.1351,-4.1326,-4.13,-4.0902,-4.0576,-4.0576,-4.0576,-4.0375,-3.9848,-3.9747,-3.9697,-3.9697,-3.9697,-3.9697,-3.9697,-3.9697,-3.9697,-3.9697,-3.9697,-3.9697,-3.9697,-3.9697,-3.9697,-3.9749,-4.0694,-4.1198,-3.8366,0.0,-4.0023,-3.9145,-3.8944,-3.8768,0.0,-3.7462,-3.7036,-3.6531,-3.6405,-3.6531,-3.6958,-3.6707,-3.6832,-3.8114,-3.8492,-3.8818,-3.9245,-4.1555,-4.4192,-4.6828,-4.7757,-4.846,-4.9138,-4.9439,-4.959,-4.959,-4.9715,-4.954,-4.8987,-4.8962,-4.8761,-4.8309,-4.7782,-4.7707,-4.8109,-4.7983,-4.7431,-4.6502,-4.6928,-4.6853,-4.6301,-4.6301,-4.6301,-4.6301,-4.6301,-4.6301,-4.6301,-4.6301,-4.6301,-4.6301,-4.6301,-4.6301,-4.6301,-4.6301,-4.6301,-4.6301,-4.6301,-4.6301,-4.6301,-4.6301,-4.6024,-4.5573,-4.4995,-4.4719,-4.4518,-4.3966,-4.3413,-4.2986,-4.2986,-4.2986,-4.2986,-4.2986,-4.2986,-4.2986,-4.2986,-4.2986,-4.2986,-4.2986,-4.2986,-4.2936,-4.2811,-4.2886,-4.2735,-4.2057,-4.1957,-4.1806,-4.1351,-4.1175,-4.11,-4.11,-4.11,-4.105,-4.0899,-4.0174,-3.9697,-3.9697,-3.9697,-3.9697,-3.9697,-3.9697,-3.9697,-3.9697,-3.9697,-3.9697,-3.9697,-3.9697,-3.9697,-3.9697,-4.0359,-4.1106,-3.6782,-3.7613,-3.8341,-3.7713,-3.7789,-3.7864,-3.7312,-3.6985,-3.6659,-3.6107,-3.6182,-3.643,-3.6433,-3.6609,-3.7036,-3.7939,-3.8592,-3.9472,-4.0978,-4.2911,-4.5095,-4.7606,-4.841,-4.8987,-4.954,-4.959,-4.949,-4.9238,-4.9213,-4.8962,-4.841,-4.8159,-4.7983,-4.7908,-4.7154,-4.7004,-4.7556,-4.7305,-4.6878,-4.6301,-4.6602,-4.6602,-4.6301,-4.6301,-4.6301,-4.6301,-4.6301,-4.6301,-4.6301,-4.6301,-4.6301,-4.6301,-4.6301,-4.6301,-4.6301,-4.6301,-4.6301,-4.6301,-4.6301,-4.6301,-4.6301,-4.6301,-4.5949,-4.5372,-4.4794,-4.4443,-4.4141,-4.3589,-4.3212,-4.2986,-4.2986,-4.2986,-4.2986,-4.2986,-4.2986,-4.2986,-4.2986,-4.2986,-4.2986,-4.2986,-4.2986,-4.2986,-4.2986,-4.2986,-4.2886,-4.264,-4.2363,-4.2187,-4.2082,-4.1882,-4.1706,-4.1706,-4.1706,-4.1605,-4.13,-4.0551,-4.0174,-4.0425,-4.0199,-4.0074,-4.0074,-3.9823,-3.9697,-3.9697,-3.9948,-4.0074,-4.0074,-4.0325,-4.045,-4.045,-4.0752,-4.1195,-3.6505,-3.7287,-3.809,-3.7814,-3.7814,-3.7739,-3.7186,-3.6757,-3.6279,-3.5755,-3.6031,-3.6257,-3.5834,-3.6558,-3.7262,-3.7538,-3.8642,-4.0327,-4.2861,-4.4192,-4.5598,-4.7556,-4.836,-4.8912,-4.9314,-4.9339,-4.9138,-4.8686,-4.8636,-4.8385,-4.7832,-4.738,-4.7305,-4.7657,-4.6778,-4.6527,-4.6943,-4.6552,-4.6301,-4.6301,-4.6301,-4.6301,-4.6301,-4.6301,-4.6301,-4.6301,-4.6301,-4.6301,-4.6301,-4.6301,-4.6301,-4.6301,-4.6301,-4.6301,-4.6301,-4.6301,-4.6301,-4.6301,-4.6301,-4.6301,-4.6301,-4.6301,-4.5874,-4.5271,-4.4769,-4.4192,-4.3589,-4.3112,-4.2986,-4.2986,-4.2986,-4.2986,-4.2986,-4.2986,-4.2986,-4.2986,-4.2986,-4.2986,-4.2986,-4.2986,-4.2986,-4.2986,-4.2986,-4.2986,-4.2986,-4.2986,-4.264,-4.2514,-4.2911,-4.2615,-4.2338,-4.2338,-4.2338,-4.2108,-4.163,-4.1153,-4.1103,-4.1501,-4.0827,-4.0425,-4.0526,-4.0149,-3.9948,-3.9948,-4.04,-4.0651,-4.0651,-4.105,-4.1275,-4.1275,-4.1376,-4.1455,-3.6935,-3.7889,-3.8391,-3.7008,-3.7008,-3.7161,-3.6656,-3.6455,-3.638,-3.6304,-3.6355,-3.6531,-3.686,-3.7061,-3.7638,-3.9069,-4.0679,-4.2338,-4.4116,-4.5347,-4.6351,-4.7154,-4.8159,-4.8611,-4.8209,-4.8159,-4.8134,-4.8033,-4.8033,-4.7807,-4.728,-4.7118,-4.6954,-4.6577,-4.6401,-4.6351,-4.6426,-4.6351,-4.6301,-4.6301,-4.6301,-4.6301,-4.6301,-4.6301,-4.6301,-4.6301,-4.6301,-4.6301,-4.6301,-4.6301,-4.6301,-4.6301,-4.6301,-4.6301,-4.6301,-4.6301,-4.6301,-4.6301,-4.6301,-4.6301,-4.6301,-4.6301,-4.5598,-4.4744,-4.4644,-4.3915,-4.3087,-4.3011,-4.2986,-4.2986,-4.2986,-4.2986,-4.2986,-4.2986,-4.2986,-4.2986,-4.2986,-4.2986,-4.2986,-4.2986,-4.2986,-4.2986,-4.2986,-4.2986,-4.2986,-4.2986,-4.2911,-4.2942,-4.2961,-4.2911,-4.2861,-4.2861,-4.2861,-4.2811,-4.2735,-4.2635,-4.2635,-4.271,-4.0902,-4.0023,-4.0501,-4.0824,-4.1025,-4.1025,-4.1125,-4.1175,-4.1175,-4.125,-4.1275,-4.13,-4.1806,-4.2087,-3.6584,-3.7159,-3.7511,-3.7287,-3.7889,-3.8391,-3.7888,-3.7511,-3.7161,-3.686,-3.7036,-3.7236,-3.7186,-3.8165,-3.9521,-4.1204,-4.2359,-4.3514,-4.4895,-4.5799,-4.6627,-4.7456,-4.7983,-4.8209,-4.7933,-4.7908,-4.7782,-4.7506,-4.7481,-4.7255,-4.6728,-4.6702,-4.6577,-4.6326,-4.6301,-4.6301,-4.6301,-4.6301,-4.6301,-4.6301,-4.6301,-4.6301,-4.6301,-4.6301,-4.6301,-4.6301,-4.6301,-4.6301,-4.6301,-4.6301,-4.6301,-4.6301,-4.6301,-4.6301,-4.6301,-4.6301,-4.6301,-4.6301,-4.6301,-4.6301,-4.6301,-4.6301,-4.5748,-4.5095,-4.5095,-4.4317,-4.3413,-4.3413,-4.3212,-4.2986,-4.2986,-4.2986,-4.2986,-4.2986,-4.2986,-4.2986,-4.2986,-4.2986,-4.2986,-4.2986,-4.2986,-4.2986,-4.2986,-4.2986,-4.2986,-4.2986,-4.2986,-4.2986,-4.2986,-4.2986,-4.2986,-4.2986,-4.2986,-4.2986,-4.2986,-4.271,-4.259,-4.259,-4.1304,-4.0576,-4.0526,-4.0752,-4.0902,-4.0902,-4.148,-4.1781,-4.1781,-4.2082,-4.2233,-4.2233,-4.2484,-4.2665,-3.6254,-3.6505,-3.6784,-3.7764,-3.8668,-3.9295,-3.927,-3.8818,-3.8341,-3.8191,-3.8291,-3.8266,-3.7839,-3.9496,-4.1404,-4.2911,-4.3865,-4.4744,-4.5723,-4.6225,-4.6753,-4.7456,-4.7657,-4.7682,-4.7556,-4.7531,-4.7355,-4.6979,-4.6892,-4.6753,-4.6326,-4.6301,-4.6301,-4.6301,-4.6301,-4.6301,-4.6301,-4.6301,-4.6301,-4.6301,-4.6301,-4.6301,-4.6301,-4.6301,-4.6301,-4.6301,-4.6301,-4.6301,-4.6301,-4.6301,-4.6301,-4.6301,-4.6301,-4.6301,-4.6301,-4.6301,-4.6301,-4.6301,-4.6301,-4.6301,-4.6301,-4.6301,-4.5949,-4.5497,-4.5497,-4.4794,-4.3991,-4.3991,-4.3689,-4.3313,-4.3037,-4.2986,-4.2986,-4.2986,-4.2986,-4.2986,-4.2986,-4.2986,-4.2986,-4.2986,-4.2986,-4.2986,-4.2986,-4.2986,-4.2986,-4.2986,-4.2986,-4.2986,-4.2986,-4.2986,-4.2986,-4.2986,-4.2986,-4.2986,-4.2986,-4.264,-4.2333,-4.2278,-4.1777,-4.1354,-4.0927,-4.1028,-4.1103,-4.1103,-4.1907,-4.2414,-4.2414,-4.2816,-4.2986,-4.2986,-4.2986,-4.2986,-3.6254,-3.6782,-3.7262,-3.7864,-3.8065,-3.8517,-4.0049,-3.9973,-3.9848,-4.0774,-4.0249,-3.9572,-3.9521,-4.0902,-4.2464,-4.3564,-4.507,-4.6351,-4.6928,-4.6993,-4.6903,-4.6476,-4.6878,-4.6979,-4.6476,-4.6426,-4.6401,-4.6376,-4.6376,-4.6351,-4.6301,-4.6301,-4.6301,-4.6301,-4.6301,-4.6301,-4.6301,-4.6301,-4.6301,-4.6301,-4.6301,-4.6301,-4.6301,-4.6301,-4.6301,-4.6301,-4.6301,-4.6301,-4.6301,-4.6301,-4.6301,-4.6301,-4.6301,-4.6301,-4.6301,-4.6301,-4.6301,-4.6301,-4.6301,-4.6301,-4.6301,-4.6301,-4.5949,-4.5497,-4.5497,-4.5045,-4.4568,-4.4568,-4.4543,-4.4267,-4.3237,-4.2986,-4.2986,-4.2986,-4.2986,-4.2986,-4.2986,-4.2986,-4.2986,-4.2986,-4.2986,-4.2986,-4.2986,-4.2986,-4.2986,-4.2986,-4.2986,-4.2986,-4.2986,-4.2986,-4.2986,-4.2986,-4.2986,-4.2986,-4.2986,-4.2936,-4.2799,-4.2519,-4.2273,-4.2137,-4.2087,-4.259,-4.2811,-4.2811,-4.2886,-4.2911,-4.2911,-4.2961,-4.2986,-4.2986,-4.2986,-4.2986,-3.5705,-3.6006,-3.6458,-3.7688,-3.8542,-3.9396,-4.0674,-4.1128,-4.153,-4.2635,-4.2534,-4.2133,-4.1806,-4.2258,-4.3137,-4.4618,-4.5949,-4.7004,-4.7531,-4.733,-4.6993,-4.6853,-4.6702,-4.6552,-4.6326,-4.6301,-4.6301,-4.6301,-4.6301,-4.6301,-4.6301,-4.6301,-4.6301,-4.6301,-4.6301,-4.6301,-4.6301,-4.6301,-4.6301,-4.6301,-4.6301,-4.6301,-4.6301,-4.6301,-4.6301,-4.6301,-4.6301,-4.6301,-4.6301,-4.6301,-4.6301,-4.6301,-4.6301,-4.6301,-4.6301,-4.6301,-4.6301,-4.6301,-4.6301,-4.6301,-4.6301,-4.6301,-4.6175,-4.5999,-4.5999,-4.5598,-4.5171,-4.5171,-4.4895,-4.4518,-4.4116,-4.3991,-4.3915,-4.3564,-4.3489,-4.3388,-4.3062,-4.2986,-4.2986,-4.2986,-4.2986,-4.2986,-4.2986,-4.2986,-4.2986,-4.2986,-4.2986,-4.2986,-4.2986,-4.2986,-4.2986,-4.2986,-4.2986,-4.2986,-4.2986,-4.2986,-4.2986,-4.2793,-4.2238,-4.1883,-4.1883,-4.2083,-4.2293,-4.2514,-4.2811,-4.2986,-4.2986,-4.2986,-4.2986,-4.2986,-4.2986,-4.2986,-3.5182,-3.5357,-3.5859,-3.7387,-3.8592,-3.9873,-4.148,-4.2409,-4.3313,-4.4593,-4.4443,-4.389,-4.3338,-4.3237,-4.379,-4.5472,-4.6527,-4.738,-4.8083,-4.7707,-4.7305,-4.7093,-4.6954,-4.6677,-4.6351,-4.6476,-4.6502,-4.6326,-4.6301,-4.6301,-4.6301,-4.6301,-4.6301,-4.6301,-4.6301,-4.6301,-4.6301,-4.6301,-4.6301,-4.6301,-4.6125,-4.615,-4.6301,-4.6301,-4.6301,-4.6301,-4.6301,-4.6301,-4.6301,-4.6301,-4.6301,-4.6301,-4.6301,-4.6301,-4.6301,-4.6301,-4.6301,-4.6301,-4.6301,-4.6301,-4.6301,-4.6301,-4.6301,-4.6276,-4.61,-4.5773,-4.5497,-4.5497,-4.5196,-4.4945,-4.5121,-4.4895,-4.4493,-4.394,-4.379,-4.3639,-4.3087,-4.2986,-4.2986,-4.2986,-4.2986,-4.2986,-4.2986,-4.2986,-4.2986,-4.2986,-4.2986,-4.2986,-4.2986,-4.2986,-4.2986,-4.2986,-4.2986,-4.2986,-4.2986,-4.2986,-4.2986,-4.2874,-4.219,-4.1855,-4.1966,-4.1966,-4.2022,-4.2157,-4.2507,-4.2762,-4.2874,-4.2874,-4.293,-4.2986,-4.2986,-4.2986,-3.4831,-3.5082,-3.5759,-3.691,-3.804,-3.9673,-4.2359,-4.384,-4.5121,-4.6803,-4.5824,-4.4468,-4.3915,-4.3815,-4.4367,-4.605,-4.6778,-4.7531,-4.8611,-4.8284,-4.7732,-4.7143,-4.7581,-4.7481,-4.6426,-4.6803,-4.6903,-4.6351,-4.6326,-4.6326,-4.6301,-4.6301,-4.6301,-4.6301,-4.6301,-4.6301,-4.6301,-4.6301,-4.6301,-4.6301,-4.5748,-4.5773,-4.6301,-4.6301,-4.6301,-4.6301,-4.6301,-4.6301,-4.6301,-4.6301,-4.6301,-4.6301,-4.6301,-4.6301,-4.6301,-4.6301,-4.6301,-4.6301,-4.6301,-4.6301,-4.6301,-4.6301,-4.6301,-4.62,-4.5648,-4.5497,-4.5472,-4.5472,-4.5472,-4.5598,-4.615,-4.5472,-4.4493,-4.394,-4.3815,-4.3664,-4.3112,-4.2986,-4.2986,-4.2986,-4.2986,-4.2986,-4.2986,-4.2986,-4.2986,-4.2986,-4.2986,-4.2986,-4.2986,-4.2986,-4.2986,-4.2986,-4.2986,-4.2986,-4.2986,-4.2986,-4.2874,-4.2538,-4.2256,-4.2224,-4.2457,-4.2457,-4.2369,-4.211,-4.211,-4.2199,-4.2513,-4.2513,-4.2706,-4.2986,-4.2986,-4.2986,-3.4299,-3.5102,-3.6282,-3.701,-3.9246,-4.1659,-4.3187,-4.4418,-4.5824,-4.7857,-4.728,-4.61,-4.5171,-4.5296,-4.5723,-4.6225,-4.7431,-4.841,-4.8736,-4.8636,-4.8309,-4.7732,-4.7481,-4.738,-4.7431,-4.7255,-4.6993,-4.6842,-4.6878,-4.6728,-4.6326,-4.6301,-4.6301,-4.6301,-4.6301,-4.6301,-4.6301,-4.6301,-4.6125,-4.5723,-4.5573,-4.5773,-4.6276,-4.5497,-4.5347,-4.5698,-4.5296,-4.5347,-4.5773,-4.615,-4.6301,-4.6301,-4.6301,-4.6301,-4.6301,-4.6301,-4.6301,-4.6301,-4.6301,-4.6301,-4.6301,-4.6301,-4.605,-4.5698,-4.5547,-4.5196,-4.4895,-4.4895,-4.4895,-4.502,-4.5573,-4.5472,-4.5196,-4.502,-4.4669,-4.4242,-4.3689,-4.3263,-4.2986,-4.2986,-4.2986,-4.2986,-4.2986,-4.2986,-4.2986,-4.2986,-4.2986,-4.2986,-4.2986,-4.2986,-4.2986,-4.2986,-4.3313,-4.3564,-4.3564,-4.3564,-4.3507,-4.345,-4.2962,-4.2594,-4.2199,-4.2004,-4.1948,-4.211,-4.211,-4.2167,-4.2199,-4.2199,-4.2369,-4.265,-4.3105,-4.3394,-3.4926,-3.5931,-3.7262,-3.8266,-4.035,-4.274,-4.4669,-4.5824,-4.6954,-4.8736,-4.8209,-4.7305,-4.6878,-4.6702,-4.6778,-4.723,-4.8134,-4.8837,-4.9063,-4.9113,-4.8887,-4.8309,-4.8159,-4.8058,-4.7933,-4.7832,-4.7606,-4.7093,-4.7068,-4.6803,-4.6024,-4.62,-4.62,-4.5999,-4.62,-4.6301,-4.6301,-4.61,-4.5924,-4.5799,-4.5372,-4.5447,-4.5949,-4.5045,-4.4819,-4.5121,-4.4769,-4.4945,-4.5522,-4.5849,-4.6125,-4.6301,-4.6301,-4.6301,-4.6301,-4.6301,-4.6301,-4.6301,-4.6301,-4.6175,-4.5974,-4.5974,-4.5598,-4.5095,-4.4895,-4.4568,-4.4292,-4.4292,-4.4292,-4.441,-4.5094,-4.5438,-4.5497,-4.5497,-4.5045,-4.4468,-4.3915,-4.3363,-4.2986,-4.2986,-4.2986,-4.3037,-4.3263,-4.3112,-4.3062,-4.3263,-4.3112,-4.2986,-4.2986,-4.2986,-4.2986,-4.2986,-4.3263,-4.3463,-4.3463,-4.3463,-4.3564,-4.379,-4.3175,-4.275,-4.2633,-4.2095,-4.1802,-4.1769,-4.1769,-4.1802,-4.1915,-4.2136,-4.2462,-4.2885,-4.3317,-4.3681,-3.6182,-3.7186,-3.8492,-4.0174,-4.153,-4.3288,-4.6366,-4.7444,-4.8159,-4.9339,-4.8786,-4.8121,-4.8611,-4.787,-4.7457,-4.8397,-4.8648,-4.8937,-4.9325,-4.949,-4.9314,-4.8761,-4.9138,-4.9038,-4.8008,-4.8385,-4.8259,-4.7143,-4.7068,-4.6677,-4.5623,-4.605,-4.6075,-4.5573,-4.605,-4.6301,-4.6301,-4.5824,-4.5799,-4.6225,-4.5146,-4.4869,-4.5321,-4.4794,-4.4518,-4.4468,-4.4518,-4.4844,-4.5347,-4.5447,-4.5773,-4.6225,-4.6225,-4.6225,-4.6225,-4.6175,-4.615,-4.615,-4.615,-4.5824,-4.5422,-4.5422,-4.502,-4.4468,-4.394,-4.3765,-4.374,-4.374,-4.3765,-4.3926,-4.4709,-4.5151,-4.5438,-4.5488,-4.5062,-4.4568,-4.4066,-4.3489,-4.3062,-4.3112,-4.3087,-4.3212,-4.379,-4.3463,-4.3288,-4.379,-4.3413,-4.3062,-4.3062,-4.3011,-4.2986,-4.2986,-4.3011,-4.3062,-4.3062,-4.3062,-4.3263,-4.3765,-4.3006,-4.2761,-4.3283,-4.2527,-4.185,-4.1359,-4.1302,-4.1441,-4.1752,-4.2238,-4.2772,-4.3399,-4.3595,-4.39,-3.5533,-3.7186,-3.9094,-4.0752,-4.2986,-4.5137,-4.6412,-4.6959,-4.7732,-4.9289,-4.9196,-4.8604,-4.7882,-4.7717,-4.7428,-4.6785,-4.7681,-4.828,-4.7956,-4.8559,-4.8736,-4.8159,-4.8209,-4.8184,-4.7933,-4.8033,-4.7832,-4.7118,-4.7068,-4.6853,-4.6175,-4.625,-4.625,-4.6125,-4.625,-4.6301,-4.6301,-4.62,-4.5974,-4.5648,-4.4945,-4.4468,-4.4166,-4.4041,-4.374,-4.3363,-4.379,-4.4041,-4.4242,-4.5121,-4.5547,-4.5673,-4.5673,-4.5673,-4.5598,-4.5146,-4.4995,-4.4995,-4.4995,-4.492,-4.4819,-4.4819,-4.4443,-4.3966,-4.384,-4.3489,-4.3162,-4.3162,-4.3294,-4.3564,-4.4178,-4.4556,-4.4882,-4.5544,-4.552,-4.5271,-4.5146,-4.4342,-4.374,-4.4192,-4.3915,-4.379,-4.4342,-4.4342,-4.4317,-4.4418,-4.3966,-4.3614,-4.3614,-4.3237,-4.2986,-4.2986,-4.3363,-4.3614,-4.3614,-4.3614,-4.3689,-4.379,-4.3231,-4.2812,-4.2712,-4.233,-4.225,-4.2552,-4.2296,-4.2375,-4.2846,-4.2756,-4.2888,-4.3267,-4.372,-4.4143,-3.5558,-3.7387,-3.9521,-4.2233,-4.4418,-4.604,-4.6684,-4.6945,-4.7456,-4.856,-4.8532,-4.8167,-4.7595,-4.7467,-4.7213,-4.6647,-4.7167,-4.7566,-4.7293,-4.7807,-4.8071,-4.7771,-4.7783,-4.7908,-4.7908,-4.7908,-4.7682,-4.7118,-4.7068,-4.6778,-4.5949,-4.6175,-4.6175,-4.5924,-4.6175,-4.6301,-4.6301,-4.605,-4.5899,-4.5874,-4.5296,-4.4895,-4.4568,-4.3765,-4.3237,-4.3011,-4.3564,-4.379,-4.3865,-4.4719,-4.5246,-4.5472,-4.5171,-4.5246,-4.5422,-4.4844,-4.4618,-4.4618,-4.4618,-4.4443,-4.4242,-4.4242,-4.3865,-4.3413,-4.3413,-4.3212,-4.3037,-4.3288,-4.3337,-4.3474,-4.4175,-4.4417,-4.4667,-4.5208,-4.5275,-4.5295,-4.5497,-4.4819,-4.4292,-4.4568,-4.4392,-4.431,-4.4711,-4.4786,-4.4769,-4.4611,-4.4367,-4.4192,-4.4192,-4.394,-4.3765,-4.3765,-4.4016,-4.4192,-4.4192,-4.4192,-4.4317,-4.4593,-4.384,-4.3432,-4.3512,-4.2868,-4.2641,-4.2897,-4.2723,-4.291,-4.3423,-4.3573,-4.372,-4.3863,-4.422,-4.4464,-3.5529,-3.7688,-4.0149,-4.374,-4.5397,-4.6326,-4.6731,-4.6918,-4.7043,-4.7469,-4.7496,-4.7408,-4.7308,-4.697,-4.6693,-4.6532,-4.6669,-4.6756,-4.6595,-4.6983,-4.7259,-4.7222,-4.7483,-4.767,-4.7631,-4.7732,-4.7556,-4.7029,-4.6943,-4.6602,-4.5673,-4.6075,-4.61,-4.5648,-4.6075,-4.6301,-4.6301,-4.5849,-4.5849,-4.6301,-4.5648,-4.5246,-4.502,-4.3714,-4.3162,-4.3288,-4.374,-4.394,-4.3991,-4.4443,-4.4895,-4.5271,-4.4694,-4.4769,-4.5121,-4.4543,-4.4342,-4.4342,-4.4342,-4.4041,-4.3664,-4.3664,-4.3338,-4.2986,-4.2986,-4.2986,-4.3087,-4.3582,-4.3522,-4.3556,-4.4249,-4.4413,-4.4524,-4.4743,-4.4865,-4.5087,-4.5445,-4.5112,-4.4736,-4.4836,-4.4861,-4.4836,-4.5012,-4.5027,-4.4997,-4.4736,-4.4644,-4.4594,-4.4594,-4.4519,-4.4444,-4.4502,-4.4502,-4.456,-4.4618,-4.4618,-4.4819,-4.5296,-4.4468,-4.4141,-4.4593,-4.374,-4.3262,-4.3193,-4.3102,-4.3398,-4.4072,-4.4396,-4.4558,-4.4582,-4.4744,-4.4779,-3.4474,-3.7865,-4.1526,-4.4016,-4.5121,-4.5689,-4.5914,-4.6184,-4.6305,-4.6138,-4.6786,-4.7158,-4.6414,-4.6029,-4.5532,-4.476,-4.5362,-4.5695,-4.517,-4.5797,-4.6229,-4.603,-4.6439,-4.6686,-4.6516,-4.6954,-4.7004,-4.6451,-4.6426,-4.6351,-4.62,-4.6276,-4.6276,-4.62,-4.6276,-4.6301,-4.6301,-4.6225,-4.6225,-4.6301,-4.5246,-4.4242,-4.3313,-4.3564,-4.394,-4.4418,-4.4493,-4.4518,-4.4518,-4.4593,-4.4669,-4.4694,-4.4141,-4.3966,-4.3966,-4.3388,-4.3187,-4.3187,-4.3187,-4.3162,-4.3087,-4.3087,-4.3037,-4.2986,-4.2986,-4.2986,-4.3031,-4.3298,-4.3507,-4.3698,-4.4012,-4.4196,-4.4374,-4.4693,-4.4792,-4.4988,-4.5657,-4.5331,-4.5166,-4.594,-4.5835,-4.5558,-4.5329,-4.5293,-4.5269,-4.5231,-4.4836,-4.4541,-4.4541,-4.4122,-4.3943,-4.4236,-4.4236,-4.4353,-4.456,-4.4618,-4.4644,-4.4744,-4.4593,-4.4543,-4.4618,-4.4493,-4.4385,-4.4402,-4.3844,-4.422,-4.5533,-4.5,-4.478,-4.478,-4.4816,-4.4656,-3.4876,-3.799,-4.0953,-4.3162,-4.4116,-4.4711,-4.547,-4.5729,-4.5889,-4.607,-4.6459,-4.6586,-4.5761,-4.5366,-4.4984,-4.4371,-4.4663,-4.4798,-4.4556,-4.5035,-4.533,-4.5233,-4.5772,-4.6152,-4.6024,-4.6406,-4.6577,-4.6326,-4.6301,-4.6301,-4.6301,-4.6301,-4.6301,-4.6301,-4.6301,-4.6301,-4.6301,-4.6301,-4.615,-4.5824,-4.4694,-4.4066,-4.389,-4.384,-4.394,-4.4192,-4.4819,-4.492,-4.4644,-4.497,-4.5095,-4.502,-4.4141,-4.3991,-4.4166,-4.3288,-4.2986,-4.2986,-4.2986,-4.2986,-4.2986,-4.2986,-4.2986,-4.2986,-4.2986,-4.3075,-4.328,-4.3656,-4.385,-4.3939,-4.4354,-4.4363,-4.4347,-4.447,-4.4532,-4.4656,-4.5147,-4.5316,-4.5519,-4.5949,-4.5757,-4.5453,-4.5331,-4.5147,-4.5147,-4.5514,-4.5255,-4.5047,-4.5228,-4.4886,-4.4618,-4.4798,-4.4798,-4.4918,-4.5276,-4.5276,-4.5335,-4.5573,-4.5271,-4.5095,-4.5095,-4.4794,-4.4769,-4.5095,-4.4502,-4.4693,-4.561,-4.537,-4.5278,-4.5392,-4.5392,-4.5086,-3.4444,-3.6759,-3.8843,-4.148,-4.266,-4.3514,-4.4769,-4.5171,-4.5372,-4.5799,-4.5999,-4.592,-4.5316,-4.5049,-4.484,-4.447,-4.4347,-4.4285,-4.4285,-4.4532,-4.4717,-4.4779,-4.527,-4.5635,-4.5757,-4.5999,-4.618,-4.6301,-4.6301,-4.6301,-4.6301,-4.6301,-4.6301,-4.6301,-4.6301,-4.6301,-4.6301,-4.6175,-4.5748,-4.5045,-4.4342,-4.4141,-4.4418,-4.4292,-4.4141,-4.4066,-4.4895,-4.502,-4.4644,-4.4945,-4.507,-4.497,-4.3966,-4.384,-4.4116,-4.3288,-4.2986,-4.2986,-4.2986,-4.2986,-4.2986,-4.2986,-4.2986,-4.2986,-4.293,-4.308,-4.3399,-4.3795,-4.3983,-4.4099,-4.4572,-4.447,-4.4285,-4.4285,-4.4285,-4.4409,-4.4717,-4.527,-4.5635,-4.5574,-4.5331,-4.5147,-4.5086,-4.484,-4.484,-4.5331,-4.5208,-4.5147,-4.5392,-4.5208,-4.5086,-4.5147,-4.5147,-4.5331,-4.5635,-4.5696,-4.5757,-4.5999,-4.5745,-4.552,-4.546,-4.5094,-4.5078,-4.5354,-4.4953,-4.4987,-4.5497,-4.5563,-4.5585,-4.5619,-4.5768,-4.5453,-3.1978,-3.3294,-3.5102,-3.8919,-4.0676,-4.1827,-4.3514,-4.4292,-4.4669,-4.4694,-4.5146,-4.5404,-4.5107,-4.5168,-4.5147,-4.484,-4.4532,-4.4285,-4.4285,-4.4347,-4.447,-4.4779,-4.484,-4.5086,-4.5757,-4.5817,-4.5939,-4.624,-4.6301,-4.6301,-4.6301,-4.6301,-4.6301,-4.6301,-4.6301,-4.6301,-4.6301,-4.5799,-4.497,-4.389,-4.4367,-4.4317,-4.389,-4.492,-4.5095,-4.4593,-4.4644,-4.4644,-4.4593,-4.4091,-4.389,-4.384,-4.3237,-4.3037,-4.3062,-4.3011,-4.2986,-4.2986,-4.2986,-4.2986,-4.2986,-4.2986,-4.2986,-4.293,-4.2625,-4.291,-4.3284,-4.3267,-4.3625,-4.4038,-4.4264,-4.4285,-4.4285,-4.4285,-4.4285,-4.4409,-4.4717,-4.5086,-4.5208,-4.4902,-4.484,-4.4717,-4.4409,-4.4347,-4.4347,-4.4347,-4.4347,-4.4347,-4.4409,-4.4347,-4.447,-4.4779,-4.484,-4.4963,-4.5331,-4.5331,-4.5331,-4.5331,-4.5611,-4.5646,-4.5342,-4.5561,-4.5494,-4.5022,-4.4973,-4.5151,-4.5497,-4.57,-4.5519,-4.5072,-4.5569,-4.5453,-3.0939,-3.2265,-3.3972,-3.6408,-3.8115,-3.9647,-4.1304,-4.266,-4.3664,-4.4016,-4.4543,-4.4828,-4.4535,-4.4921,-4.5208,-4.484,-4.4532,-4.4285,-4.4285,-4.4285,-4.4347,-4.447,-4.4656,-4.4902,-4.5147,-4.5574,-4.5817,-4.5939,-4.618,-4.6301,-4.6301,-4.6301,-4.6301,-4.6301,-4.6301,-4.6125,-4.5773,-4.4869,-4.4192,-4.379,-4.3991,-4.3991,-4.3815,-4.4217,-4.4292,-4.4066,-4.3714,-4.3966,-4.4618,-4.4418,-4.4317,-4.4267,-4.3714,-4.3514,-4.3463,-4.2887,-4.2706,-4.2706,-4.2706,-4.2706,-4.2756,-4.3332,-4.34,-4.3223,-4.3539,-4.3687,-4.3741,-4.3698,-4.3953,-4.4229,-4.4299,-4.4285,-4.4285,-4.4285,-4.4285,-4.4347,-4.447,-4.4902,-4.5208,-4.484,-4.4779,-4.4717,-4.4347,-4.447,-4.4535,-4.4171,-4.4414,-4.4535,-4.4171,-4.4253,-4.4347,-4.447,-4.447,-4.4594,-4.4963,-4.4963,-4.5086,-4.527,-4.5392,-4.5453,-4.5331,-4.5392,-4.5415,-4.5217,-4.5157,-4.5285,-4.5497,-4.5554,-4.5695,-4.5845,-4.6045,-4.5878,-2.9757,-3.0859,-3.2491,-3.468,-3.606,-3.7538,-3.9973,-4.1229,-4.2133,-4.3062,-4.3689,-4.4026,-4.3937,-4.4354,-4.4669,-4.4281,-4.4122,-4.3997,-4.3997,-4.4165,-4.4285,-4.4285,-4.447,-4.4656,-4.4779,-4.5331,-4.5696,-4.5757,-4.612,-4.6301,-4.6301,-4.6301,-4.6301,-4.6301,-4.5949,-4.5573,-4.5196,-4.4267,-4.379,-4.379,-4.3991,-4.4166,-4.4367,-4.4367,-4.4267,-4.4041,-4.3489,-4.3564,-4.4066,-4.4066,-4.4066,-4.4041,-4.3664,-4.3514,-4.3432,-4.2775,-4.2513,-4.2481,-4.2623,-4.2698,-4.291,-4.3572,-4.3689,-4.3623,-4.3844,-4.3923,-4.3978,-4.3857,-4.4061,-4.4285,-4.4285,-4.4285,-4.4285,-4.4285,-4.4285,-4.4285,-4.4285,-4.4656,-4.4902,-4.4656,-4.4656,-4.4532,-4.4347,-4.447,-4.4535,-4.433,-4.4475,-4.451,-4.433,-4.4291,-4.4285,-4.4285,-4.4285,-4.4409,-4.4594,-4.4656,-4.4717,-4.4963,-4.5086,-4.5086,-4.4963,-4.5086,-4.5147,-4.5147,-4.5147,-4.5219,-4.545,-4.545,-4.549,-4.5665,-4.5985,-4.5999,0.0,0.0,0.0,-3.3771,-3.458,-3.5608,-3.9446,-3.9948,-4.0074,-4.176,-4.2564,-4.3031,-4.3266,-4.3548,-4.3541,-4.3222,-4.3301,-4.3481,-4.3481,-4.3962,-4.4261,-4.4261,-4.4285,-4.4409,-4.4779,-4.5086,-4.5453,-4.5732,-4.6095,-4.6276,-4.625,-4.625,-4.625,-4.625,-4.5171,-4.4568,-4.4568,-4.4041,-4.3765,-4.379,-4.4342,-4.492,-4.5497,-4.5497,-4.5171,-4.4593,-4.4041,-4.3489,-4.2986,-4.2986,-4.2986,-4.2986,-4.2986,-4.2986,-4.2986,-4.2625,-4.2481,-4.2581,-4.2782,-4.3095,-4.3424,-4.3678,-4.3909,-4.411,-4.3462,-4.3589,-4.3941,-4.3614,-4.3938,-4.4285,-4.4285,-4.4285,-4.4285,-4.4285,-4.4285,-4.4285,-4.4285,-4.4285,-4.4285,-4.4285,-4.4285,-4.4285,-4.4285,-4.4285,-4.4409,-4.4693,-4.4508,-4.4385,-4.4693,-4.4508,-4.4261,-4.4285,-4.4285,-4.4285,-4.4285,-4.4285,-4.4285,-4.4285,-4.4594,-4.4656,-4.4285,-4.4594,-4.4779,-4.4779,-4.4779,-4.4963,-4.527,-4.527,-4.4999,-4.4569,-4.5388,-4.5757,-2.8638,0.0,0.0,0.0,0.0,0.0,-3.5303,-3.6558,-3.7789,-3.9497,-4.0526,-4.1372,-4.2047,-4.2556,-4.2757,-4.2414,-4.2729,-4.2976,-4.2976,-4.3409,-4.3746,-4.3746,-4.4045,-4.4347,-4.4409,-4.4963,-4.5159,-4.4886,-4.54,-4.5522,-4.5121,-4.5095,-4.5095,-4.5095,-4.4016,-4.3438,-4.3438,-4.2886,-4.2811,-4.3212,-4.4166,-4.492,-4.5497,-4.5497,-4.5171,-4.4593,-4.4041,-4.3489,-4.2986,-4.2986,-4.2986,-4.2986,-4.2986,-4.2986,-4.293,-4.2425,-4.247,-4.2758,-4.2592,-4.3026,-4.3703,-4.4126,-4.4358,-4.4432,-4.4342,-4.4317,-4.4192,-4.4106,-4.4165,-4.4285,-4.4285,-4.4285,-4.4285,-4.4285,-4.4285,-4.4285,-4.4285,-4.4285,-4.4285,-4.4285,-4.4285,-4.4285,-4.4285,-4.447,-4.4449,-4.3916,-4.3989,-4.405,-4.3868,-4.3807,-4.389,-4.4237,-4.4285,-4.4285,-4.4285,-4.4285,-4.4285,-4.4285,-4.4409,-4.4409,-4.4285,-4.4409,-4.4409,-4.4409,-4.4409,-4.447,-4.4594,-4.5086,-4.5257,-4.5109,-4.5318,-4.5453,-2.9244,-2.9807,-3.0909,-3.0834,0.0,0.0,-3.4173,-3.5152,-3.6307,-3.8492,-3.9371,-4.012,-4.1176,-4.1444,-4.1558,-4.1749,-4.2021,-4.2268,-4.2587,-4.3059,-4.3313,-4.3192,-4.3481,-4.377,-4.3986,-4.422,-4.4437,-4.4519,-4.4799,-4.4878,-4.4585,-4.4392,-4.4392,-4.4618,-4.3564,-4.3087,-4.3313,-4.2816,-4.2942,-4.3664,-4.4317,-4.5045,-4.5824,-4.5347,-4.4945,-4.4593,-4.379,-4.3263,-4.2986,-4.2986,-4.2986,-4.2986,-4.2986,-4.293,-4.2762,-4.2256,-4.2315,-4.269,-4.2618,-4.309,-4.3888,-4.4329,-4.45,-4.461,-4.462,-4.447,-4.4285,-4.4285,-4.4285,-4.4285,-4.4285,-4.4285,-4.4285,-4.4285,-4.4285,-4.4285,-4.4285,-4.4285,-4.4285,-4.4285,-4.4285,-4.4285,-4.4285,-4.447,-4.4473,-4.4098,-4.411,-4.411,-4.4049,-4.3927,-4.3925,-4.4261,-4.4285,-4.4347,-4.447,-4.4409,-4.4347,-4.447,-4.4409,-4.4285,-4.4285,-4.4285,-4.4285,-4.4285,-4.4285,-4.4285,-4.4285,-4.4717,-4.4963,-4.5086,-4.5086,-4.5147,-3.0237,-3.0553,-3.1703,-3.2039,-3.1838,0.0,-3.4505,-3.4756,-3.5253,-3.7789,-3.8466,-3.8943,-4.0259,-4.0156,-4.0074,-4.0794,-4.1114,-4.144,-4.2223,-4.2798,-4.3044,-4.2723,-4.2771,-4.2928,-4.3385,-4.33,-4.35,-4.4179,-4.4126,-4.412,-4.4327,-4.3966,-4.394,-4.4418,-4.3438,-4.3112,-4.3614,-4.3137,-4.3438,-4.4543,-4.4593,-4.5196,-4.6175,-4.5171,-4.4644,-4.4468,-4.3489,-4.3037,-4.2905,-4.2905,-4.2986,-4.2986,-4.2986,-4.2737,-4.2457,-4.2142,-4.2225,-4.2496,-4.271,-4.3361,-4.4099,-4.424,-4.4532,-4.4717,-4.4409,-4.4285,-4.4285,-4.4285,-4.4285,-4.4285,-4.4285,-4.4285,-4.4285,-4.4285,-4.4285,-4.4285,-4.4285,-4.4285,-4.4285,-4.4285,-4.4285,-4.4285,-4.4285,-4.4285,-4.4409,-4.4717,-4.4422,-4.4336,-4.4717,-4.4422,-4.4213,-4.4285,-4.4285,-4.4409,-4.4717,-4.447,-4.4409,-4.4717,-4.447,-4.4285,-4.4285,-4.4285,-4.4285,-4.4285,-4.4285,-4.4285,-4.4285,-4.4285,-4.447,-4.4717,-4.4717,-4.4902,-3.196,-3.2266,-3.2794,-3.1779,-3.2164,0.0,-3.229,-3.2817,-3.3671,-3.4675,-3.5579,-3.6511,-3.7715,-3.8166,-3.8467,-3.8642,-3.9792,-4.0893,-4.1672,-4.2214,-4.2462,-4.2169,-4.2554,-4.2867,-4.2964,-4.3082,-4.3124,-4.2808,-4.2815,-4.2836,-4.2892,-4.3075,-4.3187,-4.3288,-4.2715,-4.2414,-4.2539,-4.2414,-4.2861,-4.3966,-4.4418,-4.4995,-4.5648,-4.5422,-4.4819,-4.394,-4.374,-4.3275,-4.2569,-4.2569,-4.2737,-4.2986,-4.2681,-4.2569,-4.24,-4.1891,-4.2296,-4.303,-4.2855,-4.3627,-4.4633,-4.4385,-4.4532,-4.4717,-4.4409,-4.4285,-4.4285,-4.4285,-4.4285,-4.4285,-4.4285,-4.4285,-4.4285,-4.4285,-4.4285,-4.4285,-4.4285,-4.4285,-4.4285,-4.4285,-4.4285,-4.4285,-4.4285,-4.4285,-4.4347,-4.4409,-4.3962,-4.3842,-4.4336,-4.3962,-4.3842,-4.4237,-4.4285,-4.4347,-4.4409,-4.4347,-4.4347,-4.4409,-4.4347,-4.4285,-4.4285,-4.4285,-4.4285,-4.4285,-4.4285,-4.4285,-4.4285,-4.4285,-4.4347,-4.4409,-4.4409,-4.4409,-3.2769,-3.288,-3.331,-3.2263,-3.2449,0.0,0.0,-3.2441,-3.2968,-3.4073,-3.4299,-3.4726,-3.6107,-3.6358,-3.6634,-3.7462,-3.8768,-3.9865,-4.037,-4.145,-4.2077,-4.1639,-4.2038,-4.2469,-4.2587,-4.2739,-4.2637,-4.2299,-4.2404,-4.2513,-4.2513,-4.2818,-4.2986,-4.2986,-4.2766,-4.2615,-4.2615,-4.2615,-4.2986,-4.379,-4.4091,-4.4518,-4.5045,-4.4769,-4.4342,-4.379,-4.3514,-4.3181,-4.2762,-4.2569,-4.2569,-4.2706,-4.2425,-4.2312,-4.2256,-4.1777,-4.2171,-4.2998,-4.2819,-4.3578,-4.4532,-4.4347,-4.4409,-4.4532,-4.4347,-4.4285,-4.4285,-4.4285,-4.4285,-4.4285,-4.4285,-4.4285,-4.4285,-4.4285,-4.4285,-4.4285,-4.4285,-4.4285,-4.4285,-4.4285,-4.4285,-4.4285,-4.4285,-4.4285,-4.4285,-4.4285,-4.4045,-4.4034,-4.4261,-4.4045,-4.3973,-4.4261,-4.4285,-4.4347,-4.4532,-4.4409,-4.4347,-4.4532,-4.4409,-4.4285,-4.4285,-4.4285,-4.4285,-4.4285,-4.4285,-4.4285,-4.4285,-4.4285,-4.4285,-4.4285,-4.4285,-4.4429,-3.3606,-3.3569,-3.3973,-3.3098,-3.3014,-3.3123,0.0,0.0,0.0,-3.3997,-3.3621,-3.3495,-3.4781,-3.458,-3.47,-3.6157,-3.7337,-3.8191,-3.8537,-4.0084,-4.1107,-4.0862,-4.135,-4.1769,-4.1977,-4.1865,-4.1809,-4.2054,-4.2015,-4.2134,-4.2513,-4.2818,-4.2986,-4.2986,-4.2986,-4.2986,-4.2986,-4.3087,-4.3363,-4.379,-4.3915,-4.4141,-4.4443,-4.4016,-4.374,-4.3614,-4.3106,-4.2874,-4.2818,-4.2457,-4.2344,-4.2425,-4.2086,-4.1972,-4.1997,-4.1785,-4.2151,-4.2843,-4.288,-4.3529,-4.4285,-4.4285,-4.4285,-4.4285,-4.4285,-4.4285,-4.4285,-4.4285,-4.4285,-4.4285,-4.4285,-4.4285,-4.4285,-4.4285,-4.4285,-4.4285,-4.4285,-4.4285,-4.4285,-4.4285,-4.4285,-4.4285,-4.4285,-4.4285,-4.4285,-4.4285,-4.4285,-4.4285,-4.4285,-4.4285,-4.4285,-4.4285,-4.4285,-4.4409,-4.4656,-4.447,-4.4409,-4.4717,-4.447,-4.4285,-4.4285,-4.4285,-4.4285,-4.4285,-4.4381,-4.4429,-4.4429,-4.4429,-4.4381,-4.4285,-4.4381,-4.4669,-3.5414,-3.5519,-3.5635,-3.4149,-3.4494,-3.4675,-3.2742,0.0,-3.347,-3.2667,0.0,-3.3187,-3.3319,0.0,0.0,-3.3463,-3.4474,-3.5415,-3.6154,-3.732,-3.8428,-3.932,-4.0113,-4.0571,-4.0628,-3.9785,-4.0006,-4.1931,-4.0813,-4.0755,-4.2382,-4.2818,-4.2986,-4.2986,-4.2986,-4.2986,-4.2986,-4.3463,-4.374,-4.3815,-4.4292,-4.4317,-4.389,-4.384,-4.3539,-4.3062,-4.2706,-4.2425,-4.2167,-4.1834,-4.1915,-4.211,-4.1777,-4.1663,-4.1655,-4.1876,-4.2313,-4.2891,-4.3265,-4.3842,-4.4285,-4.4285,-4.4285,-4.4285,-4.4285,-4.4285,-4.4285,-4.4285,-4.4285,-4.4285,-4.4285,-4.4285,-4.4285,-4.4285,-4.4285,-4.4285,-4.4285,-4.4285,-4.4285,-4.4285,-4.4285,-4.4285,-4.4285,-4.4285,-4.4285,-4.4285,-4.4285,-4.4285,-4.4285,-4.4285,-4.4285,-4.4285,-4.4285,-4.4347,-4.4347,-4.4347,-4.4347,-4.4347,-4.4347,-4.4285,-4.4285,-4.4285,-4.4285,-4.4285,-4.4741,-4.4981,-4.4981,-4.4981,-4.4741,-4.4285,-4.4765,-4.5005,-3.6015,-3.6122,-3.6174,-3.5067,-3.4996,-3.4886,-3.347,-3.3043,-3.2893,-3.2742,0.0,0.0,0.0,0.0,0.0,0.0,-3.3997,-3.4731,-3.4719,-3.5553,-3.6726,-3.824,-3.8741,-3.9277,-4.0074,-3.9384,-3.9511,-4.1078,-3.9976,-4.0005,-4.1713,-4.2288,-4.2715,-4.2961,-4.2986,-4.2986,-4.2986,-4.3212,-4.3375,-4.3505,-4.3601,-4.3601,-4.3505,-4.3407,-4.3075,-4.2681,-4.2569,-4.2369,-4.2054,-4.172,-4.1663,-4.1802,-4.1516,-4.1573,-4.1932,-4.1948,-4.2362,-4.2891,-4.3337,-4.3866,-4.4285,-4.4285,-4.4285,-4.4285,-4.4285,-4.4285,-4.4285,-4.4285,-4.4285,-4.4285,-4.4285,-4.4285,-4.4285,-4.4285,-4.4285,-4.4285,-4.4285,-4.4285,-4.4285,-4.4285,-4.4285,-4.4285,-4.4285,-4.4285,-4.4285,-4.4285,-4.4285,-4.4285,-4.4285,-4.4285,-4.4285,-4.4285,-4.4285,-4.4285,-4.4285,-4.4285,-4.4285,-4.4285,-4.4285,-4.4285,-4.4285,-4.4285,-4.4285,-4.4285,-4.4501,-4.4621,-4.4621,-4.4621,-4.4501,-4.4285,-4.4525,-4.4957,-3.667,-3.669,-3.659,-3.5468,-3.5085,-3.4774,-3.3891,-3.3269,-3.2968,-3.3244,-3.2893,0.0,0.0,0.0,-3.2817,-3.3244,0.0,-3.4198,-3.3922,-3.4145,-3.4963,-3.6702,-3.7389,-3.8251,-3.9544,-3.8598,-3.8543,-4.0144,-3.9016,-3.9118,-4.1065,-4.1863,-4.2389,-4.2791,-4.2886,-4.2986,-4.2874,-4.3175,-4.328,-4.316,-4.328,-4.3337,-4.3308,-4.2987,-4.2762,-4.2457,-4.2344,-4.2118,-4.1915,-4.1606,-4.1549,-4.1549,-4.1287,-4.1613,-4.2209,-4.2224,-4.2482,-4.2916,-4.3505,-4.3949,-4.4285,-4.4285,-4.4285,-4.4285,-4.4285,-4.4285,-4.4285,-4.4285,-4.4285,-4.4285,-4.4285,-4.4285,-4.4285,-4.4285,-4.4285,-4.4285,-4.4285,-4.4285,-4.4285,-4.4285,-4.4285,-4.4285,-4.4285,-4.4285,-4.4285,-4.4285,-4.4285,-4.4285,-4.4285,-4.4285,-4.4285,-4.4285,-4.4285,-4.4285,-4.4285,-4.4285,-4.4285,-4.4285,-4.4285,-4.4285,-4.4285,-4.4285,-4.4285,-4.4285,-4.4429,-4.4501,-4.4501,-4.4501,-4.4501,-4.4501,-4.4501,-4.4909,-3.7744,-3.7569,-3.7093,-3.5219,-3.4726,-3.4449,-3.3345,-3.3897,-3.45,-3.3972,-3.4655,-3.5207,-3.468,-3.4198,-3.3847,-3.3872,-3.3445,0.0,0.0,-3.2993,-3.2814,-3.4218,-3.6061,-3.7635,-3.8715,-3.6699,-3.6552,-3.9508,-3.7736,-3.7863,-4.0774,-4.1747,-4.2213,-4.2238,-4.2766,-4.2849,-4.2513,-4.3606,-4.3763,-4.2922,-4.3763,-4.3855,-4.3251,-4.2761,-4.2513,-4.2457,-4.1891,-4.1606,-4.1606,-4.1344,-4.1402,-4.1549,-4.1287,-4.1716,-4.2433,-4.2697,-4.2795,-4.2904,-4.3962,-4.4261,-4.4285,-4.4285,-4.4285,-4.4285,-4.4285,-4.4285,-4.4285,-4.4285,-4.4285,-4.4285,-4.4285,-4.4285,-4.4285,-4.4285,-4.4285,-4.4285,-4.4285,-4.4285,-4.4285,-4.4285,-4.4285,-4.4285,-4.4285,-4.4285,-4.4285,-4.4285,-4.4285,-4.4285,-4.4285,-4.4285,-4.4285,-4.4285,-4.4285,-4.4285,-4.4285,-4.4285,-4.4285,-4.4285,-4.4285,-4.4285,-4.4285,-4.4285,-4.4285,-4.4285,-4.4789,-4.5053,-4.5053,-4.5053,-4.5053,-4.5053,-4.5053,-4.5053,-3.8449,-3.8507,-3.8233,-3.6442,-3.5945,-3.5429,-3.3947,-3.4198,-3.4675,-3.4474,-3.4981,-3.5433,-3.5257,-3.4781,-3.4324,-3.3947,-3.3746,-3.3294,0.0,-3.1612,-3.1596,-3.2789,-3.4474,-3.57,-3.6026,-3.5692,-3.6015,-3.7415,-3.6358,-3.6945,-3.9692,-4.0281,-4.1037,-4.2128,-4.2326,-4.2369,-4.2256,-4.2996,-4.3266,-4.3086,-4.3266,-4.3324,-4.3238,-4.2561,-4.2142,-4.1891,-4.172,-4.1492,-4.1344,-4.123,-4.123,-4.1344,-4.123,-4.1567,-4.219,-4.2627,-4.2976,-4.3361,-4.4045,-4.4285,-4.4285,-4.4285,-4.4285,-4.4285,-4.4285,-4.4285,-4.4285,-4.4285,-4.4285,-4.4285,-4.4285,-4.4285,-4.4285,-4.4285,-4.4285,-4.4285,-4.4285,-4.4285,-4.4285,-4.4285,-4.4285,-4.4405,-4.4741,-4.4813,-4.4813,-4.4813,-4.4501,-4.4549,-4.5245,-4.5029,-4.4933,-4.5293,-4.5005,-4.4813,-4.4813,-4.4813,-4.4813,-4.4813,-4.5125,-4.5381,-4.5381,-4.5381,-4.5381,-4.5381,-4.5573,-4.5645,-4.5645,-4.5645,-4.5477,-4.5077,-4.5438,-4.5477,-3.8888,-3.8942,-3.8741,-3.725,-3.6776,-3.638,-3.5052,-3.5353,-3.5881,-3.5881,-3.6135,-3.6436,-3.6684,-3.5734,-3.4856,-3.455,-3.4148,-3.3319,0.0,-3.111,-3.1135,-3.1838,-3.3244,-3.4329,-3.484,-3.469,-3.4955,-3.5893,-3.5281,-3.5771,-3.8035,-3.9153,-4.0168,-4.1201,-4.1815,-4.2029,-4.1915,-4.265,-4.3013,-4.3057,-4.3208,-4.3364,-4.3419,-4.2583,-4.207,-4.1874,-4.1565,-4.1344,-4.1172,-4.1172,-4.1172,-4.1196,-4.1389,-4.1798,-4.2362,-4.2699,-4.3216,-4.3866,-4.4165,-4.4285,-4.4285,-4.4285,-4.4285,-4.4285,-4.4285,-4.4285,-4.4285,-4.4285,-4.4285,-4.4285,-4.4285,-4.4285,-4.4285,-4.4285,-4.4429,-4.4573,-4.4573,-4.4717,-4.4837,-4.4837,-4.4837,-4.4957,-4.5293,-4.5342,-4.5342,-4.5342,-4.5053,-4.5101,-4.5838,-4.5621,-4.5549,-4.5886,-4.5621,-4.5342,-4.5342,-4.5342,-4.5342,-4.5342,-4.5742,-4.5934,-4.5934,-4.5934,-4.5934,-4.5934,-4.5934,-4.5934,-4.5934,-4.5934,-4.5742,-4.5366,-4.5766,-4.5742]},{"header":{"parameterUnit":"m.s-1","parameterCategory":1,"la1":30.6,"la2":29.2853,"lo1":-89.7004,"lo2":-87.6739,"dy":0.0162,"dx":0.0183,"nx":112,"ny":82,"refTime":"2026-04-20T00:00:00:Z","depth":0,"parameterNumber":3,"parameterNumberName":"V-component_of_WINDS"},"data":[0.0,0.0,0.0,0.0,0.0,0.0,0.0,0.0,0.0,0.0,0.0,0.0,0.0,0.0,0.0,0.0,0.0,0.0,0.0,0.0,0.0,0.0,0.0,0.0,0.0,0.0,0.0,0.0,0.0,0.0,0.0,0.0,0.0,0.0,0.0,0.0,0.0,0.0,0.0,0.0,0.0,0.0,0.0,0.0,0.0,0.0,0.0,0.0,0.0,0.0,0.0,0.0,0.0,0.0,0.0,0.0,0.0,0.0,0.0,0.0,0.0,0.0,0.0,0.0,0.0,0.0,0.0,0.0,0.0,0.0,0.0,0.0,0.0,0.0,0.0,0.0,0.0,0.0,0.0,0.0,0.0,0.0,0.0,0.0,0.0,0.0,0.0,0.0,0.0,0.0,2.1677,2.1053,2.1354,2.1787,2.2212,2.1545,2.0422,1.8876,0.0,0.0,0.0,0.0,0.0,0.0,0.0,0.0,0.0,0.0,0.0,0.0,0.0,0.0,0.0,0.0,0.0,0.0,0.0,0.0,0.0,0.0,0.0,0.0,0.0,0.0,0.0,0.0,0.0,0.0,0.0,0.0,0.0,0.0,0.0,0.0,0.0,0.0,0.0,0.0,0.0,0.0,0.0,0.0,0.0,0.0,0.0,0.0,0.0,0.0,0.0,0.0,0.0,0.0,0.0,0.0,0.0,0.0,0.0,0.0,0.0,0.0,0.0,0.0,0.0,0.0,0.0,0.0,0.0,0.0,0.0,0.0,0.0,0.0,0.0,0.0,0.0,0.0,0.0,0.0,0.0,0.0,0.0,0.0,0.0,0.0,0.0,0.0,0.0,0.0,0.0,0.0,0.0,0.0,0.0,0.0,0.0,0.0,0.0,0.0,0.0,0.0,0.0,0.0,2.1205,2.2554,2.204,2.2066,2.3171,2.1919,2.0835,2.0161,0.0,0.0,0.0,0.0,0.0,0.0,0.0,0.0,0.0,0.0,0.0,0.0,0.0,0.0,0.0,0.0,0.0,0.0,0.0,0.0,0.0,0.0,0.0,0.0,0.0,0.0,0.0,0.0,0.0,0.0,0.0,0.0,0.0,0.0,0.0,0.0,0.0,0.0,0.0,0.0,0.0,0.0,0.0,0.0,0.0,0.0,0.0,0.0,0.0,0.0,0.0,0.0,0.0,0.0,0.0,0.0,0.0,0.0,0.0,0.0,0.0,0.0,0.0,0.0,0.0,0.0,0.0,0.0,0.0,0.0,0.0,0.0,0.0,0.0,0.0,0.0,0.0,0.0,0.0,0.0,0.0,0.0,0.0,0.0,0.0,0.0,0.0,0.0,0.0,0.0,0.0,0.0,0.0,0.0,0.0,0.0,0.0,0.0,0.0,0.0,0.0,0.0,0.0,2.3066,2.3234,2.5468,2.4361,2.3747,2.4543,2.3548,2.2171,2.0515,1.9022,0.0,0.0,0.0,0.0,0.0,0.0,0.0,0.0,0.0,0.0,0.0,0.0,0.0,0.0,0.0,0.0,0.0,0.0,0.0,0.0,0.0,0.0,0.0,0.0,0.0,0.0,0.0,0.0,0.0,0.0,0.0,0.0,0.0,0.0,0.0,0.0,0.0,0.0,0.0,0.0,0.0,0.0,0.0,0.0,0.0,0.0,0.0,0.0,0.0,0.0,0.0,0.0,0.0,0.0,0.0,0.0,0.0,0.0,0.0,0.0,0.0,0.0,0.0,0.0,0.0,0.0,0.0,0.0,0.0,0.0,0.0,0.0,0.0,0.0,0.0,0.0,0.0,0.0,0.0,0.0,0.0,0.0,0.0,0.0,0.0,0.0,0.0,0.0,0.0,0.0,0.0,0.0,0.0,0.0,0.0,0.0,0.0,0.0,0.0,0.0,0.0,0.0,2.5649,2.5501,2.7574,2.6255,2.5426,2.5867,2.4957,2.3333,2.0963,1.9724,0.0,0.0,0.0,0.0,0.0,0.0,0.0,0.0,0.0,0.0,0.0,0.0,0.0,0.0,0.0,0.0,0.0,0.0,0.0,0.0,0.0,0.0,0.0,0.0,0.0,0.0,0.0,0.0,0.0,0.0,0.0,0.0,0.0,0.0,0.0,0.0,0.0,0.0,0.0,0.0,0.0,0.0,0.0,0.0,0.0,0.0,0.0,0.0,0.0,0.0,0.0,0.0,0.0,0.0,0.0,0.0,0.0,0.0,0.0,0.0,0.0,0.0,0.0,0.0,0.0,0.0,0.0,0.0,0.0,0.0,0.0,0.0,0.0,0.0,0.0,0.0,0.0,0.0,0.0,0.0,0.0,0.0,0.0,0.0,0.0,0.0,0.0,0.0,0.0,0.0,0.0,0.0,0.0,0.0,0.0,0.0,0.0,0.0,0.0,0.0,0.0,0.0,2.5933,2.6982,2.7323,2.6465,2.6275,2.7099,2.5309,2.351,2.2179,2.0344,0.0,0.0,0.0,0.0,0.0,0.0,0.0,0.0,0.0,0.0,0.0,0.0,0.0,0.0,0.0,0.0,0.0,0.0,0.0,0.0,0.0,0.0,0.0,0.0,0.0,0.0,0.0,0.0,0.0,0.0,0.0,0.0,0.0,0.0,0.0,0.0,0.0,0.0,0.0,0.0,0.0,0.0,0.0,0.0,0.0,0.0,0.0,0.0,0.0,0.0,0.0,0.0,0.0,0.0,0.0,0.0,0.0,0.0,0.0,0.0,0.0,0.0,0.0,0.0,0.0,0.0,0.0,0.0,0.0,0.0,0.0,0.0,0.0,0.0,0.0,0.0,0.0,0.0,0.0,0.0,0.0,0.0,0.0,0.0,0.0,0.0,0.0,0.0,0.0,0.0,0.0,0.0,0.0,0.0,0.0,0.0,0.0,0.0,0.0,0.0,0.0,0.0,2.6465,2.7735,2.8762,2.8403,2.8206,2.8526,2.7486,2.572,2.3115,0.0,0.0,0.0,0.0,0.0,0.0,0.0,0.0,0.0,0.0,0.0,0.0,0.0,0.0,0.0,0.0,0.0,0.0,0.0,0.0,0.0,0.0,0.0,0.0,0.0,0.0,0.0,0.0,0.0,0.0,0.0,0.0,0.0,0.0,0.0,0.0,0.0,0.0,0.0,0.0,0.0,0.0,0.0,0.0,0.0,0.0,0.0,0.0,0.0,0.0,0.0,0.0,0.0,0.0,0.0,0.0,0.0,0.0,0.0,0.0,0.0,0.0,0.0,0.0,0.0,0.0,0.0,0.0,0.0,0.0,0.0,0.0,0.0,0.0,0.0,0.0,0.0,0.0,0.0,0.0,0.0,0.0,0.0,0.0,0.0,0.0,0.0,0.0,0.0,0.0,0.0,0.0,0.0,0.0,0.0,0.0,0.0,0.0,0.0,0.0,0.0,0.0,2.5109,2.6995,2.8605,2.9832,2.9834,2.9814,2.9814,2.8949,2.7058,2.3777,0.0,0.0,0.0,0.0,0.0,0.0,0.0,0.0,0.0,0.0,0.0,0.0,0.0,0.0,0.0,0.0,0.0,0.0,0.0,0.0,0.0,0.0,0.0,0.0,0.0,0.0,0.0,0.0,0.0,0.0,0.0,0.0,0.0,0.0,0.0,0.0,0.0,0.0,0.0,0.0,0.0,0.0,0.0,0.0,0.0,0.0,0.0,0.0,0.0,0.0,0.0,0.0,0.0,0.0,0.0,0.0,0.0,0.0,0.0,0.0,0.0,0.0,0.0,0.0,0.0,0.0,0.0,0.0,0.0,0.0,0.0,0.0,0.0,0.0,0.0,0.0,0.0,0.0,0.0,0.0,0.0,0.0,0.0,0.0,0.0,0.0,0.0,0.0,0.0,0.0,0.0,0.0,0.0,0.0,0.0,0.0,0.0,0.0,0.0,0.0,0.0,0.0,2.4375,2.7441,2.9726,3.0156,3.0605,3.0879,3.0879,2.9297,2.7069,0.0,0.0,0.0,0.0,0.0,0.0,0.0,0.0,0.0,0.0,0.0,0.0,0.0,0.0,0.0,0.0,0.0,0.0,0.0,0.0,0.0,0.0,0.0,0.0,0.0,0.0,0.0,0.0,0.0,0.0,0.0,0.0,0.0,0.0,0.0,0.0,0.0,0.0,0.0,0.0,0.0,0.0,0.0,0.0,0.0,0.0,0.0,0.0,0.0,0.0,0.0,0.0,0.0,0.0,0.0,0.0,0.0,0.0,0.0,0.0,0.0,0.0,0.0,0.0,0.0,0.0,0.0,0.0,0.0,0.0,0.0,0.0,0.0,0.0,0.0,0.0,0.0,0.0,0.0,0.0,0.0,0.0,0.0,0.0,0.0,0.0,0.0,0.0,0.0,0.0,0.0,0.0,0.0,0.0,0.0,0.0,0.0,0.0,0.0,0.0,0.0,0.0,0.0,2.4785,2.7669,2.9726,3.0156,3.0312,3.041,3.041,2.9101,2.7266,2.489,0.0,0.0,0.0,0.0,0.0,0.0,0.0,0.0,0.0,0.0,0.0,0.0,0.0,0.0,0.0,0.0,0.0,0.0,0.0,0.0,0.0,0.0,0.0,0.0,0.0,0.0,0.0,0.0,0.0,0.0,0.0,0.0,0.0,0.0,0.0,0.0,0.0,0.0,0.0,0.0,0.0,0.0,0.0,0.0,0.0,0.0,0.0,0.0,0.0,0.0,0.0,0.0,0.0,0.0,0.0,0.0,0.0,0.0,0.0,0.0,0.0,0.0,0.0,0.0,0.0,0.0,0.0,0.0,0.0,0.0,0.0,0.0,0.0,0.0,0.0,0.0,0.0,0.0,0.0,0.0,0.0,0.0,0.0,0.0,0.0,0.0,0.0,0.0,0.0,0.0,0.0,0.0,0.0,0.0,0.0,0.0,0.0,0.0,0.0,0.0,0.0,0.0,2.4988,2.7695,2.9805,3.041,3.0469,3.0547,3.0703,2.9551,2.7891,2.5723,0.0,0.0,0.0,0.0,0.0,0.0,0.0,0.0,0.0,0.0,0.0,0.0,0.0,0.0,0.0,0.0,0.0,0.0,0.0,0.0,0.0,0.0,0.0,0.0,0.0,0.0,0.0,0.0,0.0,0.0,0.0,0.0,0.0,0.0,0.0,0.0,0.0,0.0,0.0,0.0,0.0,0.0,0.0,0.0,0.0,0.0,0.0,0.0,0.0,0.0,0.0,0.0,0.0,0.0,0.0,0.0,0.0,0.0,0.0,0.0,0.0,0.0,0.0,0.0,0.0,0.0,0.0,0.0,0.0,0.0,0.0,0.0,0.0,0.0,0.0,0.0,0.0,0.0,0.0,0.0,0.0,0.0,0.0,0.0,0.0,0.0,0.0,0.0,0.0,0.0,0.0,0.0,0.0,0.0,0.0,0.0,0.0,0.0,0.0,0.0,0.0,0.0,2.5189,2.8048,3.0297,3.1129,3.1228,3.1328,3.1604,3.0425,2.8795,2.6582,0.0,0.0,0.0,0.0,0.0,0.0,0.0,0.0,0.0,0.0,0.0,0.0,0.0,0.0,0.0,0.0,0.0,0.0,0.0,0.0,0.0,0.0,0.0,0.0,0.0,0.0,0.0,0.0,0.0,0.0,0.0,0.0,0.0,0.0,0.0,0.0,0.0,0.0,0.0,0.0,0.0,0.0,0.0,0.0,0.0,0.0,0.0,0.0,0.0,0.0,0.0,0.0,0.0,0.0,0.0,0.0,0.0,0.0,0.0,0.0,3.5959,3.4364,0.0,0.0,0.0,0.0,0.0,0.0,0.0,0.0,0.0,0.0,0.0,0.0,0.0,0.0,0.0,0.0,0.0,0.0,0.0,0.0,0.0,0.0,0.0,0.0,0.0,0.0,0.0,0.0,0.0,0.0,0.0,0.0,0.0,0.0,0.0,0.0,0.0,0.0,0.0,0.0,2.7249,3.0469,3.2868,3.3578,3.3663,3.3332,3.2543,3.1216,2.9412,2.7024,2.4716,0.0,0.0,0.0,0.0,0.0,0.0,0.0,0.0,0.0,0.0,0.0,0.0,0.0,0.0,0.0,0.0,0.0,0.0,0.0,0.0,0.0,0.0,0.0,0.0,0.0,0.0,0.0,0.0,0.0,0.0,0.0,0.0,0.0,0.0,0.0,0.0,0.0,0.0,0.0,0.0,0.0,0.0,0.0,0.0,0.0,0.0,0.0,0.0,0.0,0.0,0.0,0.0,0.0,0.0,0.0,0.0,0.0,0.0,0.0,3.8515,3.6896,0.0,0.0,0.0,0.0,0.0,0.0,0.0,0.0,0.0,0.0,0.0,0.0,0.0,0.0,0.0,0.0,0.0,0.0,0.0,0.0,0.0,0.0,0.0,0.0,0.0,0.0,0.0,0.0,0.0,0.0,0.0,0.0,0.0,0.0,0.0,0.0,0.0,0.0,0.0,0.0,2.8531,3.1548,3.3946,3.4759,3.4814,3.4592,3.4,3.2879,3.1377,2.9363,2.7024,0.0,0.0,0.0,0.0,0.0,0.0,0.0,0.0,0.0,0.0,0.0,0.0,0.0,0.0,0.0,0.0,0.0,0.0,0.0,0.0,0.0,0.0,0.0,0.0,0.0,0.0,0.0,0.0,0.0,0.0,0.0,0.0,0.0,0.0,0.0,0.0,0.0,0.0,0.0,0.0,0.0,0.0,0.0,0.0,0.0,0.0,0.0,0.0,0.0,0.0,0.0,0.0,0.0,4.2961,4.3646,4.4141,4.4392,4.4317,4.384,4.1379,3.9973,3.9372,3.7764,0.0,0.0,0.0,0.0,0.0,0.0,0.0,0.0,0.0,0.0,0.0,0.0,0.0,0.0,0.0,0.0,0.0,0.0,0.0,0.0,0.0,0.0,3.4248,3.342,3.4901,3.5248,3.0592,0.0,0.0,0.0,0.0,0.0,0.0,0.0,0.0,0.0,0.0,0.0,2.9783,3.2605,3.4849,3.5799,3.589,3.5813,3.5504,3.4645,3.3434,3.1887,2.9646,2.768,0.0,0.0,0.0,0.0,0.0,0.0,0.0,0.0,0.0,0.0,0.0,0.0,0.0,0.0,0.0,0.0,0.0,0.0,0.0,0.0,0.0,0.0,0.0,0.0,0.0,0.0,0.0,0.0,0.0,0.0,0.0,0.0,3.6609,3.6229,0.0,0.0,0.0,0.0,0.0,0.0,0.0,0.0,0.0,0.0,0.0,0.0,0.0,4.1404,4.2434,4.4016,4.5121,4.5673,4.7179,4.8184,4.8686,4.7782,4.7606,4.7933,4.6627,0.0,4.1685,4.045,0.0,0.0,0.0,0.0,0.0,0.0,0.0,0.0,0.0,0.0,0.0,0.0,0.0,0.0,0.0,0.0,0.0,0.0,0.0,0.0,0.0,0.0,3.6835,3.7161,3.7161,3.691,3.6118,3.3327,3.0568,2.9308,2.79,2.6639,0.0,0.0,0.0,0.0,0.0,0.0,3.1901,3.5065,3.7433,3.8222,3.8344,3.7705,3.6203,3.5642,3.4467,3.2359,3.0642,2.9307,2.8492,2.5955,0.0,0.0,0.0,0.0,0.0,0.0,0.0,0.0,0.0,0.0,0.0,0.0,0.0,0.0,0.0,0.0,0.0,0.0,0.0,0.0,0.0,0.0,0.0,0.0,0.0,0.0,0.0,0.0,0.0,3.701,3.8266,3.7387,3.8341,3.8165,0.0,0.0,0.0,0.0,0.0,0.0,0.0,0.0,0.0,4.3589,4.3966,4.4819,4.6225,4.7581,4.8385,4.8636,4.969,5.0318,5.0519,4.969,4.9464,4.964,4.8862,4.7506,4.5757,4.3338,4.1706,4.0553,0.0,0.0,0.0,0.0,3.6684,3.6835,3.7764,3.7713,3.7186,3.6709,0.0,0.0,0.0,0.0,0.0,0.0,0.0,3.4324,3.573,3.7111,3.8341,3.922,3.9245,3.8969,3.8668,3.6759,3.448,3.2406,3.1149,2.9777,2.7578,2.7275,0.0,0.0,0.0,3.1896,3.3175,3.5709,3.7617,3.829,3.8339,3.8012,3.7285,3.6772,3.5989,3.4702,3.3044,3.1862,3.1308,2.8807,2.6901,0.0,0.0,0.0,0.0,0.0,0.0,0.0,0.0,0.0,0.0,0.0,0.0,0.0,0.0,0.0,0.0,0.0,0.0,0.0,0.0,0.0,0.0,0.0,0.0,0.0,0.0,0.0,0.0,3.8517,4.0074,3.8793,4.0375,4.0475,0.0,0.0,0.0,0.0,0.0,0.0,4.2705,4.3338,4.4593,4.6677,4.7154,4.8033,4.9389,5.0218,5.072,5.0845,5.1297,5.1574,5.1674,5.1122,5.077,5.0619,5.0042,4.949,4.8761,4.5849,4.3991,4.2866,4.0779,3.9899,3.9749,3.9546,3.9496,3.9697,4.1078,4.1178,4.0576,3.9597,3.8617,3.7337,3.47,0.0,0.0,0.0,0.0,3.6132,3.7638,3.8668,3.9546,4.0501,4.0674,4.0576,4.0023,3.9145,3.7713,3.5228,3.4173,3.2817,3.0055,3.0156,0.0,2.875,3.126,3.3545,3.4223,3.5981,3.7387,3.7939,3.8015,3.7939,3.7814,3.7412,3.6983,3.643,3.4951,3.3922,3.352,3.1321,2.9626,2.8518,0.0,0.0,0.0,0.0,0.0,0.0,0.0,0.0,0.0,0.0,0.0,0.0,0.0,0.0,0.0,0.0,0.0,0.0,0.0,0.0,0.0,0.0,0.0,0.0,0.0,0.0,0.0,0.0,0.0,4.0576,4.276,0.0,0.0,0.0,0.0,4.1911,4.3438,4.5095,4.6692,4.733,4.841,5.0117,5.0193,5.0519,5.1147,5.1222,5.1498,5.2026,5.2051,5.2327,5.2829,5.2277,5.1724,5.1197,5.0619,5.0067,4.9414,4.7682,4.6326,4.5146,4.3438,4.2514,4.1986,4.1404,4.1175,4.125,4.1907,4.1756,4.1401,4.2409,4.1304,3.9446,3.8743,3.7838,0.0,0.0,3.8216,3.8919,4.0049,4.04,4.0576,4.11,4.125,4.11,4.0601,4.0023,3.9094,3.7362,3.6157,3.4981,3.3822,0.0,3.2692,3.2064,3.3043,3.4248,3.5282,3.6458,3.7387,3.7939,3.8015,3.7789,3.7262,3.7211,3.6983,3.643,3.5303,3.4675,3.465,3.2975,3.1489,3.0216,2.7635,0.0,0.0,0.0,0.0,0.0,0.0,0.0,0.0,0.0,0.0,0.0,0.0,0.0,0.0,0.0,0.0,0.0,0.0,0.0,0.0,0.0,0.0,0.0,0.0,0.0,0.0,0.0,0.0,4.2791,4.5397,0.0,4.394,4.4543,4.5146,4.5347,4.6878,4.8234,4.9188,4.9766,5.0519,5.1473,5.1498,5.1909,5.2666,5.2691,5.2903,5.3284,5.3284,5.3411,5.3563,5.2648,5.2114,5.1885,5.0918,5.041,5.0155,4.9214,4.8128,4.6928,4.5623,4.4794,4.4267,4.4091,4.4016,4.4041,4.4242,4.4281,4.4175,4.3746,4.2579,4.1255,4.0669,4.0007,3.9497,4.0007,4.0313,4.0746,4.1813,4.2093,4.2192,4.2562,4.2406,4.1947,4.1178,4.0601,3.9948,3.8994,3.7613,3.6257,3.5107,3.4756,3.4349,3.3445,3.4248,3.5056,3.5458,3.6207,3.6782,3.6935,3.6983,3.686,3.6732,3.6332,3.6009,3.5855,3.4801,3.4198,3.4198,3.3269,3.2364,3.1563,2.994,2.7817,0.0,0.0,0.0,0.0,0.0,0.0,0.0,0.0,0.0,0.0,0.0,0.0,0.0,0.0,0.0,0.0,0.0,0.0,0.0,0.0,0.0,0.0,0.0,0.0,0.0,4.4511,4.7043,4.6394,4.8121,4.8775,4.7392,4.7713,4.8134,4.851,4.9715,5.0867,5.1925,5.1892,5.227,5.3206,5.2852,5.2894,5.3657,5.3682,5.3793,5.3997,5.3997,5.3997,5.3971,5.3228,5.2664,5.228,5.1511,5.0947,5.0563,4.9999,4.9288,4.8483,4.7511,4.6702,4.6129,4.6332,4.6281,4.6104,4.6104,4.5969,4.5635,4.474,4.3749,4.2774,4.2364,4.2004,4.1773,4.2158,4.2261,4.2441,4.3131,4.331,4.3358,4.3551,4.3318,4.2805,4.1828,4.1319,4.0839,4.0081,3.8793,3.7513,3.6784,3.6461,3.6009,3.5152,3.578,3.6185,3.5855,3.6307,3.6606,3.643,3.6405,3.6405,3.6405,3.5855,3.5508,3.5508,3.4324,3.3621,3.3621,3.2742,3.2064,3.1687,3.0055,2.8197,2.6197,0.0,0.0,0.0,0.0,0.0,0.0,0.0,0.0,0.0,0.0,0.0,0.0,0.0,0.0,0.0,0.0,0.0,0.0,0.0,0.0,0.0,0.0,0.0,4.6601,4.8186,4.9924,5.1249,5.0914,5.0664,5.1014,5.0332,5.0338,5.1447,5.1959,5.3071,5.4968,5.3768,5.3768,5.5459,5.4241,5.3725,5.4064,5.4064,5.4064,5.4132,5.4064,5.4064,5.4064,5.4039,5.3423,5.2331,5.2371,5.1704,5.0626,5.0036,4.9805,4.9754,4.9153,4.823,4.7308,4.7872,4.7718,4.7205,4.7205,4.6488,4.5648,4.5622,4.4878,4.398,4.3955,4.3899,4.3899,4.3899,4.3899,4.3899,4.3899,4.3899,4.3899,4.3899,4.3899,4.3592,4.2439,4.2182,4.1849,4.0722,3.9652,3.8944,3.8944,3.8417,3.7839,3.7312,3.7688,0.0,3.6606,3.6908,3.6985,3.648,3.6405,3.6405,3.6405,3.5855,3.5458,3.5458,3.3947,3.3043,3.3043,3.1512,3.0633,3.0633,2.7982,2.6273,2.5695,0.0,0.0,0.0,0.0,0.0,0.0,0.0,0.0,0.0,0.0,0.0,0.0,0.0,0.0,0.0,0.0,0.0,0.0,0.0,0.0,0.0,4.9639,5.1466,4.8934,5.104,5.3052,5.3582,5.4128,5.4861,5.5916,5.5835,5.5697,5.5789,5.526,5.5485,5.6726,5.5736,5.534,5.5867,5.5472,5.5499,5.5828,5.4887,5.502,5.6248,5.5246,5.4831,5.4805,5.5365,5.4717,5.3153,5.3678,5.2916,5.1268,5.0279,5.0149,5.04,4.9338,4.8487,4.7872,4.8025,4.7718,4.7265,4.7501,4.7121,4.6533,4.6347,4.5753,4.5022,4.4606,4.4476,4.4476,4.4476,4.4476,4.4476,4.4476,4.4476,4.4422,4.4258,4.4203,4.3839,4.2492,4.2182,4.1849,4.0722,4.0287,4.0007,3.9804,3.9146,3.8567,3.8417,3.8191,3.7889,3.7588,3.7337,3.7136,3.7033,3.6656,3.6405,3.6405,3.5504,3.4731,3.4374,3.3169,3.2441,3.2441,3.176,3.1468,3.1629,2.9555,2.8261,0.0,0.0,0.0,0.0,0.0,0.0,0.0,0.0,0.0,0.0,0.0,0.0,0.0,0.0,0.0,0.0,0.0,0.0,0.0,0.0,0.0,0.0,5.3624,5.5634,5.45,5.5253,5.6317,5.7188,5.6983,5.7369,5.8697,5.832,5.7941,5.7751,5.7421,5.7642,5.8509,5.7743,5.7449,5.7906,5.7369,5.6946,5.6742,5.624,5.6235,5.6648,5.6482,5.6354,5.6327,5.654,5.5734,5.4193,5.41,5.3397,5.2297,5.1368,5.1703,5.2493,0.0,0.0,0.0,0.0,4.7929,4.7619,4.7821,4.7838,4.7717,4.7304,4.7078,4.6921,4.6273,4.5741,4.5395,4.5395,4.51,4.4668,4.4668,4.4668,4.4668,4.4531,4.4476,4.411,4.2784,4.2552,4.2216,4.1078,4.0744,0.0,4.0491,3.9982,3.9474,3.9246,3.8917,3.8537,3.8081,3.7678,3.7422,3.7194,3.689,3.6687,3.6687,3.5628,0.0,0.0,0.0,3.2177,3.1493,3.1015,0.0,0.0,0.0,0.0,0.0,0.0,0.0,0.0,2.6969,2.6416,0.0,0.0,0.0,0.0,0.0,0.0,0.0,0.0,0.0,0.0,0.0,0.0,0.0,0.0,0.0,0.0,5.7244,5.9787,6.1044,5.9972,5.9568,6.1026,5.9529,5.8884,6.0205,5.9256,5.8571,5.8509,5.8947,5.9535,6.0262,5.9605,0.0,0.0,0.0,5.8411,5.7578,5.7917,5.7639,5.6658,5.7639,5.8132,5.8216,5.7776,5.6795,5.5461,5.4474,5.3905,5.3697,5.2897,5.3606,5.4702,5.088,4.9351,4.9219,4.8615,4.8405,4.8405,4.8442,0.0,0.0,4.8491,4.8586,4.8888,4.8297,4.7387,4.6583,4.6583,4.5847,4.5073,4.5073,4.5073,4.502,4.4938,4.4884,4.4569,4.3258,4.3023,4.2683,4.1533,4.1097,4.0946,4.0946,4.0694,4.0337,3.9875,3.9671,3.9261,3.8313,3.8009,3.7702,3.7262,3.716,0.0,3.7108,3.6134,3.5475,3.5442,3.3879,3.228,3.0701,3.0138,2.9651,2.916,2.9659,3.0174,3.0663,3.1203,3.146,3.1383,2.8244,2.7318,0.0,0.0,0.0,0.0,0.0,0.0,0.0,0.0,0.0,0.0,0.0,0.0,0.0,0.0,0.0,5.6077,5.889,6.1014,6.1792,6.2102,6.2166,6.1893,6.1056,6.1017,6.238,6.2263,6.1998,6.1732,6.1073,6.1073,6.2057,6.1193,6.0771,6.0986,6.0776,6.0505,6.0352,5.8843,5.8786,6.0091,5.8758,0.0,5.8958,5.99,5.903,5.6875,5.7718,5.6951,5.4948,5.3774,5.3247,5.3108,5.1792,5.0968,5.0455,4.9805,4.9589,4.9621,5.0078,5.0348,5.0341,4.9699,4.927,4.8972,4.8831,4.8285,0.0,4.7661,4.7508,4.7355,4.7355,4.7355,4.7177,4.6269,4.6058,4.5499,4.3415,4.3023,4.2683,4.1533,4.1274,4.1198,4.1198,4.0795,4.0465,4.0363,3.9927,3.9543,3.9338,3.8469,3.7855,3.7753,3.739,3.7108,3.7108,3.6493,3.5929,3.5513,3.4307,3.3158,3.2082,3.218,3.2117,3.1928,3.1876,3.198,3.2241,3.2345,3.2423,3.2397,3.1073,3.035,0.0,0.0,0.0,0.0,0.0,0.0,0.0,0.0,0.0,0.0,0.0,5.0062,5.1079,0.0,5.5897,5.8231,6.0565,6.2331,6.2959,6.3318,6.3169,6.2211,6.2111,6.238,6.3021,6.3079,6.3021,6.2847,6.2676,6.2647,6.2847,6.2676,6.2411,6.2087,6.2087,6.1615,6.0613,5.9974,5.9741,6.0119,5.9741,5.9974,6.0584,6.0584,5.9706,5.8165,5.7823,5.6994,5.5851,5.5432,5.5126,5.4811,5.392,5.2883,5.1764,5.1404,5.1127,5.0879,5.112,5.1601,5.1966,5.1337,5.1299,5.1461,5.0822,4.9989,4.9245,4.8881,4.8396,4.8016,4.8016,4.8016,4.7712,4.6687,4.6374,4.5787,4.3467,4.3023,4.2683,4.1533,4.1324,4.1324,4.1324,4.1073,4.0818,4.0508,3.999,3.9524,3.9214,3.839,3.7873,3.7873,3.7686,3.7505,3.7505,3.6988,3.6392,3.5841,3.5038,3.4224,3.3424,3.3316,3.3097,3.2698,3.2906,3.3062,3.3143,3.3404,3.3535,3.3535,3.3126,3.2488,0.0,0.0,0.0,0.0,0.0,0.0,0.0,4.9344,5.0002,5.1272,5.2636,5.3862,5.497,5.6645,5.8441,6.0176,6.2032,6.3378,6.3767,6.3917,6.3588,6.2421,6.275,6.3079,6.3079,6.3079,6.3079,6.3079,6.3528,6.3588,6.3109,6.3558,6.3528,6.2899,6.2899,6.208,6.0297,6.0687,6.042,5.9509,6.042,6.1343,6.2091,6.085,6.0005,5.9479,5.7426,5.6508,5.6468,5.6816,5.6974,5.6989,5.606,5.4848,5.3542,5.3154,5.2677,5.2195,5.2184,5.2819,5.3464,5.2916,5.3293,5.3803,5.2725,5.1698,5.0798,5.0106,4.9288,4.8617,4.8617,4.8617,4.8346,4.728,4.7023,4.6411,4.4115,4.3463,4.2966,4.1808,4.1448,4.1324,4.1324,4.1324,4.1115,4.0514,3.9965,3.939,3.8789,3.824,3.79,3.79,3.79,3.79,3.79,3.7456,3.6933,3.6305,3.5861,3.5365,3.4763,3.4319,3.3849,3.3352,3.3822,3.4084,3.4084,3.4528,3.4737,3.4737,3.4737,3.411,4.4796,4.5065,4.6531,4.8267,4.9254,5.0704,0.0,5.479,5.479,5.6077,5.7393,5.8381,5.853,5.9727,6.0924,6.1732,6.3019,6.3737,6.3258,6.3647,6.3737,6.3049,6.3019,6.3079,6.3079,6.3079,6.3079,6.3079,6.3139,6.3139,6.3079,6.3139,6.2869,6.2241,6.2211,6.1825,6.0999,6.048,6.045,6.088,6.042,6.0864,6.2061,6.1294,6.0939,6.076,5.8748,5.7553,5.6997,5.6474,5.6585,5.7094,5.6989,5.6772,5.6413,5.4788,5.4153,5.4081,5.3963,5.3982,5.4082,5.4022,5.3704,5.3264,5.3114,5.2617,5.1846,5.119,5.0917,5.087,5.087,5.087,5.0555,4.9513,4.9268,4.86,4.6273,4.5056,4.408,4.289,4.1918,4.1324,4.1324,4.1324,4.1115,4.0514,3.9965,3.939,3.8789,3.824,3.79,3.79,3.79,3.79,3.79,3.7848,3.7534,3.6933,3.6854,3.6541,3.594,3.5861,3.5783,3.573,3.5783,3.5835,3.5835,3.5887,3.5913,3.5913,3.5913,3.5286,4.8416,4.9015,5.0122,5.1738,5.3204,5.476,5.6825,5.7393,5.7723,5.865,5.9608,6.0266,6.0266,6.1044,6.1912,6.257,6.3408,6.4036,6.4186,6.4096,6.3767,6.3139,6.3079,6.3079,6.3079,6.3408,6.3468,6.3109,6.3079,6.2899,6.254,6.2151,6.1822,6.1523,6.1523,6.1194,6.0505,6.0236,6.0236,6.0505,6.0206,6.0595,6.1493,6.0835,6.0086,5.9308,5.8052,5.7154,5.6496,5.5867,5.6196,5.7094,5.7094,5.7334,5.755,5.6361,5.5493,5.4864,5.4818,5.479,5.473,5.4341,5.4281,5.4132,5.2965,5.2695,5.2546,5.1498,5.1229,5.1229,5.1229,5.1229,5.0917,4.9883,4.9611,4.8971,4.6615,4.5748,4.5142,4.3923,4.3321,4.306,4.306,4.2577,4.1999,4.1336,4.0324,3.939,3.8789,3.824,3.79,3.79,3.79,3.79,3.79,3.79,3.7795,3.7534,3.7534,3.7246,3.6645,3.6619,3.6462,3.6123,3.6096,3.6096,3.6096,3.6096,3.6096,3.6096,3.6096,3.5835,5.0421,5.1708,5.3084,5.4431,5.6346,5.8141,5.9009,5.9578,6.0057,6.0535,6.1044,6.1343,6.1134,6.1642,6.2241,6.272,6.3468,6.4126,6.4455,6.4066,6.3498,6.2869,6.266,6.26,6.278,6.3378,6.3558,6.3109,6.2899,6.26,6.2121,6.1463,6.1014,6.0835,6.0835,6.0505,5.9817,5.9817,5.9817,5.9817,5.9817,6.0176,6.0805,6.0326,5.9368,5.8082,5.7393,5.6735,5.6188,5.5658,5.6107,5.7094,5.7094,5.7393,5.7752,5.7094,5.6256,5.5448,5.5239,5.5059,5.485,5.4371,5.4521,5.461,5.2965,5.2785,5.2935,5.1798,5.1349,5.1229,5.1229,5.1229,5.1011,5.022,5.0028,4.9455,4.7434,4.6766,4.6205,4.4957,4.4499,4.4312,4.4312,4.3701,4.306,4.2649,4.1464,4.0186,3.8836,3.824,3.79,3.79,3.79,3.79,3.79,3.79,3.79,3.79,3.79,3.7717,3.7273,3.7246,3.7037,3.6619,3.6593,3.6593,3.6593,3.6593,3.6593,3.6593,3.6593,3.6593,4.9359,5.1678,5.4461,5.5777,5.8082,6.0326,6.1672,6.2002,6.2002,6.2032,6.2061,6.1882,6.1224,6.1642,6.2121,6.2121,6.3169,6.3797,6.3228,6.3109,6.2869,6.2211,6.1553,6.1433,6.2061,6.272,6.3109,6.3079,6.248,6.2121,6.2091,6.1463,6.0805,6.0146,6.0116,5.9787,5.9129,5.9129,5.9129,5.9129,5.9129,5.9488,6.0116,6.0086,5.9368,5.8082,5.7393,5.6735,5.6218,5.6188,5.6526,5.7094,5.7094,5.7094,5.7064,5.6436,5.6218,5.6098,5.5418,5.476,5.4251,5.4221,5.4221,5.4102,5.3384,5.3174,5.3025,5.2366,5.1708,5.1229,5.1229,5.1229,5.1182,5.1182,5.1152,5.0794,4.9508,4.845,4.7346,4.604,4.4961,4.4312,4.4312,4.4266,4.4266,4.4238,4.3676,4.215,3.9122,3.824,3.79,3.79,3.79,3.79,3.79,3.79,3.79,3.79,3.79,3.79,3.7874,3.7874,3.7874,3.7848,3.7848,3.7848,3.7848,3.7848,3.7848,3.7848,3.7848,3.7848,5.2486,5.464,5.6645,5.889,6.0446,6.1642,6.254,6.2421,6.2091,6.2091,6.1044,6.0057,5.9817,5.9967,6.0416,6.1313,6.2181,6.2959,6.3588,6.3677,6.3139,6.1613,6.2032,6.1972,6.0864,6.1762,6.2421,6.2421,6.1822,6.1253,6.0775,6.0146,5.9668,5.9428,5.9428,5.9338,5.9099,5.9099,5.9099,5.9099,5.9099,5.9219,5.9428,5.8979,5.8291,5.7393,5.6765,5.6107,5.5538,5.5538,5.5897,5.6466,5.6466,5.6466,5.6466,5.6256,5.5948,5.5478,5.5269,5.5029,5.473,5.3832,5.4132,5.4581,5.2995,5.2845,5.3054,5.2396,5.1738,5.1229,5.1229,5.1229,5.1229,5.1229,5.1229,5.099,5.0092,4.9326,4.8534,4.7644,4.6845,4.6284,4.6284,4.5763,4.5137,4.4707,4.3567,4.2081,3.9968,3.9167,3.8549,3.7946,3.79,3.79,3.79,3.79,3.79,3.79,3.79,3.79,3.79,3.79,3.79,3.79,3.79,3.79,3.79,3.79,3.79,3.79,3.79,3.79,5.4999,5.7004,5.868,6.0924,6.1972,6.251,6.269,6.2391,6.1882,6.1164,5.9608,5.8321,5.8082,5.7663,5.8022,6.0057,6.0954,6.2002,6.3737,6.3797,6.3199,6.1972,6.2151,6.1972,6.0894,6.1164,6.1583,6.2061,6.1493,6.0924,6.0475,5.9608,5.9099,5.9099,5.9099,5.9099,5.9099,5.9099,5.9099,5.9099,5.9099,5.8979,5.874,5.8321,5.7633,5.6735,5.6346,5.5807,5.5209,5.5448,5.5777,5.6218,5.6218,5.6218,5.6188,5.5897,5.5568,5.5179,5.5179,5.5179,5.497,5.3623,5.4102,5.485,5.3084,5.2845,5.3084,5.2665,5.1917,5.1229,5.1229,5.1229,5.1229,5.1229,5.1229,5.105,5.0345,4.9733,4.912,4.8416,4.7758,4.7309,4.7309,4.677,4.6197,4.5742,4.4443,4.2938,4.1395,4.0316,3.9475,3.8908,3.8863,3.8756,3.8395,3.8349,3.8239,3.79,3.79,3.79,3.79,3.79,3.79,3.79,3.79,3.79,3.79,3.79,3.79,3.79,3.79,3.79,5.6705,5.868,6.0505,6.1822,6.26,6.2839,6.2181,6.2002,6.1373,5.9398,5.7842,5.6645,5.6128,5.497,5.5209,5.8381,5.9608,6.1014,6.3558,6.3468,6.3109,6.3049,6.1942,6.1433,6.2002,6.0894,6.0655,6.1942,6.1403,6.1014,6.1014,5.9787,5.9099,5.9099,5.9099,5.9099,5.9099,5.9099,5.9099,5.9099,5.9069,5.874,5.8112,5.8052,5.7334,5.6218,5.6188,5.5777,5.5239,5.5867,5.6188,5.6188,5.6188,5.6188,5.6047,5.5418,5.5179,5.5179,5.5179,5.5179,5.497,5.3623,5.4102,5.494,5.3593,5.3174,5.3174,5.3174,5.2247,5.1229,5.1229,5.1229,5.1229,5.1229,5.1199,5.0973,5.0375,4.9733,4.909,4.8446,4.7788,4.7309,4.7309,4.7309,4.7309,4.7309,4.6202,4.4805,4.3248,4.1667,4.0646,4.0603,4.0603,4.026,3.9343,3.9299,3.8881,3.8037,3.7992,3.7946,3.79,3.79,3.79,3.79,3.79,3.79,3.79,3.79,3.79,3.79,3.79,3.7926,5.853,6.0416,6.1792,6.26,6.26,6.2181,6.1523,6.0595,5.9428,5.7932,5.5388,5.3384,5.3234,5.3324,5.4042,5.5897,5.88,6.1253,6.2421,6.3258,6.3408,6.245,6.248,6.2241,6.1433,6.1044,6.0984,6.1343,6.0266,5.9608,5.9608,5.9308,5.9099,5.9099,5.9099,5.9099,5.9099,5.9099,5.9099,5.9099,5.859,5.8291,5.8082,5.7124,5.6496,5.6188,5.5658,5.5359,5.5209,5.5359,5.5448,5.5448,5.5448,5.5448,5.5418,5.5239,5.5179,5.5179,5.5179,5.5179,5.497,5.3623,5.4102,5.494,5.3593,5.3174,5.3174,5.3174,5.2247,5.1229,5.1229,5.1229,5.1229,5.1229,5.084,5.0524,5.0853,4.9673,4.8626,4.9,4.8087,4.7309,4.7309,4.7309,4.7309,4.7309,4.6591,4.5446,4.386,4.2476,4.1394,4.0689,4.0603,4.0518,4.026,4.026,3.9869,3.8926,3.8881,3.8594,3.7946,3.79,3.79,3.79,3.79,3.79,3.79,3.79,3.79,3.79,3.79,3.8109,6.0296,6.1732,6.26,6.2989,6.26,6.1613,5.9787,5.856,5.7094,5.461,5.2157,5.0571,5.087,5.099,5.1947,5.473,5.7782,6.0446,6.2271,6.3378,6.3737,6.3019,6.3019,6.278,6.2061,6.1463,6.1104,6.1104,6.0146,5.9548,5.9548,5.9249,5.9099,5.9099,5.9099,5.9099,5.9099,5.883,5.868,5.865,5.7992,5.7513,5.7244,5.6496,5.6068,5.5718,5.5359,5.5179,5.5179,5.5179,5.5179,5.5179,5.5179,5.5179,5.5179,5.5179,5.5179,5.5179,5.5179,5.5179,5.497,5.3623,5.3892,5.4521,5.3144,5.2965,5.3114,5.2845,5.2217,5.1588,5.1289,5.1229,5.1229,5.1229,5.0883,5.0644,5.0734,4.9912,4.9075,4.8865,4.8237,4.7638,4.7369,4.7309,4.7219,4.692,4.6292,4.5555,4.4604,4.3914,4.3148,4.2328,4.2215,4.1974,4.1268,4.1197,4.0817,3.9869,3.9826,3.9607,3.9131,3.9087,3.8908,3.8485,3.8485,3.8258,3.79,3.79,3.79,3.7926,3.8135,3.8292,6.1852,6.266,6.3079,6.3079,6.251,6.1104,5.7723,5.6406,5.479,5.081,4.8925,4.8267,4.906,4.87,4.9763,5.4311,5.6705,5.9129,6.2361,6.3348,6.3767,6.3857,6.3408,6.3079,6.3079,6.1972,6.1224,6.1134,6.0475,6.0057,5.9967,5.9428,5.9099,5.9099,5.9099,5.9099,5.9099,5.853,5.8201,5.8112,5.7423,5.6765,5.6218,5.6077,5.5718,5.5179,5.5179,5.5179,5.5179,5.5179,5.5179,5.5179,5.5179,5.5179,5.5179,5.5179,5.5179,5.5179,5.5179,5.5179,5.497,5.3713,5.3713,5.3982,5.2725,5.2665,5.2935,5.2366,5.2127,5.1947,5.1379,5.1229,5.1229,5.1229,5.1139,5.0883,5.0315,5.0136,4.9687,4.8416,4.8237,4.8087,4.7429,4.7309,4.71,4.6488,4.5873,4.5454,4.5544,4.5334,4.4975,4.4496,4.4377,4.3753,4.2427,4.2199,4.1769,4.0859,4.0774,4.0731,4.0603,4.0603,4.0216,3.9431,3.9387,3.897,3.8057,3.8057,3.8037,3.7926,3.8397,3.8397,6.254,6.2989,6.3079,6.3079,6.2181,6.0416,5.7094,5.5418,5.3414,4.9434,4.7578,4.704,4.8237,4.8356,4.9613,5.3713,5.6017,5.8261,6.1074,6.2002,6.263,6.3169,6.3139,6.3079,6.3079,6.2391,6.1702,6.1164,6.0475,5.9847,5.9308,5.9159,5.9099,5.9099,5.9099,5.9099,5.9099,5.8979,5.865,5.8112,5.7423,5.6765,5.6188,5.5598,5.5299,5.5179,5.5179,5.5179,5.5179,5.5179,5.5179,5.5179,5.5179,5.5179,5.5179,5.5179,5.5179,5.5179,5.5179,5.5179,5.5059,5.4281,5.4102,5.4072,5.3264,5.2725,5.2336,5.2247,5.1798,5.1379,5.1259,5.1229,5.1229,5.1229,5.0764,5.0315,5.0226,4.9823,4.9045,4.7728,4.7908,4.8087,4.7429,4.7309,4.7279,4.716,4.6561,4.6352,4.689,4.5514,4.4646,4.5065,4.4646,4.4176,4.3935,4.3388,4.2699,4.1811,4.1769,4.1436,4.0646,4.0603,4.0518,4.0389,4.0389,3.9913,3.8944,3.8944,3.8594,3.79,3.8004,3.824,6.281,6.3318,6.3468,6.3169,6.1822,5.9548,5.5538,5.3324,5.093,4.6591,4.5214,4.5024,4.6052,4.68,4.8237,5.1169,5.2995,5.5209,5.856,5.9608,6.0655,6.2361,6.2869,6.3079,6.3079,6.2181,6.1463,6.1134,6.0146,5.9428,5.9129,5.9099,5.9099,5.9099,5.9099,5.9099,5.9099,5.8411,5.7902,5.7573,5.6585,5.5957,5.5658,5.5329,5.5179,5.5179,5.5179,5.5179,5.5179,5.5179,5.5179,5.5179,5.5179,5.5179,5.5179,5.5179,5.5179,5.5179,5.5179,5.5179,5.5149,5.482,5.4491,5.4012,5.2995,5.2695,5.2576,5.1887,5.1708,5.1648,5.1319,5.1229,5.1229,5.1229,5.0674,5.0285,5.0644,4.9972,4.9164,4.8895,4.8536,4.8177,4.7878,4.7519,4.7189,4.686,4.6531,4.6322,4.6262,4.5723,4.5484,4.5813,4.5544,4.5214,4.4855,4.4526,4.4184,4.3744,4.3702,4.3537,4.3047,4.3047,4.2807,4.2339,4.231,4.1864,4.0941,4.0941,4.0476,3.9573,3.9847,3.97,6.266,6.3318,6.3677,6.3199,6.1583,5.886,5.4221,5.1648,4.888,4.4246,4.329,4.3529,4.4377,4.5274,4.6621,4.894,5.0122,5.2217,5.6316,5.7603,5.9129,6.1792,6.266,6.3019,6.2869,6.1942,6.1194,6.0924,5.9787,5.9099,5.9099,5.9099,5.9099,5.9099,5.9099,5.9099,5.9099,5.8052,5.7363,5.7094,5.6077,5.5448,5.5179,5.5179,5.5179,5.5179,5.5179,5.5179,5.5179,5.5179,5.5179,5.5179,5.5179,5.5179,5.5179,5.5179,5.5179,5.5179,5.5179,5.5179,5.5179,5.5179,5.476,5.4012,5.2965,5.2785,5.2755,5.1708,5.1708,5.1858,5.1349,5.1229,5.1229,5.1229,5.0674,5.0345,5.0853,5.0212,4.9553,4.9763,4.9224,4.8566,4.8147,4.7758,4.7309,4.6621,4.6369,4.6172,4.5783,4.6082,4.6279,4.6279,4.6279,4.6112,4.5574,4.5364,4.5304,4.5304,4.5304,4.5304,4.5304,4.5304,4.4941,4.4206,4.4206,4.3777,4.2858,4.2858,4.2279,4.1121,4.1536,4.0971,6.1822,6.266,6.3139,6.3079,6.1583,5.886,5.4221,5.1648,4.888,4.4246,4.329,4.3678,4.4975,4.4825,4.5544,4.879,4.9419,5.1096,5.5649,5.7334,5.9129,6.1792,6.266,6.2839,6.2241,6.2061,6.1493,6.0266,5.9518,5.9099,5.9099,5.9099,5.9099,5.9099,5.9099,5.9099,5.9099,5.8979,5.8291,5.7094,5.6974,5.6316,5.5179,5.5179,5.5179,5.5179,5.5179,5.5179,5.5179,5.5179,5.5179,5.5179,5.5179,5.5179,5.5179,5.5179,5.5179,5.5179,5.5179,5.5179,5.5179,5.5179,5.476,5.4192,5.4072,5.3204,5.2276,5.2127,5.1708,5.1289,5.1229,5.1229,5.1229,5.1229,5.0674,5.0196,5.0255,5.0196,4.9777,4.8686,4.9314,4.9448,4.7698,4.7848,4.7967,4.7309,4.6711,4.6531,4.707,4.6651,4.6279,4.6279,4.6279,4.6249,4.619,4.5663,4.5304,4.5304,4.5304,4.5304,4.5304,4.5304,4.5263,4.515,4.515,4.4702,4.3791,4.3791,4.2874,4.1121,4.1175,4.0596,6.1613,6.2839,6.3528,6.3169,6.1283,5.8381,5.4132,5.1349,4.8446,4.4157,4.329,4.3439,4.4018,4.3898,4.4287,4.5992,4.5963,4.7189,5.1456,5.2815,5.4889,5.9189,6.0296,6.1044,6.2002,6.1373,6.0655,6.0116,5.9847,5.9877,6.0296,5.9548,5.9099,5.9099,5.9099,5.9099,5.9099,5.871,5.8052,5.7094,5.6705,5.6077,5.5179,5.5179,5.5179,5.5179,5.5179,5.5179,5.5179,5.5179,5.5179,5.5179,5.5179,5.5179,5.5179,5.5179,5.5179,5.5179,5.5179,5.5179,5.5179,5.5179,5.5029,5.473,5.4341,5.3832,5.3234,5.2426,5.2007,5.1708,5.1319,5.1229,5.1229,5.1229,5.102,5.0794,5.0794,5.0465,5.0166,5.0092,4.9523,4.9075,4.9075,4.8297,4.7728,4.7878,4.7339,4.686,4.6741,4.683,4.677,4.6309,4.6681,4.6741,4.6309,4.6441,4.6501,4.6501,4.6501,4.6501,4.6501,4.6501,4.6501,4.6501,4.6501,4.633,4.5957,4.5957,4.4935,4.3027,4.3027,4.2161,6.0805,6.245,6.3348,6.2899,6.0625,5.7513,5.3743,5.072,4.7668,4.4037,4.329,4.329,4.329,4.329,4.3439,4.3958,4.3958,4.5095,4.8506,4.9883,5.2079,5.6436,5.7723,5.886,6.0475,6.0116,5.9787,5.9787,5.9967,6.0206,6.0505,5.9817,5.9398,5.9398,5.9189,5.9099,5.9099,5.865,5.7962,5.7094,5.6645,5.6017,5.5179,5.5179,5.5179,5.5179,5.5179,5.5179,5.5179,5.5179,5.5179,5.5179,5.5179,5.5179,5.5179,5.5179,5.5179,5.5179,5.5179,5.5179,5.5179,5.5179,5.5179,5.5089,5.464,5.4371,5.3982,5.2815,5.2217,5.1798,5.1349,5.1229,5.1229,5.1229,5.1229,5.1229,5.1229,5.0794,5.0554,5.0823,4.9972,4.9254,4.9613,4.8835,4.8117,4.8027,4.7758,4.7369,4.6711,4.701,4.704,4.6339,4.692,4.713,4.6651,4.704,4.7309,4.7309,4.7309,4.7309,4.7309,4.7309,4.7309,4.7309,4.7309,4.7309,4.7309,4.7309,4.6417,4.473,4.473,4.3654,5.9039,6.1104,6.2121,6.2121,5.9608,5.6256,5.2965,4.9673,4.6561,4.3858,4.329,4.329,4.329,4.329,4.329,4.329,4.4436,4.5992,4.7997,4.9972,5.1977,5.4012,5.5418,5.6436,5.7094,5.8351,5.9129,5.9129,5.9727,5.9787,5.9159,5.9727,6.0086,6.0086,5.9458,5.9099,5.9099,5.9099,5.8411,5.7094,5.7094,5.6406,5.5179,5.5179,5.5179,5.5179,5.5179,5.5179,5.5179,5.5179,5.5179,5.5179,5.5179,5.5179,5.5179,5.5179,5.5179,5.5179,5.5179,5.5179,5.5179,5.5179,5.5179,5.5179,5.5179,5.473,5.4072,5.3354,5.2247,5.1229,5.1229,5.1229,5.1229,5.1229,5.1229,5.1229,5.1229,5.1199,5.102,5.0315,5.0704,5.0571,4.8626,4.9374,4.9508,4.7608,4.7878,4.8027,4.7369,4.7309,4.704,4.6339,4.692,4.7309,4.7309,4.7309,4.7309,4.7309,4.7309,4.7309,4.7309,4.7309,4.7309,4.7309,4.7309,4.7309,4.7309,4.7309,4.677,4.5779,4.5779,4.4702,5.4251,5.6346,5.7842,5.6944,5.5568,5.3683,5.084,4.8686,4.6561,4.3828,4.329,4.329,4.329,4.329,4.3589,4.4526,4.5035,4.5843,4.7399,4.9314,5.1242,5.3264,5.6286,5.8261,5.8441,5.886,5.9279,5.9727,5.9967,6.0206,6.0475,6.0236,5.9877,5.9428,5.9219,5.889,5.8441,5.889,5.8201,5.6466,5.6885,5.6436,5.5179,5.5179,5.5179,5.5179,5.5179,5.5179,5.5179,5.5179,5.5179,5.5179,5.5179,5.5179,5.5179,5.5179,5.5179,5.5179,5.5179,5.5179,5.5179,5.5179,5.5179,5.5179,5.5179,5.5029,5.464,5.3503,5.2247,5.1229,5.1229,5.1229,5.1229,5.1229,5.1229,5.1229,5.1229,5.1229,5.1169,5.0913,5.0674,5.0435,5.0331,4.9883,4.9374,4.8745,4.8446,4.8057,4.7399,4.7309,4.7219,4.701,4.7189,4.713,4.6681,4.704,4.7309,4.7309,4.7309,4.7309,4.7309,4.7309,4.7309,4.7309,4.7309,4.7309,4.7309,4.7309,4.677,4.5779,4.5098,4.405,5.1618,5.3593,5.485,5.4012,5.2935,5.1439,4.9075,4.7309,4.5633,4.3678,4.329,4.329,4.329,4.329,4.3559,4.4436,4.4975,4.5574,4.6441,4.8476,5.069,5.2905,5.5807,5.7812,5.8291,5.88,5.9279,5.9668,5.9937,6.0176,6.0356,5.9937,5.9518,5.9129,5.886,5.853,5.8112,5.8261,5.7603,5.6218,5.6555,5.6196,5.5179,5.5179,5.5179,5.5179,5.5179,5.5179,0.0,5.5179,5.5179,5.5179,5.5179,5.5179,5.5179,5.5179,5.5179,5.5179,5.5179,5.5179,5.5179,5.5179,5.5179,5.5149,5.491,5.464,5.4221,5.3114,5.2037,5.1229,5.1229,5.1229,5.1229,5.1229,5.1229,5.1229,5.1229,5.1229,5.1229,5.1229,5.0853,5.0614,5.0764,5.0391,4.9823,4.9389,4.897,4.8506,4.8087,4.7818,4.7668,4.7668,4.7668,4.7399,4.6741,4.707,4.7309,4.7309,4.7309,4.7309,4.7309,4.7309,4.7309,4.7309,4.7309,4.7309,4.7309,4.7309,4.6975,4.6344,4.5326,4.4517,0.0,5.2157,5.2665,5.2576,5.1199,4.9359,4.7519,4.5663,0.0,4.3439,4.329,4.329,4.3349,4.3319,4.3349,4.3469,4.4556,4.5394,4.5424,4.7758,5.0497,5.3144,5.461,5.5867,5.7124,5.8381,5.9099,5.9099,5.9668,5.9727,5.9069,5.9039,5.9009,5.8949,5.8321,5.8022,5.8052,5.7423,5.6765,5.6158,5.6188,5.5837,5.5179,5.5179,5.5179,5.5179,5.5179,5.5179,5.5179,5.5179,5.5179,5.5179,5.5179,5.5179,5.5179,5.5179,5.5179,5.5179,5.5179,5.5179,5.5179,5.5179,5.5149,5.4999,5.4341,5.3683,5.3054,5.2396,5.1738,5.1229,5.1229,5.1229,5.1229,5.1229,5.1229,5.1229,5.1229,5.1229,5.1229,5.1229,5.1229,5.102,5.0375,5.0764,5.078,4.9569,4.9389,4.9359,4.9329,4.8745,4.8356,4.8356,4.8356,4.8117,4.7489,4.7369,4.7309,4.7309,4.7309,4.7309,4.7309,4.7309,4.7309,4.7309,4.7309,4.7309,4.7309,4.7309,4.7309,4.7266,4.6403,4.5956,4.5723,0.0,4.7698,4.6651,4.6411,4.6202,0.0,4.4646,4.4137,4.3439,4.329,4.3439,4.3947,4.3648,4.3798,4.5323,4.5873,4.6262,4.677,4.9523,5.2665,5.5807,5.6915,5.7752,5.856,5.8919,5.9099,5.9099,5.9249,5.9039,5.8381,5.8351,5.8112,5.7573,5.6944,5.6855,5.7334,5.7184,5.6526,5.5418,5.5927,5.5837,5.5179,5.5179,5.5179,5.5179,5.5179,5.5179,5.5179,5.5179,5.5179,5.5179,5.5179,5.5179,5.5179,5.5179,5.5179,5.5179,5.5179,5.5179,5.5179,5.5179,5.485,5.4311,5.3623,5.3294,5.3054,5.2396,5.1738,5.1229,5.1229,5.1229,5.1229,5.1229,5.1229,5.1229,5.1229,5.1229,5.1229,5.1229,5.1229,5.1169,5.102,5.1109,5.093,5.0122,5.0002,4.9823,4.9389,4.9179,4.909,4.909,4.909,4.903,4.885,4.7878,4.7309,4.7309,4.7309,4.7309,4.7309,4.7309,4.7309,4.7309,4.7309,4.7309,4.7309,4.7309,4.7309,4.7309,4.7568,4.7287,4.3738,4.4825,4.5693,4.4945,4.5035,4.5125,4.4466,4.4077,4.3688,4.303,4.312,4.3319,4.3419,4.3629,4.4137,4.5214,4.5891,4.6937,4.8835,5.1139,5.3743,5.6735,5.7693,5.8381,5.9039,5.9099,5.8979,5.868,5.865,5.8351,5.7693,5.7393,5.7184,5.7094,5.6196,5.6017,5.6675,5.6376,5.5867,5.5179,5.5538,5.5538,5.5179,5.5179,5.5179,5.5179,5.5179,5.5179,5.5179,5.5179,5.5179,5.5179,5.5179,5.5179,5.5179,5.5179,5.5179,5.5179,5.5179,5.5179,5.5179,5.5179,5.476,5.4072,5.3384,5.2965,5.2606,5.1947,5.1498,5.1229,5.1229,5.1229,5.1229,5.1229,5.1229,5.1229,5.1229,5.1229,5.1229,5.1229,5.1229,5.1229,5.1229,5.1229,5.1109,5.0704,5.0375,5.0166,5.0152,4.9912,4.9703,4.9703,4.9703,4.9583,4.9329,4.8327,4.7878,4.8177,4.7908,4.7758,4.7758,4.7459,4.7309,4.7309,4.7608,4.7758,4.7758,4.8057,4.8207,4.8207,4.8566,4.8447,4.3409,4.4436,4.5394,4.5065,4.5065,4.4975,4.4317,4.3708,4.314,4.2611,4.294,4.321,4.28,4.3569,4.4407,4.4736,4.595,4.7953,5.1079,5.2665,5.4341,5.6675,5.7633,5.8291,5.877,5.88,5.856,5.8022,5.7962,5.7663,5.7004,5.6466,5.6376,5.6795,5.5748,5.5448,5.6068,5.5478,5.5179,5.5179,5.5179,5.5179,5.5179,5.5179,5.5179,5.5179,5.5179,5.5179,5.5179,5.5179,5.5179,5.5179,5.5179,5.5179,5.5179,5.5179,5.5179,5.5179,5.5179,5.5179,5.5179,5.5179,5.467,5.3952,5.3354,5.2665,5.1947,5.1379,5.1229,5.1229,5.1229,5.1229,5.1229,5.1229,5.1229,5.1229,5.1229,5.1229,5.1229,5.1229,5.1229,5.1229,5.1229,5.1229,5.1229,5.1229,5.0704,5.0554,5.1139,5.0674,5.0345,5.0345,5.0345,5.0182,4.9613,4.9045,4.8985,4.9569,4.8656,4.8177,4.8297,4.7848,4.7608,4.7608,4.8147,4.8446,4.8446,4.903,4.9299,4.9299,4.9419,4.9404,4.4018,4.5155,4.5753,4.4007,4.4007,4.4287,4.3589,4.3349,4.326,4.317,4.323,4.3439,4.3928,4.4167,4.4855,4.6561,4.8372,5.0345,5.2576,5.4042,5.5239,5.6196,5.7393,5.7932,5.7453,5.7393,5.7363,5.7244,5.7244,5.6974,5.6346,5.6278,5.5957,5.5508,5.5299,5.5239,5.5329,5.5239,5.5179,5.5179,5.5179,5.5179,5.5179,5.5179,5.5179,5.5179,5.5179,5.5179,5.5179,5.5179,5.5179,5.5179,5.5179,5.5179,5.5179,5.5179,5.5179,5.5179,5.5179,5.5179,5.5179,5.5179,5.4341,5.3324,5.3204,5.2336,5.1349,5.1259,5.1229,5.1229,5.1229,5.1229,5.1229,5.1229,5.1229,5.1229,5.1229,5.1229,5.1229,5.1229,5.1229,5.1229,5.1229,5.1229,5.1229,5.1229,5.1139,5.1063,5.1199,5.1139,5.1079,5.1079,5.1079,5.102,5.093,5.081,5.081,5.09,4.8745,4.7698,4.8267,4.876,4.9,4.9,4.912,4.9179,4.9179,4.9269,4.9299,4.9329,4.9823,5.0046,4.3599,4.4186,4.4605,4.4436,4.5155,4.5753,4.5053,4.4605,4.4287,4.3928,4.4137,4.4377,4.4317,4.5484,4.71,4.9105,5.0481,5.1858,5.3503,5.4581,5.5568,5.6555,5.7184,5.7453,5.7124,5.7094,5.6944,5.6615,5.6585,5.6316,5.5688,5.5658,5.5508,5.5209,5.5179,5.5179,5.5179,5.5179,5.5179,5.5179,5.5179,5.5179,5.5179,5.5179,5.5179,5.5179,5.5179,5.5179,5.5179,5.5179,5.5179,5.5179,5.5179,5.5179,5.5179,5.5179,5.5179,5.5179,5.5179,5.5179,5.5179,5.5179,5.4521,5.3743,5.3743,5.2815,5.1738,5.1738,5.1498,5.1229,5.1229,5.1229,5.1229,5.1229,5.1229,5.1229,5.1229,5.1229,5.1229,5.1229,5.1229,5.1229,5.1229,5.1229,5.1229,5.1229,5.1229,5.1229,5.1229,5.1229,5.1229,5.1229,5.1229,5.1229,5.1229,5.09,5.0644,5.0644,4.9224,4.8356,4.8297,4.8566,4.8745,4.8745,4.9434,4.9793,4.9793,5.0152,5.0331,5.0331,5.0631,5.0734,4.311,4.3409,4.3838,4.5005,4.6082,4.683,4.68,4.6262,4.5693,4.5514,4.5633,4.5603,4.5095,4.707,4.9344,5.1139,5.2276,5.3324,5.4491,5.5089,5.5718,5.6555,5.6795,5.6825,5.6675,5.6645,5.6436,5.5987,5.6008,5.5718,5.5209,5.5179,5.5179,5.5179,5.5179,5.5179,5.5179,5.5179,5.5179,5.5179,5.5179,5.5179,5.5179,5.5179,5.5179,5.5179,5.5179,5.5179,5.5179,5.5179,5.5179,5.5179,5.5179,5.5179,5.5179,5.5179,5.5179,5.5179,5.5179,5.5179,5.5179,5.5179,5.476,5.4221,5.4221,5.3384,5.2426,5.2426,5.2067,5.1618,5.1289,5.1229,5.1229,5.1229,5.1229,5.1229,5.1229,5.1229,5.1229,5.1229,5.1229,5.1229,5.1229,5.1229,5.1229,5.1229,5.1229,5.1229,5.1229,5.1229,5.1229,5.1229,5.1229,5.1229,5.1229,5.0704,5.0451,5.0497,4.9898,4.9284,4.8775,4.8895,4.8985,4.8985,4.9942,5.0435,5.0435,5.0913,5.1229,5.1229,5.1229,5.1229,4.311,4.3738,4.4407,4.5125,4.5364,4.5903,4.7728,4.7638,4.7489,4.87,4.7967,4.716,4.71,4.8745,5.0495,5.1917,5.3713,5.5239,5.5927,5.6128,5.5897,5.5388,5.5867,5.5987,5.5388,5.5329,5.5299,5.5269,5.5269,5.5239,5.5179,5.5179,5.5179,5.5179,5.5179,5.5179,5.5179,5.5179,5.5179,5.5179,5.5179,5.5179,5.5179,5.5179,5.5179,5.5179,5.5179,5.5179,5.5179,5.5179,5.5179,5.5179,5.5179,5.5179,5.5179,5.5179,5.5179,5.5179,5.5179,5.5179,5.5179,5.5179,5.476,5.4221,5.4221,5.3683,5.3114,5.3114,5.3084,5.2755,5.1528,5.1229,5.1229,5.1229,5.1229,5.1229,5.1229,5.1229,5.1229,5.1229,5.1229,5.1229,5.1229,5.1229,5.1229,5.1229,5.1229,5.1229,5.1229,5.1229,5.1229,5.1229,5.1229,5.1229,5.1229,5.1169,5.1233,5.1466,5.0603,5.0106,5.0046,5.0644,5.102,5.102,5.1109,5.1139,5.1139,5.1199,5.1229,5.1229,5.1229,5.1229,4.2551,4.291,4.3449,4.4915,4.5933,4.695,4.858,4.9015,4.9494,5.081,5.069,5.0212,4.9823,5.0361,5.1409,5.3174,5.476,5.6017,5.6645,5.6406,5.6128,5.5837,5.5658,5.5478,5.5209,5.5179,5.5179,5.5179,5.5179,5.5179,5.5179,5.5179,5.5179,5.5179,5.5179,5.5179,5.5179,5.5179,5.5179,5.5179,5.5179,5.5179,5.5179,5.5179,5.5179,5.5179,5.5179,5.5179,5.5179,5.5179,5.5179,5.5179,5.5179,5.5179,5.5179,5.5179,5.5179,5.5179,5.5179,5.5179,5.5179,5.5179,5.5029,5.482,5.482,5.4341,5.3832,5.3832,5.3503,5.3054,5.2576,5.2426,5.2336,5.1917,5.1828,5.1708,5.1319,5.1229,5.1229,5.1229,5.1229,5.1229,5.1229,5.1229,5.1229,5.1229,5.1229,5.1229,5.1229,5.1229,5.1229,5.1229,5.1229,5.1229,5.1229,5.1229,5.1229,5.1339,5.0785,5.0471,5.0471,5.0711,5.0739,5.0554,5.102,5.1229,5.1229,5.1229,5.1229,5.1229,5.1229,5.1229,4.2021,4.2231,4.283,4.4556,4.5992,4.7519,4.9434,5.0541,5.1618,5.3144,5.2965,5.2306,5.1648,5.1528,5.2187,5.4192,5.5448,5.6466,5.7304,5.6855,5.6376,5.6248,5.5957,5.5628,5.5239,5.5388,5.5418,5.5209,5.5179,5.5179,5.5179,5.5179,5.5179,5.5179,5.5179,5.5179,5.5179,5.5179,5.5179,5.5179,5.497,5.4999,5.5179,5.5179,5.5179,5.5179,5.5179,5.5179,5.5179,5.5179,5.5179,5.5179,5.5179,5.5179,5.5179,5.5179,5.5179,5.5179,5.5179,5.5179,5.5179,5.5179,5.5179,5.5149,5.494,5.4551,5.4221,5.4221,5.3862,5.3563,5.3773,5.3503,5.3025,5.2366,5.2187,5.2007,5.1349,5.1229,5.1229,5.1229,5.1229,5.1229,5.1229,5.1229,5.1229,5.1229,5.1229,5.1229,5.1229,5.1229,5.1229,5.1229,5.1229,5.1229,5.1229,5.1229,5.1229,5.1323,5.118,5.1,5.0909,5.0909,5.0863,5.0801,5.1222,5.1416,5.1323,5.1323,5.1276,5.1229,5.1229,5.1229,4.1602,4.1901,4.271,4.3988,4.5334,4.7176,5.0481,5.2247,5.3773,5.5777,5.461,5.2995,5.2336,5.2217,5.2875,5.488,5.5748,5.6645,5.7932,5.7543,5.6885,5.6308,5.6705,5.6585,5.5329,5.5777,5.5897,5.5239,5.5209,5.5209,5.5179,5.5179,5.5179,5.5179,5.5179,5.5179,5.5179,5.5179,5.5179,5.5179,5.4521,5.4551,5.5179,5.5179,5.5179,5.5179,5.5179,5.5179,5.5179,5.5179,5.5179,5.5179,5.5179,5.5179,5.5179,5.5179,5.5179,5.5179,5.5179,5.5179,5.5179,5.5179,5.5179,5.5059,5.4401,5.4221,5.4192,5.4192,5.4192,5.4341,5.4999,5.4192,5.3025,5.2366,5.2217,5.2037,5.1379,5.1229,5.1229,5.1229,5.1229,5.1229,5.1229,5.1229,5.1229,5.1229,5.1229,5.1229,5.1229,5.1229,5.1229,5.1229,5.1229,5.1229,5.1229,5.1229,5.1323,5.1602,5.1834,5.191,5.1618,5.1618,5.1741,5.2002,5.2002,5.188,5.1572,5.1572,5.1463,5.1229,5.1229,5.1229,4.0876,4.1833,4.324,4.4107,4.6668,4.9538,5.1468,5.2935,5.461,5.7034,5.6346,5.494,5.3832,5.3982,5.4491,5.5089,5.6526,5.7693,5.8082,5.7962,5.7573,5.6885,5.6585,5.6466,5.6526,5.6316,5.6128,5.5948,5.5867,5.5688,5.5209,5.5179,5.5179,5.5179,5.5179,5.5179,5.5179,5.5179,5.497,5.4491,5.4311,5.4551,5.5149,5.4221,5.4042,5.4461,5.3982,5.4042,5.4551,5.4999,5.5179,5.5179,5.5179,5.5179,5.5179,5.5179,5.5179,5.5179,5.5179,5.5179,5.5179,5.5179,5.488,5.4461,5.4281,5.3862,5.3503,5.3503,5.3503,5.3653,5.4311,5.4192,5.3862,5.3653,5.3234,5.2725,5.2067,5.1558,5.1229,5.1229,5.1229,5.1229,5.1229,5.1229,5.1229,5.1229,5.1229,5.1229,5.1229,5.1229,5.1229,5.1229,5.1618,5.1917,5.1917,5.1917,5.1965,5.2012,5.1656,5.1556,5.188,5.1987,5.2033,5.2002,5.2002,5.1956,5.188,5.188,5.1741,5.1509,5.1944,5.206,4.1624,4.2821,4.4407,4.5603,4.8087,5.0823,5.3234,5.461,5.5957,5.8082,5.7453,5.6376,5.5867,5.5658,5.5748,5.6286,5.7363,5.8201,5.8471,5.853,5.8261,5.7573,5.7393,5.7274,5.7124,5.7004,5.6735,5.6248,5.6218,5.5777,5.485,5.5059,5.5059,5.482,5.5059,5.5179,5.5179,5.494,5.473,5.4581,5.4072,5.4162,5.476,5.3683,5.3414,5.3773,5.3354,5.3563,5.4251,5.464,5.497,5.5179,5.5179,5.5179,5.5179,5.5179,5.5179,5.5179,5.5179,5.5029,5.479,5.479,5.4341,5.3743,5.3503,5.3114,5.2785,5.2785,5.2785,5.3043,5.41,5.4271,5.4221,5.4221,5.3683,5.2995,5.2336,5.1678,5.1229,5.1229,5.1229,5.1289,5.1558,5.1379,5.1319,5.1558,5.1379,5.1229,5.1229,5.1229,5.1229,5.1229,5.1558,5.1798,5.1798,5.1798,5.1917,5.2187,5.1683,5.163,5.2181,5.2215,5.22,5.2276,5.2276,5.22,5.2109,5.2383,5.232,5.2024,5.2782,5.2989,4.312,4.4317,4.5873,4.7878,4.9494,5.1588,5.5379,5.6667,5.7393,5.88,5.8141,5.7476,5.7932,5.7176,5.6809,5.7805,5.8105,5.8321,5.8913,5.8979,5.877,5.8112,5.856,5.8441,5.7214,5.7663,5.7513,5.6308,5.6218,5.5628,5.4371,5.488,5.491,5.4311,5.488,5.5179,5.5179,5.461,5.4581,5.5089,5.3803,5.3473,5.4012,5.3384,5.3054,5.2995,5.3054,5.3443,5.4042,5.4162,5.4551,5.5089,5.5089,5.5089,5.5089,5.5029,5.4999,5.4999,5.4999,5.461,5.4132,5.4132,5.3653,5.2995,5.2366,5.2157,5.2127,5.2127,5.2157,5.2582,5.4116,5.4409,5.4271,5.4331,5.3822,5.3114,5.2516,5.1828,5.1319,5.1379,5.1349,5.1498,5.2187,5.1798,5.1588,5.2187,5.1738,5.1319,5.1319,5.1259,5.1229,5.1229,5.1259,5.1319,5.1319,5.1319,5.1558,5.2157,5.1824,5.1874,5.2507,5.2167,5.2261,5.27,5.2745,5.2686,5.249,5.3101,5.3174,5.2765,5.3715,5.3971,4.244,4.4317,4.6591,4.8566,5.1229,5.3912,5.6053,5.6462,5.6885,5.874,5.9021,5.87,5.7828,5.8014,5.8049,5.7263,5.7842,5.8309,5.7918,5.8128,5.8082,5.7393,5.7453,5.7423,5.7124,5.7244,5.7004,5.6278,5.6218,5.5837,5.5029,5.5119,5.5119,5.497,5.5119,5.5179,5.5179,5.5059,5.479,5.4401,5.3563,5.2995,5.2636,5.2486,5.2127,5.1678,5.2187,5.2486,5.2725,5.3773,5.4281,5.4431,5.4431,5.4431,5.4341,5.3803,5.3623,5.3623,5.3623,5.3533,5.3414,5.3414,5.2965,5.2396,5.2247,5.1828,5.1439,5.1439,5.194,5.273,5.3592,5.4292,5.4933,5.5249,5.461,5.3952,5.3803,5.2845,5.2127,5.2665,5.2336,5.2187,5.2845,5.2845,5.2815,5.2935,5.2396,5.1977,5.1977,5.1528,5.1229,5.1229,5.1678,5.1977,5.1977,5.1977,5.2067,5.2187,5.1635,5.1476,5.1813,5.1924,5.2291,5.29,5.3055,5.3392,5.3865,5.4236,5.4281,5.403,5.4718,5.4879,4.247,4.4556,4.71,5.0331,5.2935,5.499,5.6131,5.632,5.6555,5.7872,5.8354,5.8301,5.7609,5.7967,5.8174,5.7476,5.7859,5.8088,5.7756,5.7737,5.7671,5.7311,5.7198,5.7094,5.7094,5.7094,5.6825,5.6278,5.6218,5.5748,5.476,5.5029,5.5029,5.473,5.5029,5.5179,5.5179,5.488,5.47,5.467,5.3982,5.3503,5.3114,5.2157,5.1528,5.1259,5.1917,5.2187,5.2276,5.3294,5.3922,5.4192,5.3832,5.3922,5.4132,5.3443,5.3174,5.3174,5.3174,5.2965,5.2725,5.2725,5.2276,5.1738,5.1738,5.1498,5.1289,5.1588,5.2107,5.2855,5.3947,5.4607,5.5159,5.5827,5.5167,5.434,5.4221,5.3414,5.2785,5.3114,5.2905,5.2923,5.3759,5.3849,5.371,5.3283,5.2875,5.2665,5.2665,5.2366,5.2157,5.2157,5.2456,5.2665,5.2665,5.2665,5.2815,5.3144,5.2247,5.1875,5.2317,5.1887,5.2074,5.2973,5.3113,5.3465,5.4104,5.4535,5.4718,5.4653,5.5468,5.5773,4.2342,4.4915,4.7848,5.2127,5.4102,5.5209,5.5939,5.6038,5.6188,5.6697,5.7234,5.751,5.7389,5.7616,5.779,5.772,5.776,5.7739,5.7669,5.7505,5.7329,5.7157,5.7092,5.6937,5.6765,5.6885,5.6675,5.6047,5.6068,5.5538,5.4431,5.491,5.494,5.4401,5.491,5.5179,5.5179,5.464,5.464,5.5179,5.4401,5.3922,5.3653,5.2097,5.1439,5.1588,5.2127,5.2366,5.2426,5.2965,5.3503,5.3952,5.3264,5.3354,5.3773,5.3084,5.2845,5.2845,5.2845,5.2486,5.2037,5.2037,5.1648,5.1229,5.1229,5.1229,5.1349,5.2055,5.2562,5.3192,5.4643,5.5214,5.5475,5.625,5.5652,5.4816,5.452,5.3882,5.3432,5.3552,5.3582,5.3909,5.4726,5.4865,5.4586,5.3789,5.356,5.35,5.35,5.341,5.332,5.3271,5.3271,5.3223,5.3174,5.3174,5.3414,5.3982,5.2995,5.2606,5.3144,5.2127,5.2017,5.2984,5.3108,5.3472,5.4183,5.4825,5.5147,5.5177,5.5999,5.6421,4.1085,4.5226,4.9599,5.2456,5.3773,5.4571,5.5451,5.5531,5.543,5.5722,5.6756,5.7462,5.7061,5.7222,5.737,5.7033,5.7155,5.719,5.6659,5.6807,5.6708,5.5963,5.6334,5.6383,5.5559,5.5957,5.6017,5.5359,5.5329,5.5239,5.5059,5.5149,5.5149,5.5059,5.5149,5.5179,5.5179,5.5089,5.5089,5.5179,5.3922,5.2725,5.1618,5.1917,5.2366,5.2935,5.3025,5.3054,5.3054,5.3144,5.3234,5.3264,5.2606,5.2396,5.2396,5.1708,5.1468,5.1468,5.1468,5.1439,5.1349,5.1349,5.1289,5.1229,5.1229,5.1229,5.1396,5.2292,5.3131,5.4084,5.5084,5.5936,5.6541,5.6439,5.6311,5.6054,5.551,5.4868,5.4548,5.487,5.511,5.539,5.5728,5.5808,5.5778,5.5607,5.5122,5.4758,5.4758,5.4243,5.3784,5.3543,5.3543,5.3447,5.3223,5.3174,5.3204,5.3324,5.3144,5.3084,5.3174,5.3025,5.3013,5.3151,5.3663,5.4364,5.5359,5.5944,5.617,5.617,5.6342,5.6519,4.1564,4.5274,4.8805,5.1439,5.2576,5.3402,5.455,5.474,5.481,5.527,5.5861,5.6263,5.6384,5.6652,5.6807,5.6792,5.691,5.6954,5.6647,5.6617,5.6481,5.6108,5.6022,5.5862,5.5461,5.555,5.5508,5.5209,5.5179,5.5179,5.5179,5.5179,5.5179,5.5179,5.5179,5.5179,5.5179,5.5179,5.4999,5.461,5.3264,5.2516,5.2306,5.2247,5.2366,5.2665,5.3414,5.3533,5.3204,5.3593,5.3743,5.3653,5.2606,5.2426,5.2636,5.1588,5.1229,5.1229,5.1229,5.1229,5.1229,5.1229,5.1229,5.1229,5.1229,5.1563,5.2154,5.2959,5.391,5.4992,5.5761,5.6401,5.6761,5.6664,5.6616,5.6519,5.6127,5.5588,5.5219,5.5371,5.5631,5.588,5.5979,5.6127,5.6127,5.583,5.5637,5.5505,5.5357,5.5183,5.5098,5.4952,5.4952,5.4854,5.4559,5.4559,5.451,5.4311,5.3952,5.3743,5.3743,5.3384,5.3354,5.3743,5.3627,5.3977,5.484,5.5038,5.5417,5.5929,5.5929,5.6176,4.0958,4.3808,4.6292,4.9434,5.084,5.1858,5.3354,5.3832,5.4072,5.4581,5.482,5.509,5.5588,5.6005,5.6372,5.6664,5.6761,5.681,5.681,5.6616,5.647,5.6421,5.6028,5.5731,5.5631,5.5431,5.528,5.5179,5.5179,5.5179,5.5179,5.5179,5.5179,5.5179,5.5179,5.5179,5.5179,5.5029,5.4521,5.3683,5.2845,5.2606,5.2935,5.2785,5.2606,5.2516,5.3503,5.3653,5.3204,5.3563,5.3713,5.3593,5.2396,5.2247,5.2576,5.1588,5.1229,5.1229,5.1229,5.1229,5.1229,5.1229,5.1229,5.1229,5.1276,5.1914,5.2765,5.3602,5.4557,5.5564,5.6286,5.6664,5.681,5.681,5.681,5.6713,5.647,5.6028,5.5731,5.578,5.5979,5.6127,5.6176,5.6372,5.6372,5.5979,5.6077,5.6127,5.5929,5.6077,5.6176,5.6127,5.6127,5.5979,5.5731,5.5681,5.5631,5.5431,5.488,5.461,5.466,5.41,5.3961,5.4291,5.3811,5.3732,5.4221,5.4421,5.481,5.534,5.5521,5.588,3.7774,3.9679,4.1833,4.6381,4.8476,4.9958,5.1858,5.2785,5.3234,5.3264,5.3803,5.4351,5.4597,5.5406,5.6127,5.6372,5.6616,5.681,5.681,5.6761,5.6664,5.6421,5.6372,5.6176,5.5631,5.5581,5.5481,5.5229,5.5179,5.5179,5.5179,5.5179,5.5179,5.5179,5.5179,5.5179,5.5179,5.4581,5.3593,5.2306,5.2875,5.2815,5.2306,5.3533,5.3743,5.3144,5.3204,5.3204,5.3144,5.2546,5.2306,5.2247,5.1528,5.1289,5.1319,5.1259,5.1229,5.1229,5.1229,5.1229,5.1229,5.1229,5.1229,5.1276,5.1479,5.2054,5.2859,5.403,5.4844,5.5612,5.6528,5.681,5.681,5.681,5.681,5.6713,5.647,5.6176,5.6077,5.6323,5.6372,5.647,5.6713,5.6761,5.6761,5.6761,5.6761,5.6761,5.6713,5.6761,5.6664,5.6421,5.6372,5.6274,5.5979,5.5979,5.5979,5.5979,5.57,5.562,5.5869,5.564,5.5189,5.4616,5.4556,5.4409,5.4221,5.507,5.5219,5.4677,5.528,5.588,3.6709,3.8452,4.0487,4.3389,4.5424,4.7249,4.9224,5.084,5.2037,5.2456,5.3084,5.3661,5.3905,5.5103,5.6077,5.6372,5.6616,5.681,5.681,5.681,5.6761,5.6664,5.6519,5.6323,5.6127,5.578,5.5581,5.5481,5.528,5.5179,5.5179,5.5179,5.5179,5.5179,5.5179,5.497,5.4551,5.3473,5.2665,5.2187,5.2426,5.2426,5.2217,5.2695,5.2785,5.2516,5.2097,5.2396,5.3174,5.2935,5.2815,5.2755,5.2097,5.1858,5.1798,5.1566,5.1463,5.1463,5.1463,5.1463,5.1523,5.1755,5.1952,5.2201,5.27,5.359,5.45,5.4935,5.563,5.6357,5.67,5.681,5.681,5.681,5.681,5.6761,5.6664,5.6323,5.6077,5.6372,5.6421,5.647,5.6761,5.6664,5.6365,5.5906,5.6212,5.6365,5.5906,5.6388,5.6761,5.6664,5.6664,5.6567,5.6274,5.6274,5.6176,5.6028,5.5929,5.588,5.5979,5.5929,5.5709,5.5467,5.5516,5.5058,5.4221,5.453,5.482,5.5,5.524,5.5531,3.515,3.6776,3.8721,4.1422,4.3069,4.4736,4.7638,4.9134,5.0212,5.1319,5.2067,5.2702,5.3182,5.4407,5.5408,5.5669,5.6094,5.644,5.644,5.6656,5.681,5.681,5.6664,5.6519,5.6421,5.5979,5.5681,5.5631,5.533,5.5179,5.5179,5.5179,5.5179,5.5179,5.476,5.4311,5.3862,5.2755,5.2187,5.2187,5.2426,5.2636,5.2875,5.2875,5.2755,5.2486,5.1828,5.1917,5.2516,5.2516,5.2516,5.2486,5.2037,5.1858,5.1875,5.166,5.1572,5.1649,5.1937,5.2027,5.2054,5.2623,5.2881,5.3036,5.3663,5.4605,5.5411,5.5507,5.6142,5.681,5.681,5.681,5.681,5.681,5.681,5.681,5.681,5.6519,5.6323,5.6519,5.6519,5.6616,5.6761,5.6664,5.6365,5.573,5.6164,5.6335,5.573,5.6309,5.681,5.681,5.681,5.6713,5.6567,5.6519,5.647,5.6274,5.6176,5.6176,5.6274,5.6176,5.6127,5.6127,5.6127,5.5717,5.4769,5.4769,5.4939,5.515,5.529,5.5431,0.0,0.0,0.0,4.0247,4.1302,4.253,4.701,4.7608,4.7758,4.9657,5.0614,5.1396,5.2369,5.33,5.4009,5.4216,5.505,5.5653,5.5653,5.6269,5.6779,5.6779,5.681,5.6713,5.6421,5.6176,5.588,5.5601,5.53,5.5149,5.5119,5.5119,5.5119,5.5119,5.3832,5.3114,5.3114,5.2486,5.2157,5.2187,5.2845,5.3533,5.4221,5.4221,5.3832,5.3144,5.2486,5.1828,5.1229,5.1229,5.1229,5.1229,5.1229,5.1229,5.1229,5.1479,5.1649,5.1769,5.2714,5.2863,5.2795,5.3698,5.3862,5.3748,5.4274,5.4922,5.549,5.5698,5.6238,5.681,5.681,5.681,5.681,5.681,5.681,5.681,5.681,5.681,5.681,5.681,5.681,5.681,5.681,5.681,5.6713,5.6439,5.6585,5.6682,5.6439,5.6585,5.6779,5.681,5.681,5.681,5.681,5.681,5.681,5.681,5.6567,5.6519,5.681,5.6567,5.6421,5.6421,5.6421,5.6274,5.6028,5.6028,5.5694,5.5038,5.5428,5.5631,3.3384,0.0,0.0,0.0,0.0,0.0,4.2073,4.3569,4.5035,4.6967,4.8297,4.9524,5.0893,5.1739,5.2332,5.2611,5.3959,5.5007,5.5007,5.5561,5.5992,5.5992,5.6502,5.6761,5.6713,5.6274,5.5766,5.5183,5.4709,5.4251,5.3773,5.3743,5.3743,5.3743,5.2456,5.1768,5.1768,5.1109,5.102,5.1498,5.2636,5.3533,5.4221,5.4221,5.3832,5.3144,5.2486,5.1828,5.1229,5.1229,5.1229,5.1229,5.1229,5.1229,5.1276,5.1695,5.2213,5.2684,5.3069,5.3371,5.3728,5.4491,5.4655,5.4746,5.5621,5.6089,5.6436,5.6453,5.6656,5.681,5.681,5.681,5.681,5.681,5.681,5.681,5.681,5.681,5.681,5.681,5.681,5.681,5.681,5.6664,5.6383,5.5958,5.58,5.5752,5.5896,5.5944,5.6176,5.6748,5.681,5.681,5.681,5.681,5.681,5.681,5.6713,5.6713,5.681,5.6713,5.6713,5.6713,5.6713,5.6664,5.6567,5.6176,5.5888,5.5705,5.5838,5.588,3.379,3.521,3.6836,3.6746,0.0,0.0,4.0726,4.1893,4.3269,4.5771,4.692,4.8025,4.9839,5.0276,5.0638,5.144,5.2475,5.3377,5.4021,5.4743,5.5189,5.5284,5.5653,5.6023,5.63,5.5717,5.5244,5.4977,5.4345,5.3721,5.3253,5.2905,5.2905,5.3174,5.1917,5.1349,5.1618,5.0913,5.1063,5.2037,5.2815,5.3683,5.461,5.4042,5.3563,5.3144,5.2187,5.1558,5.1229,5.1229,5.1229,5.1229,5.1229,5.1276,5.1416,5.1834,5.2489,5.319,5.3698,5.4171,5.4683,5.5481,5.5694,5.5707,5.6347,5.6664,5.681,5.681,5.681,5.681,5.681,5.681,5.681,5.681,5.681,5.681,5.681,5.681,5.681,5.681,5.681,5.681,5.681,5.6664,5.6414,5.6063,5.5954,5.5954,5.6002,5.6098,5.6347,5.6779,5.681,5.6761,5.6664,5.6713,5.6761,5.6664,5.6713,5.681,5.681,5.681,5.681,5.681,5.681,5.681,5.681,5.647,5.6274,5.6176,5.6176,5.6127,3.4479,3.6011,3.7699,3.8182,3.7943,0.0,4.1212,4.1512,4.2013,4.5035,4.5741,4.6514,4.8621,4.8605,4.8722,5.0152,5.0546,5.1288,5.2963,5.3804,5.4357,5.456,5.4621,5.4945,5.553,5.4802,5.4443,5.48,5.3887,5.3284,5.3061,5.2396,5.2366,5.2935,5.1768,5.1379,5.1977,5.1409,5.1768,5.3084,5.3144,5.3862,5.5029,5.3832,5.3204,5.2995,5.1828,5.1289,5.1246,5.1246,5.1229,5.1229,5.1229,5.1386,5.1618,5.1926,5.2612,5.3545,5.4421,5.5003,5.5564,5.6498,5.6616,5.647,5.6713,5.681,5.681,5.681,5.681,5.681,5.681,5.681,5.681,5.681,5.681,5.681,5.681,5.681,5.681,5.681,5.681,5.681,5.681,5.681,5.6713,5.647,5.6603,5.6621,5.647,5.6603,5.6717,5.681,5.681,5.6713,5.647,5.6664,5.6713,5.647,5.6664,5.681,5.681,5.681,5.681,5.681,5.681,5.681,5.681,5.681,5.6664,5.647,5.647,5.6323,3.6604,3.7529,3.8567,3.7789,3.8332,0.0,3.8482,3.911,4.0127,4.1324,4.2402,4.3609,4.5046,4.5687,4.6047,4.6359,4.7739,4.9718,5.2154,5.307,5.3622,5.3853,5.4345,5.4745,5.4868,5.4526,5.4093,5.3696,5.2637,5.1964,5.1917,5.1563,5.1468,5.1588,5.0794,5.0435,5.0584,5.0435,5.1079,5.2396,5.2935,5.3623,5.4401,5.4132,5.3414,5.2366,5.2127,5.1802,5.1526,5.1526,5.1386,5.1229,5.1433,5.1526,5.1665,5.2079,5.3055,5.4218,5.4606,5.534,5.6237,5.6682,5.6616,5.647,5.6713,5.681,5.681,5.681,5.681,5.681,5.681,5.681,5.681,5.681,5.681,5.681,5.681,5.681,5.681,5.681,5.681,5.681,5.681,5.681,5.6761,5.6713,5.6269,5.6115,5.6621,5.6269,5.6115,5.6748,5.681,5.6761,5.6713,5.6761,5.6761,5.6713,5.6761,5.681,5.681,5.681,5.681,5.681,5.681,5.681,5.681,5.681,5.6761,5.6713,5.6713,5.6713,3.7038,3.7824,3.8743,3.7942,3.8245,0.0,0.0,3.8661,3.929,4.0606,4.0876,4.1384,4.303,4.3329,4.3658,4.4646,4.6202,4.7932,4.9742,5.1531,5.278,5.3176,5.3806,5.4114,5.4021,5.3851,5.3483,5.2703,5.2015,5.1572,5.1572,5.1369,5.1229,5.1229,5.0853,5.0674,5.0674,5.0674,5.1229,5.2187,5.2546,5.3054,5.3683,5.3354,5.2845,5.2187,5.1858,5.1575,5.1416,5.1526,5.1526,5.1463,5.1695,5.1787,5.1834,5.217,5.3254,5.4543,5.4683,5.5527,5.6616,5.6761,5.6713,5.6616,5.6761,5.681,5.681,5.681,5.681,5.681,5.681,5.681,5.681,5.681,5.681,5.681,5.681,5.681,5.681,5.681,5.681,5.681,5.681,5.681,5.681,5.681,5.6502,5.6361,5.6779,5.6502,5.6409,5.6779,5.681,5.6761,5.6616,5.6713,5.6761,5.6616,5.6713,5.681,5.681,5.681,5.681,5.681,5.681,5.681,5.681,5.681,5.681,5.681,5.681,5.6994,3.7652,3.8363,3.9254,3.8667,3.8739,3.8954,0.0,0.0,0.0,4.0516,4.0068,3.9918,4.1542,4.1302,4.1354,4.309,4.4496,4.5717,4.6749,4.9169,5.1105,5.1949,5.2807,5.3223,5.3009,5.2749,5.2444,5.2048,5.1424,5.1226,5.1572,5.1369,5.1229,5.1229,5.1229,5.1229,5.1229,5.1349,5.1678,5.2187,5.2336,5.2606,5.2965,5.2456,5.2127,5.1977,5.1486,5.1323,5.1369,5.1618,5.1711,5.1695,5.1972,5.2063,5.2094,5.2414,5.3469,5.4714,5.4884,5.5715,5.681,5.681,5.681,5.681,5.681,5.681,5.681,5.681,5.681,5.681,5.681,5.681,5.681,5.681,5.681,5.681,5.681,5.681,5.681,5.681,5.681,5.681,5.681,5.681,5.681,5.681,5.681,5.681,5.681,5.681,5.681,5.681,5.681,5.6713,5.6519,5.6664,5.6713,5.647,5.6664,5.681,5.681,5.681,5.681,5.681,5.6933,5.6994,5.6994,5.6994,5.6933,5.681,5.6933,5.7303,4.0382,4.086,4.1174,4.0338,4.1017,4.1324,3.902,0.0,3.9888,3.8931,0.0,3.9463,3.9709,0.0,0.0,3.9792,4.1085,4.2488,4.3956,4.5475,4.7243,4.9433,5.0997,5.1929,5.1884,5.0808,5.0634,5.1896,5.0288,4.9882,5.1528,5.1369,5.1229,5.1229,5.1229,5.1229,5.1229,5.1798,5.2127,5.2217,5.2785,5.2815,5.2306,5.2247,5.1887,5.1319,5.1463,5.1695,5.1956,5.2124,5.2109,5.2002,5.217,5.2261,5.2367,5.3239,5.4037,5.4775,5.5376,5.6115,5.681,5.681,5.681,5.681,5.681,5.681,5.681,5.681,5.681,5.681,5.681,5.681,5.681,5.681,5.681,5.681,5.681,5.681,5.681,5.681,5.681,5.681,5.681,5.681,5.681,5.681,5.681,5.681,5.681,5.681,5.681,5.681,5.681,5.6761,5.6761,5.6761,5.6761,5.6761,5.6761,5.681,5.681,5.681,5.681,5.681,5.7395,5.7703,5.7703,5.7703,5.7395,5.681,5.7426,5.7734,4.0529,4.1008,4.143,4.0787,4.1156,4.13,3.9888,3.9379,3.92,3.902,0.0,0.0,0.0,0.0,0.0,0.0,4.0516,4.1482,4.1746,4.3033,4.4951,4.7646,4.8596,4.9267,4.9931,4.9182,4.923,5.0727,4.9257,4.9183,5.1167,5.0846,5.0794,5.1199,5.1229,5.1229,5.1229,5.1498,5.1922,5.2425,5.2192,5.2192,5.2425,5.1845,5.1563,5.1433,5.1526,5.1741,5.2048,5.2215,5.2261,5.22,5.2427,5.2382,5.2246,5.3331,5.4099,5.4775,5.5468,5.6146,5.681,5.681,5.681,5.681,5.681,5.681,5.681,5.681,5.681,5.681,5.681,5.681,5.681,5.681,5.681,5.681,5.681,5.681,5.681,5.681,5.681,5.681,5.681,5.681,5.681,5.681,5.681,5.681,5.681,5.681,5.681,5.681,5.681,5.681,5.681,5.681,5.681,5.681,5.681,5.681,5.681,5.681,5.681,5.681,5.7087,5.7241,5.7241,5.7241,5.7087,5.681,5.7118,5.7672,4.1357,4.1653,4.2,4.1163,4.108,4.0986,4.03,3.9649,3.929,3.9619,3.92,0.0,0.0,0.0,3.911,3.9619,0.0,4.0756,4.0427,4.1055,4.2508,4.5223,4.6275,4.7236,4.8399,4.7558,4.7703,4.9573,4.8074,4.8092,5.0486,5.0335,5.0405,5.0883,5.1109,5.1229,5.1323,5.1683,5.2154,5.2708,5.2154,5.2107,5.2537,5.1686,5.1416,5.1618,5.1711,5.1895,5.2109,5.2306,5.2352,5.2352,5.2608,5.255,5.2474,5.3561,5.4252,5.4806,5.5684,5.6378,5.681,5.681,5.681,5.681,5.681,5.681,5.681,5.681,5.681,5.681,5.681,5.681,5.681,5.681,5.681,5.681,5.681,5.681,5.681,5.681,5.681,5.681,5.681,5.681,5.681,5.681,5.681,5.681,5.681,5.681,5.681,5.681,5.681,5.681,5.681,5.681,5.681,5.681,5.681,5.681,5.681,5.681,5.681,5.681,5.6994,5.7087,5.7087,5.7087,5.7087,5.7087,5.7087,5.7611,4.3997,4.389,4.3526,4.1786,4.1384,4.1055,3.9738,4.0397,4.1115,4.0487,4.1392,4.2051,4.1422,4.0756,4.0337,4.0367,3.9858,0.0,0.0,3.932,3.9367,4.1603,4.4334,4.6579,4.7916,4.5828,4.5645,4.868,4.6496,4.6342,4.9462,4.9974,5.0196,5.0226,5.0853,5.1293,5.1572,5.2898,5.3326,5.3004,5.3326,5.32,5.2584,5.1874,5.1572,5.1618,5.2079,5.2306,5.2306,5.2563,5.2518,5.2352,5.2608,5.2917,5.3346,5.4282,5.4652,5.4914,5.6269,5.6779,5.681,5.681,5.681,5.681,5.681,5.681,5.681,5.681,5.681,5.681,5.681,5.681,5.681,5.681,5.681,5.681,5.681,5.681,5.681,5.681,5.681,5.681,5.681,5.681,5.681,5.681,5.681,5.681,5.681,5.681,5.681,5.681,5.681,5.681,5.681,5.681,5.681,5.681,5.681,5.681,5.681,5.681,5.681,5.681,5.7457,5.7795,5.7795,5.7795,5.7795,5.7795,5.7795,5.7795,4.4524,4.4887,4.4864,4.2952,4.2554,4.2222,4.0457,4.0756,4.1324,4.1085,4.1782,4.2321,4.2111,4.1542,4.0905,4.0457,4.0217,3.9679,0.0,3.7674,3.7738,3.9337,4.1543,4.3115,4.3606,4.3879,4.4673,4.6204,4.52,4.593,4.9235,4.9411,5.0004,5.1333,5.1574,5.1741,5.1834,5.2742,5.3429,5.3924,5.3429,5.3381,5.3753,5.2441,5.1926,5.2079,5.2215,5.2397,5.2563,5.2653,5.2653,5.2563,5.2653,5.3084,5.3638,5.4437,5.5007,5.5499,5.6502,5.681,5.681,5.681,5.681,5.681,5.681,5.681,5.681,5.681,5.681,5.681,5.681,5.681,5.681,5.681,5.681,5.681,5.681,5.681,5.681,5.681,5.681,5.6964,5.7395,5.7487,5.7487,5.7487,5.7087,5.7148,5.8042,5.7765,5.7641,5.8104,5.7734,5.7487,5.7487,5.7487,5.7487,5.7487,5.7888,5.8085,5.8085,5.8085,5.8085,5.8085,5.8331,5.8423,5.8423,5.8423,5.8208,5.7826,5.8288,5.8208,4.5332,4.5696,4.5662,4.3905,4.3538,4.326,4.1773,4.2132,4.2761,4.2761,4.3159,4.3519,4.3718,4.268,4.1632,4.1175,4.0696,3.9709,0.0,3.7075,3.7105,3.7943,3.9619,4.1003,4.1798,4.2176,4.3069,4.4621,4.396,4.4769,4.771,4.8566,4.9604,5.0879,5.1638,5.2017,5.2109,5.3022,5.3833,5.4496,5.4077,5.4152,5.4708,5.3176,5.2536,5.2643,5.2489,5.2563,5.2698,5.2698,5.2698,5.2729,5.2975,5.3498,5.4099,5.4529,5.5315,5.6146,5.6656,5.681,5.681,5.681,5.681,5.681,5.681,5.681,5.681,5.681,5.681,5.681,5.681,5.681,5.681,5.681,5.6994,5.7179,5.7179,5.7364,5.7518,5.7518,5.7518,5.7672,5.8104,5.8165,5.8165,5.8165,5.7795,5.7857,5.867,5.8393,5.83,5.8731,5.8393,5.8165,5.8165,5.8165,5.8165,5.8165,5.8547,5.8793,5.8793,5.8793,5.8793,5.8793,5.8793,5.8793,5.8793,5.8793,5.8547,5.8196,5.8577,5.8547]}]]